Darstellungsparameter: Aktuell verwendete Einstellungen:
Skalierung der Graphiken ... ?
xyx+y,   Skalierungsfaktor:      Skalierung: Modus: x, Faktor: 1
Darstellungszeitraum ... ?
Vom - - bis: - -   Zeitraum: 31.07.2019 - 20.08.2019
Min/Max/Avg-Anzeige ... ?
Zeige MMA aktuell
Zeige MMA Monat
Zeige MMA alles
Zeige --A aktuell
Zeige --A Monat
Zeige --A alles
Keine MMA-Anzeige
MMA:
Minimum Maximum Average (ber die Originaldaten)
MMA-Basis: 31.07.2019 - 20.08.2019
Quicknavigation für Darstellung... ?
Tage:      1T, 2T, 3T, 5T -1T -2T -3T -5T +1T +2T +3T +5T
Wochen: 1W, 2W, 3W -1W -2W -3W +1W +2W +3W
Monate: 1M, 3M, 6M -1M -3M -6M +1M +3M +6M
Jahre:    1J, 3J, 5J, 10J -1J -3J -5J -10J +1J +3J +5J +10J
Nutze für die Darstellung ... ?
Originaldaten oder Mittelwerte auf ...
Stundenbasis Tagesbasis Wochenbasis
Monatsbasis Jahresbasis      Datenbasis: Original-Daten
Darstellen als:
Statistik (Auto) Statistik J:M      Darstellung:
Zur Graphik,    zurück zur Übersicht aller Sensoren.
 
Tabellarische Datenbersicht: ?
 
Sensor: Nr:Datum:Temp:Feuchte:Taupunkt:
Aussen-T/F 1 31-07-2019 00:00:00 20.7 C 69 % 14.81 C
2 31-07-2019 00:05:00 20.7 C 69 % 14.81 C
3 31-07-2019 00:10:00 20.7 C 69 % 14.81 C
4 31-07-2019 00:15:00 20.6 C 69 % 14.71 C
5 31-07-2019 00:20:00 20.6 C 70 % 14.94 C
6 31-07-2019 00:25:00 20.6 C 70 % 14.94 C
7 31-07-2019 00:30:00 20.6 C 69 % 14.71 C
8 31-07-2019 00:35:00 20.5 C 70 % 14.84 C
9 31-07-2019 00:40:00 20.4 C 70 % 14.75 C
10 31-07-2019 00:45:00 20.4 C 71 % 14.97 C
11 31-07-2019 00:50:00 20.4 C 71 % 14.97 C
12 31-07-2019 00:55:00 20.4 C 71 % 14.97 C
13 31-07-2019 01:00:00 20.3 C 71 % 14.87 C
14 31-07-2019 01:05:00 20.3 C 71 % 14.87 C
15 31-07-2019 01:10:00 20.3 C 71 % 14.87 C
16 31-07-2019 01:15:00 20.3 C 71 % 14.87 C
17 31-07-2019 01:20:00 20.3 C 71 % 14.87 C
18 31-07-2019 01:25:00 20.3 C 71 % 14.87 C
19 31-07-2019 01:30:00 20.3 C 71 % 14.87 C
20 31-07-2019 01:35:00 20.3 C 71 % 14.87 C
21 31-07-2019 01:40:00 20.4 C 71 % 14.97 C
22 31-07-2019 01:45:00 20.4 C 71 % 14.97 C
23 31-07-2019 01:50:00 20.4 C 71 % 14.97 C
24 31-07-2019 01:55:00 20.3 C 71 % 14.87 C
25 31-07-2019 02:00:00 20.2 C 71 % 14.78 C
Sensor: Nr:Datum:Temp:Feuchte:Taupunkt:
Aussen-T/F 26 31-07-2019 02:05:00 20.1 C 71 % 14.68 C
27 31-07-2019 02:10:00 19.9 C 71 % 14.49 C
28 31-07-2019 02:15:00 19.8 C 71 % 14.39 C
29 31-07-2019 02:20:00 19.8 C 72 % 14.61 C
30 31-07-2019 02:25:00 19.7 C 72 % 14.51 C
31 31-07-2019 02:30:00 19.7 C 72 % 14.51 C
32 31-07-2019 02:35:00 19.6 C 72 % 14.42 C
33 31-07-2019 02:40:00 19.6 C 72 % 14.42 C
34 31-07-2019 02:45:00 19.4 C 72 % 14.22 C
35 31-07-2019 02:50:00 19.4 C 72 % 14.22 C
36 31-07-2019 02:55:00 19.3 C 72 % 14.13 C
37 31-07-2019 03:00:00 19.2 C 72 % 14.03 C
38 31-07-2019 03:05:00 19.1 C 73 % 14.15 C
39 31-07-2019 03:10:00 18.9 C 73 % 13.96 C
40 31-07-2019 03:15:00 18.8 C 74 % 14.07 C
41 31-07-2019 03:20:00 18.7 C 74 % 13.97 C
42 31-07-2019 03:25:00 18.6 C 75 % 14.08 C
43 31-07-2019 03:30:00 18.6 C 76 % 14.29 C
44 31-07-2019 03:35:00 18.4 C 76 % 14.1 C
45 31-07-2019 03:40:00 18.4 C 76 % 14.1 C
46 31-07-2019 03:45:00 18.3 C 77 % 14.2 C
47 31-07-2019 03:50:00 18.3 C 77 % 14.2 C
48 31-07-2019 03:55:00 18.3 C 78 % 14.4 C
49 31-07-2019 04:00:00 18.3 C 78 % 14.4 C
50 31-07-2019 04:05:00 18.3 C 79 % 14.6 C
Sensor: Nr:Datum:Temp:Feuchte:Taupunkt:
Aussen-T/F 51 31-07-2019 04:10:00 18.3 C 78 % 14.4 C
52 31-07-2019 04:15:00 18.4 C 78 % 14.5 C
53 31-07-2019 04:20:00 18.6 C 77 % 14.49 C
54 31-07-2019 04:25:00 18.7 C 77 % 14.59 C
55 31-07-2019 04:30:00 18.7 C 76 % 14.39 C
56 31-07-2019 04:35:00 18.7 C 76 % 14.39 C
57 31-07-2019 04:40:00 18.8 C 76 % 14.48 C
58 31-07-2019 04:45:00 18.8 C 77 % 14.68 C
59 31-07-2019 04:50:00 18.7 C 76 % 14.39 C
60 31-07-2019 04:55:00 18.6 C 76 % 14.29 C
61 31-07-2019 05:00:00 18.4 C 76 % 14.1 C
62 31-07-2019 05:05:00 18.3 C 76 % 14 C
63 31-07-2019 05:10:00 18.1 C 76 % 13.81 C
64 31-07-2019 05:15:00 17.9 C 77 % 13.81 C
65 31-07-2019 05:20:00 17.8 C 78 % 13.91 C
66 31-07-2019 05:25:00 17.7 C 78 % 13.82 C
67 31-07-2019 05:30:00 17.7 C 79 % 14.01 C
68 31-07-2019 05:35:00 17.6 C 79 % 13.92 C
69 31-07-2019 05:40:00 17.6 C 79 % 13.92 C
70 31-07-2019 05:45:00 17.6 C 79 % 13.92 C
71 31-07-2019 05:50:00 17.6 C 80 % 14.11 C
72 31-07-2019 05:55:00 17.7 C 79 % 14.01 C
73 31-07-2019 06:00:00 17.7 C 79 % 14.01 C
74 31-07-2019 06:05:00 17.7 C 79 % 14.01 C
75 31-07-2019 06:10:00 17.7 C 79 % 14.01 C
Sensor: Nr:Datum:Temp:Feuchte:Taupunkt:
Aussen-T/F 76 31-07-2019 06:15:00 17.8 C 78 % 13.91 C
77 31-07-2019 06:20:00 17.8 C 78 % 13.91 C
78 31-07-2019 06:25:00 17.7 C 78 % 13.82 C
79 31-07-2019 06:30:00 17.7 C 78 % 13.82 C
80 31-07-2019 06:35:00 17.7 C 78 % 13.82 C
81 31-07-2019 06:40:00 17.6 C 78 % 13.72 C
82 31-07-2019 06:45:00 17.5 C 78 % 13.62 C
83 31-07-2019 06:50:00 17.4 C 79 % 13.72 C
84 31-07-2019 06:55:00 17.4 C 79 % 13.72 C
85 31-07-2019 07:00:00 17.3 C 79 % 13.63 C
86 31-07-2019 07:05:00 17.3 C 80 % 13.82 C
87 31-07-2019 07:10:00 17.3 C 80 % 13.82 C
88 31-07-2019 07:15:00 17.3 C 80 % 13.82 C
89 31-07-2019 07:20:00 17.3 C 80 % 13.82 C
90 31-07-2019 07:25:00 17.3 C 80 % 13.82 C
91 31-07-2019 07:30:00 17.3 C 80 % 13.82 C
92 31-07-2019 07:35:00 17.4 C 80 % 13.92 C
93 31-07-2019 07:40:00 17.4 C 80 % 13.92 C
94 31-07-2019 07:45:00 17.4 C 80 % 13.92 C
95 31-07-2019 07:50:00 17.6 C 80 % 14.11 C
96 31-07-2019 07:55:00 17.6 C 80 % 14.11 C
97 31-07-2019 08:00:00 17.7 C 79 % 14.01 C
98 31-07-2019 08:05:00 17.8 C 78 % 13.91 C
99 31-07-2019 08:10:00 17.9 C 78 % 14.01 C
100 31-07-2019 08:15:00 18 C 78 % 14.11 C
Sensor: Nr:Datum:Temp:Feuchte:Taupunkt:
Aussen-T/F 101 31-07-2019 08:20:00 18.1 C 79 % 14.4 C
102 31-07-2019 08:25:00 18.2 C 76 % 13.9 C
103 31-07-2019 08:30:00 18.4 C 75 % 13.89 C
104 31-07-2019 08:35:00 18.7 C 74 % 13.97 C
105 31-07-2019 08:40:00 18.9 C 73 % 13.96 C
106 31-07-2019 08:45:00 19.1 C 72 % 13.94 C
107 31-07-2019 08:50:00 19.2 C 72 % 14.03 C
108 31-07-2019 08:55:00 19.3 C 71 % 13.91 C
109 31-07-2019 09:00:00 19.4 C 72 % 14.22 C
110 31-07-2019 09:05:00 19.5 C 71 % 14.1 C
111 31-07-2019 09:10:00 19.6 C 70 % 13.98 C
112 31-07-2019 09:15:00 19.8 C 70 % 14.17 C
113 31-07-2019 09:20:00 19.8 C 69 % 13.95 C
114 31-07-2019 09:25:00 19.9 C 68 % 13.82 C
115 31-07-2019 09:30:00 20.1 C 67 % 13.78 C
116 31-07-2019 09:35:00 20.2 C 67 % 13.88 C
117 31-07-2019 09:40:00 20.4 C 66 % 13.84 C
118 31-07-2019 09:45:00 20.4 C 65 % 13.6 C
119 31-07-2019 09:50:00 20.5 C 64 % 13.46 C
120 31-07-2019 09:55:00 20.6 C 63 % 13.31 C
121 31-07-2019 10:00:00 20.7 C 64 % 13.65 C
122 31-07-2019 10:05:00 20.8 C 62 % 13.26 C
123 31-07-2019 10:10:00 20.9 C 61 % 13.1 C
124 31-07-2019 10:15:00 21.2 C 61 % 13.38 C
125 31-07-2019 10:20:00 21.4 C 59 % 13.06 C
Sensor: Nr:Datum:Temp:Feuchte:Taupunkt:
Aussen-T/F 126 31-07-2019 10:25:00 21.4 C 57 % 12.53 C
127 31-07-2019 10:30:00 21.4 C 57 % 12.53 C
128 31-07-2019 10:35:00 21.5 C 56 % 12.36 C
129 31-07-2019 10:40:00 21.7 C 57 % 12.81 C
130 31-07-2019 10:45:00 21.8 C 58 % 13.17 C
131 31-07-2019 10:50:00 21.8 C 56 % 12.64 C
132 31-07-2019 10:55:00 21.7 C 57 % 12.81 C
133 31-07-2019 11:00:00 21.5 C 56 % 12.36 C
134 31-07-2019 11:05:00 21.3 C 56 % 12.17 C
135 31-07-2019 11:10:00 21.1 C 58 % 12.52 C
136 31-07-2019 11:15:00 21.1 C 57 % 12.25 C
137 31-07-2019 11:20:00 21.2 C 57 % 12.35 C
138 31-07-2019 11:25:00 21.4 C 56 % 12.27 C
139 31-07-2019 11:30:00 21.6 C 55 % 12.18 C
140 31-07-2019 11:35:00 21.8 C 54 % 12.08 C
141 31-07-2019 11:40:00 21.9 C 54 % 12.18 C
142 31-07-2019 11:45:00 22 C 54 % 12.27 C
143 31-07-2019 11:50:00 22.2 C 53 % 12.17 C
144 31-07-2019 11:55:00 22.2 C 53 % 12.17 C
145 31-07-2019 12:00:00 22.1 C 52 % 11.79 C
146 31-07-2019 12:05:00 22.2 C 52 % 11.88 C
147 31-07-2019 12:10:00 22.3 C 52 % 11.97 C
148 31-07-2019 12:15:00 22.6 C 53 % 12.54 C
149 31-07-2019 12:20:00 22.8 C 52 % 12.43 C
150 31-07-2019 12:25:00 22.9 C 51 % 12.23 C
Sensor: Nr:Datum:Temp:Feuchte:Taupunkt:
Aussen-T/F 151 31-07-2019 12:30:00 22.9 C 48 % 11.31 C
152 31-07-2019 12:35:00 22.7 C 49 % 11.44 C
153 31-07-2019 12:40:00 22.8 C 49 % 11.53 C
154 31-07-2019 12:45:00 22.8 C 50 % 11.84 C
155 31-07-2019 12:50:00 22.9 C 51 % 12.23 C
156 31-07-2019 12:55:00 23 C 51 % 12.32 C
157 31-07-2019 13:00:00 23.1 C 52 % 12.71 C
158 31-07-2019 13:05:00 23.2 C 51 % 12.51 C
159 31-07-2019 13:10:00 23.3 C 49 % 11.99 C
160 31-07-2019 13:15:00 23.3 C 47 % 11.36 C
161 31-07-2019 13:20:00 23.4 C 47 % 11.45 C
162 31-07-2019 13:25:00 23.6 C 47 % 11.63 C
163 31-07-2019 13:30:00 23.9 C 46 % 11.58 C
164 31-07-2019 13:35:00 24 C 45 % 11.34 C
165 31-07-2019 13:40:00 24 C 46 % 11.67 C
166 31-07-2019 13:45:00 24.1 C 45 % 11.43 C
167 31-07-2019 13:50:00 24.2 C 44 % 11.18 C
168 31-07-2019 13:55:00 24.2 C 45 % 11.52 C
169 31-07-2019 14:00:00 24.3 C 44 % 11.27 C
170 31-07-2019 14:05:00 24.4 C 44 % 11.36 C
171 31-07-2019 14:10:00 24.3 C 43 % 10.93 C
172 31-07-2019 14:15:00 24.4 C 43 % 11.02 C
173 31-07-2019 14:20:00 24.5 C 44 % 11.45 C
174 31-07-2019 14:25:00 24.7 C 44 % 11.63 C
175 31-07-2019 14:30:00 25 C 42 % 11.2 C
Sensor: Nr:Datum:Temp:Feuchte:Taupunkt:
Aussen-T/F 176 31-07-2019 14:35:00 25.1 C 41 % 10.93 C
177 31-07-2019 14:40:00 24.9 C 41 % 10.75 C
178 31-07-2019 14:45:00 25.1 C 41 % 10.93 C
179 31-07-2019 14:50:00 25.2 C 41 % 11.02 C
180 31-07-2019 14:55:00 25.3 C 41 % 11.11 C
181 31-07-2019 15:00:00 25.4 C 39 % 10.45 C
182 31-07-2019 15:05:00 25.4 C 40 % 10.83 C
183 31-07-2019 15:10:00 25.1 C 41 % 10.93 C
184 31-07-2019 15:15:00 25.1 C 43 % 11.65 C
185 31-07-2019 15:20:00 25.4 C 40 % 10.83 C
186 31-07-2019 15:25:00 25.8 C 40 % 11.18 C
187 31-07-2019 15:30:00 26 C 39 % 10.98 C
188 31-07-2019 15:35:00 26 C 39 % 10.98 C
189 31-07-2019 15:40:00 25.6 C 40 % 11 C
190 31-07-2019 15:45:00 25.7 C 40 % 11.09 C
191 31-07-2019 15:50:00 25.6 C 40 % 11 C
192 31-07-2019 15:55:00 25.5 C 40 % 10.91 C
193 31-07-2019 16:00:00 25.9 C 40 % 11.27 C
194 31-07-2019 16:05:00 26.3 C 38 % 10.86 C
195 31-07-2019 16:10:00 25.8 C 39 % 10.8 C
196 31-07-2019 16:15:00 25.2 C 41 % 11.02 C
197 31-07-2019 16:20:00 24.8 C 42 % 11.02 C
198 31-07-2019 16:25:00 24.7 C 43 % 11.29 C
199 31-07-2019 16:30:00 24.6 C 43 % 11.2 C
200 31-07-2019 16:35:00 24.4 C 43 % 11.02 C
Sensor: Nr:Datum:Temp:Feuchte:Taupunkt:
Aussen-T/F 201 31-07-2019 16:40:00 24.3 C 44 % 11.27 C
202 31-07-2019 16:45:00 24.3 C 45 % 11.61 C
203 31-07-2019 16:50:00 24.4 C 45 % 11.7 C
204 31-07-2019 16:55:00 24.8 C 45 % 12.06 C
205 31-07-2019 17:00:00 24.8 C 44 % 11.72 C
206 31-07-2019 17:05:00 25.1 C 44 % 12 C
207 31-07-2019 17:10:00 25.4 C 43 % 11.92 C
208 31-07-2019 17:15:00 25.6 C 43 % 12.1 C
209 31-07-2019 17:20:00 25.7 C 43 % 12.19 C
210 31-07-2019 17:25:00 25.4 C 43 % 11.92 C
211 31-07-2019 17:30:00 25.2 C 41 % 11.02 C
212 31-07-2019 17:35:00 25.2 C 42 % 11.38 C
213 31-07-2019 17:40:00 25.1 C 43 % 11.65 C
214 31-07-2019 17:45:00 25.1 C 43 % 11.65 C
215 31-07-2019 17:50:00 25.2 C 43 % 11.74 C
216 31-07-2019 17:55:00 25.2 C 43 % 11.74 C
217 31-07-2019 18:00:00 24.8 C 44 % 11.72 C
218 31-07-2019 18:05:00 24.4 C 45 % 11.7 C
219 31-07-2019 18:10:00 24.2 C 46 % 11.85 C
220 31-07-2019 18:15:00 23.9 C 46 % 11.58 C
221 31-07-2019 18:20:00 23.8 C 48 % 12.14 C
222 31-07-2019 18:25:00 23.7 C 47 % 11.73 C
223 31-07-2019 18:30:00 23.7 C 47 % 11.73 C
224 31-07-2019 18:35:00 23.6 C 48 % 11.95 C
225 31-07-2019 18:40:00 23.6 C 50 % 12.57 C
Sensor: Nr:Datum:Temp:Feuchte:Taupunkt:
Aussen-T/F 226 31-07-2019 18:45:00 23.6 C 48 % 11.95 C
227 31-07-2019 18:50:00 23.6 C 48 % 11.95 C
228 31-07-2019 18:55:00 23.6 C 48 % 11.95 C
229 31-07-2019 19:00:00 23.6 C 48 % 11.95 C
230 31-07-2019 19:05:00 23.7 C 47 % 11.73 C
231 31-07-2019 19:10:00 23.9 C 48 % 12.23 C
232 31-07-2019 19:15:00 24 C 48 % 12.32 C
233 31-07-2019 19:20:00 23.9 C 50 % 12.85 C
234 31-07-2019 19:25:00 23.7 C 50 % 12.67 C
235 31-07-2019 19:30:00 23.4 C 50 % 12.39 C
236 31-07-2019 19:35:00 23.3 C 46 % 11.04 C
237 31-07-2019 19:40:00 23.2 C 45 % 10.62 C
238 31-07-2019 19:45:00 23.2 C 46 % 10.95 C
239 31-07-2019 19:50:00 23.1 C 51 % 12.42 C
240 31-07-2019 19:55:00 22.9 C 53 % 12.82 C
241 31-07-2019 20:00:00 22.8 C 53 % 12.73 C
242 31-07-2019 20:05:00 22.7 C 53 % 12.63 C
243 31-07-2019 20:10:00 22.4 C 53 % 12.36 C
244 31-07-2019 20:15:00 22.3 C 54 % 12.55 C
245 31-07-2019 20:20:00 22.2 C 54 % 12.45 C
246 31-07-2019 20:25:00 22.2 C 56 % 13.01 C
247 31-07-2019 20:30:00 22.2 C 57 % 13.28 C
248 31-07-2019 20:35:00 22.1 C 57 % 13.19 C
249 31-07-2019 20:40:00 21.9 C 57 % 13 C
250 31-07-2019 20:45:00 21.7 C 58 % 13.08 C
Sensor: Nr:Datum:Temp:Feuchte:Taupunkt:
Aussen-T/F 251 31-07-2019 20:50:00 21.4 C 58 % 12.8 C
252 31-07-2019 20:55:00 21.2 C 59 % 12.87 C
253 31-07-2019 21:00:00 21 C 60 % 12.94 C
254 31-07-2019 21:05:00 20.8 C 60 % 12.76 C
255 31-07-2019 21:10:00 20.7 C 61 % 12.91 C
256 31-07-2019 21:15:00 20.4 C 60 % 12.38 C
257 31-07-2019 21:20:00 20.2 C 60 % 12.19 C
258 31-07-2019 21:25:00 20 C 60 % 12 C
259 31-07-2019 21:30:00 19.8 C 59 % 11.56 C
260 31-07-2019 21:35:00 19.6 C 59 % 11.37 C
261 31-07-2019 21:40:00 19.4 C 59 % 11.19 C
262 31-07-2019 21:45:00 19.2 C 59 % 11 C
263 31-07-2019 21:50:00 19.1 C 59 % 10.91 C
264 31-07-2019 21:55:00 18.9 C 60 % 10.97 C
265 31-07-2019 22:00:00 18.8 C 60 % 10.88 C
266 31-07-2019 22:05:00 18.7 C 61 % 11.03 C
267 31-07-2019 22:10:00 18.7 C 60 % 10.78 C
268 31-07-2019 22:15:00 18.6 C 61 % 10.94 C
269 31-07-2019 22:20:00 18.6 C 61 % 10.94 C
270 31-07-2019 22:25:00 18.6 C 61 % 10.94 C
271 31-07-2019 22:30:00 18.6 C 61 % 10.94 C
272 31-07-2019 22:35:00 18.6 C 61 % 10.94 C
273 31-07-2019 22:40:00 18.7 C 62 % 11.28 C
274 31-07-2019 22:45:00 18.7 C 62 % 11.28 C
275 31-07-2019 22:50:00 18.8 C 61 % 11.13 C
Sensor: Nr:Datum:Temp:Feuchte:Taupunkt:
Aussen-T/F 276 31-07-2019 22:55:00 18.8 C 61 % 11.13 C
277 31-07-2019 23:00:00 18.9 C 61 % 11.22 C
278 31-07-2019 23:05:00 18.9 C 61 % 11.22 C
279 31-07-2019 23:10:00 18.9 C 61 % 11.22 C
280 31-07-2019 23:15:00 18.8 C 62 % 11.37 C
281 31-07-2019 23:20:00 18.8 C 62 % 11.37 C
282 31-07-2019 23:25:00 18.7 C 62 % 11.28 C
283 31-07-2019 23:30:00 18.5 C 63 % 11.33 C
284 31-07-2019 23:35:00 18.4 C 63 % 11.23 C
285 31-07-2019 23:40:00 18.2 C 64 % 11.28 C
286 31-07-2019 23:45:00 17.9 C 65 % 11.23 C
287 31-07-2019 23:50:00 17.8 C 66 % 11.37 C
288 31-07-2019 23:55:00 17.6 C 67 % 11.4 C
289 01-08-2019 00:00:00 17.4 C 68 % 11.44 C
290 01-08-2019 00:05:00 17.3 C 69 % 11.56 C
291 01-08-2019 00:10:00 17.2 C 69 % 11.47 C
292 01-08-2019 00:15:00 17.1 C 70 % 11.59 C
293 01-08-2019 00:20:00 17 C 70 % 11.49 C
294 01-08-2019 00:25:00 16.9 C 71 % 11.61 C
295 01-08-2019 00:30:00 16.9 C 71 % 11.61 C
296 01-08-2019 00:35:00 16.8 C 70 % 11.3 C
297 01-08-2019 00:40:00 16.7 C 71 % 11.42 C
298 01-08-2019 00:45:00 16.6 C 71 % 11.32 C
299 01-08-2019 00:50:00 16.4 C 71 % 11.13 C
300 01-08-2019 00:55:00 16.3 C 72 % 11.25 C
Sensor: Nr:Datum:Temp:Feuchte:Taupunkt:
Aussen-T/F 301 01-08-2019 01:00:00 16.1 C 73 % 11.26 C
302 01-08-2019 01:05:00 15.9 C 73 % 11.07 C
303 01-08-2019 01:10:00 15.8 C 74 % 11.18 C
304 01-08-2019 01:15:00 15.7 C 75 % 11.28 C
305 01-08-2019 01:20:00 15.6 C 75 % 11.19 C
306 01-08-2019 01:25:00 15.6 C 75 % 11.19 C
307 01-08-2019 01:30:00 15.4 C 75 % 11 C
308 01-08-2019 01:35:00 15.4 C 75 % 11 C
309 01-08-2019 01:40:00 15.3 C 76 % 11.1 C
310 01-08-2019 01:45:00 15.2 C 76 % 11 C
311 01-08-2019 01:50:00 15.2 C 76 % 11 C
312 01-08-2019 01:55:00 15.1 C 77 % 11.1 C
313 01-08-2019 02:00:00 15.1 C 77 % 11.1 C
314 01-08-2019 02:05:00 14.9 C 77 % 10.91 C
315 01-08-2019 02:10:00 14.9 C 78 % 11.1 C
316 01-08-2019 02:15:00 14.8 C 78 % 11 C
317 01-08-2019 02:20:00 14.8 C 79 % 11.2 C
318 01-08-2019 02:25:00 14.7 C 79 % 11.1 C
319 01-08-2019 02:30:00 14.6 C 79 % 11 C
320 01-08-2019 02:35:00 14.6 C 80 % 11.19 C
321 01-08-2019 02:40:00 14.6 C 80 % 11.19 C
322 01-08-2019 02:45:00 14.6 C 80 % 11.19 C
323 01-08-2019 02:50:00 14.6 C 80 % 11.19 C
324 01-08-2019 02:55:00 14.6 C 80 % 11.19 C
325 01-08-2019 03:00:00 14.6 C 81 % 11.38 C
Sensor: Nr:Datum:Temp:Feuchte:Taupunkt:
Aussen-T/F 326 01-08-2019 03:05:00 14.6 C 81 % 11.38 C
327 01-08-2019 03:10:00 14.7 C 80 % 11.29 C
328 01-08-2019 03:15:00 14.6 C 80 % 11.19 C
329 01-08-2019 03:20:00 14.5 C 80 % 11.09 C
330 01-08-2019 03:25:00 14.3 C 80 % 10.9 C
331 01-08-2019 03:30:00 14.2 C 81 % 10.99 C
332 01-08-2019 03:35:00 14 C 81 % 10.79 C
333 01-08-2019 03:40:00 13.8 C 81 % 10.6 C
334 01-08-2019 03:45:00 13.7 C 82 % 10.69 C
335 01-08-2019 03:50:00 13.5 C 82 % 10.49 C
336 01-08-2019 03:55:00 13.4 C 83 % 10.57 C
337 01-08-2019 04:00:00 13.3 C 83 % 10.48 C
338 01-08-2019 04:05:00 13.2 C 83 % 10.38 C
339 01-08-2019 04:10:00 13.1 C 84 % 10.46 C
340 01-08-2019 04:15:00 13 C 84 % 10.36 C
341 01-08-2019 04:20:00 13 C 85 % 10.54 C
342 01-08-2019 04:25:00 12.9 C 85 % 10.44 C
343 01-08-2019 04:30:00 12.9 C 85 % 10.44 C
344 01-08-2019 04:35:00 12.8 C 86 % 10.52 C
345 01-08-2019 04:40:00 12.8 C 86 % 10.52 C
346 01-08-2019 04:45:00 12.9 C 86 % 10.62 C
347 01-08-2019 04:50:00 12.8 C 86 % 10.52 C
348 01-08-2019 04:55:00 12.8 C 86 % 10.52 C
349 01-08-2019 05:00:00 12.8 C 86 % 10.52 C
350 01-08-2019 05:05:00 12.8 C 86 % 10.52 C
Sensor: Nr:Datum:Temp:Feuchte:Taupunkt:
Aussen-T/F 351 01-08-2019 05:10:00 12.7 C 86 % 10.42 C
352 01-08-2019 05:15:00 12.7 C 87 % 10.59 C
353 01-08-2019 05:20:00 12.6 C 87 % 10.5 C
354 01-08-2019 05:25:00 12.6 C 87 % 10.5 C
355 01-08-2019 05:30:00 12.7 C 88 % 10.77 C
356 01-08-2019 05:35:00 12.7 C 87 % 10.59 C
357 01-08-2019 05:40:00 12.6 C 87 % 10.5 C
358 01-08-2019 05:45:00 12.5 C 87 % 10.4 C
359 01-08-2019 05:50:00 12.4 C 87 % 10.3 C
360 01-08-2019 05:55:00 12.4 C 87 % 10.3 C
361 01-08-2019 06:00:00 12.3 C 88 % 10.37 C
362 01-08-2019 06:05:00 12.3 C 88 % 10.37 C
363 01-08-2019 06:10:00 12.2 C 88 % 10.27 C
364 01-08-2019 06:15:00 12.2 C 88 % 10.27 C
365 01-08-2019 06:20:00 12.1 C 88 % 10.17 C
366 01-08-2019 06:25:00 12.1 C 89 % 10.34 C
367 01-08-2019 06:30:00 12.1 C 88 % 10.17 C
368 01-08-2019 06:35:00 12 C 89 % 10.25 C
369 01-08-2019 06:40:00 12 C 89 % 10.25 C
370 01-08-2019 06:45:00 12 C 89 % 10.25 C
371 01-08-2019 06:50:00 12.1 C 89 % 10.34 C
372 01-08-2019 06:55:00 12.1 C 89 % 10.34 C
373 01-08-2019 07:00:00 12.1 C 89 % 10.34 C
374 01-08-2019 07:05:00 12.1 C 89 % 10.34 C
375 01-08-2019 07:10:00 12.1 C 89 % 10.34 C
Sensor: Nr:Datum:Temp:Feuchte:Taupunkt:
Aussen-T/F 376 01-08-2019 07:15:00 12.2 C 89 % 10.44 C
377 01-08-2019 07:20:00 12.2 C 89 % 10.44 C
378 01-08-2019 07:25:00 12.2 C 90 % 10.61 C
379 01-08-2019 07:30:00 12.3 C 90 % 10.71 C
380 01-08-2019 07:35:00 12.5 C 90 % 10.91 C
381 01-08-2019 07:40:00 12.8 C 90 % 11.2 C
382 01-08-2019 07:45:00 13.1 C 89 % 11.33 C
383 01-08-2019 07:50:00 13.4 C 88 % 11.45 C
384 01-08-2019 07:55:00 13.7 C 88 % 11.75 C
385 01-08-2019 08:00:00 13.9 C 87 % 11.77 C
386 01-08-2019 08:05:00 14.2 C 86 % 11.89 C
387 01-08-2019 08:10:00 14.4 C 85 % 11.91 C
388 01-08-2019 08:15:00 14.7 C 83 % 11.85 C
389 01-08-2019 08:20:00 15 C 83 % 12.14 C
390 01-08-2019 08:25:00 15.2 C 81 % 11.96 C
391 01-08-2019 08:30:00 15.3 C 80 % 11.87 C
392 01-08-2019 08:35:00 15.5 C 80 % 12.07 C
393 01-08-2019 08:40:00 15.7 C 79 % 12.07 C
394 01-08-2019 08:45:00 15.8 C 79 % 12.17 C
395 01-08-2019 08:50:00 16.1 C 78 % 12.27 C
396 01-08-2019 08:55:00 16.3 C 77 % 12.26 C
397 01-08-2019 09:00:00 16.6 C 77 % 12.55 C
398 01-08-2019 09:05:00 16.9 C 76 % 12.65 C
399 01-08-2019 09:10:00 17.2 C 75 % 12.73 C
400 01-08-2019 09:15:00 17.3 C 75 % 12.83 C
Sensor: Nr:Datum:Temp:Feuchte:Taupunkt:
Aussen-T/F 401 01-08-2019 09:20:00 17.4 C 74 % 12.72 C
402 01-08-2019 09:25:00 17.5 C 74 % 12.82 C
403 01-08-2019 09:30:00 17.6 C 73 % 12.71 C
404 01-08-2019 09:35:00 17.6 C 73 % 12.71 C
405 01-08-2019 09:40:00 17.7 C 73 % 12.8 C
406 01-08-2019 09:45:00 18 C 72 % 12.88 C
407 01-08-2019 09:50:00 18.3 C 71 % 12.95 C
408 01-08-2019 09:55:00 18.7 C 70 % 13.12 C
409 01-08-2019 10:00:00 19.2 C 68 % 13.15 C
410 01-08-2019 10:05:00 19.4 C 67 % 13.12 C
411 01-08-2019 10:10:00 19.7 C 65 % 12.94 C
412 01-08-2019 10:15:00 20 C 63 % 12.75 C
413 01-08-2019 10:20:00 20.2 C 63 % 12.94 C
414 01-08-2019 10:25:00 20.3 C 62 % 12.79 C
415 01-08-2019 10:30:00 20.5 C 60 % 12.47 C
416 01-08-2019 10:35:00 20.6 C 61 % 12.82 C
417 01-08-2019 10:40:00 20.7 C 61 % 12.91 C
418 01-08-2019 10:45:00 20.8 C 62 % 13.26 C
419 01-08-2019 10:50:00 21.1 C 59 % 12.78 C
420 01-08-2019 10:55:00 21.1 C 58 % 12.52 C
421 01-08-2019 11:00:00 21.2 C 57 % 12.35 C
422 01-08-2019 11:05:00 21.2 C 57 % 12.35 C
423 01-08-2019 11:10:00 21.3 C 57 % 12.44 C
424 01-08-2019 11:15:00 21.4 C 58 % 12.8 C
425 01-08-2019 11:20:00 21.6 C 57 % 12.72 C
Sensor: Nr:Datum:Temp:Feuchte:Taupunkt:
Aussen-T/F 426 01-08-2019 11:25:00 21.7 C 56 % 12.54 C
427 01-08-2019 11:30:00 21.9 C 55 % 12.46 C
428 01-08-2019 11:35:00 22.1 C 54 % 12.36 C
429 01-08-2019 11:40:00 22 C 55 % 12.55 C
430 01-08-2019 11:45:00 22.2 C 55 % 12.73 C
431 01-08-2019 11:50:00 22.3 C 54 % 12.55 C
432 01-08-2019 11:55:00 22.4 C 54 % 12.64 C
433 01-08-2019 12:00:00 22.4 C 54 % 12.64 C
434 01-08-2019 12:05:00 22.6 C 53 % 12.54 C
435 01-08-2019 12:10:00 22.6 C 53 % 12.54 C
436 01-08-2019 12:15:00 22.6 C 53 % 12.54 C
437 01-08-2019 12:20:00 22.7 C 53 % 12.63 C
438 01-08-2019 12:25:00 22.8 C 52 % 12.43 C
439 01-08-2019 12:30:00 22.7 C 53 % 12.63 C
440 01-08-2019 12:35:00 22.4 C 53 % 12.36 C
441 01-08-2019 12:40:00 22.2 C 54 % 12.45 C
442 01-08-2019 12:45:00 22.1 C 55 % 12.64 C
443 01-08-2019 12:50:00 22.1 C 55 % 12.64 C
444 01-08-2019 12:55:00 22.2 C 54 % 12.45 C
445 01-08-2019 13:00:00 22.3 C 55 % 12.83 C
446 01-08-2019 13:05:00 22.6 C 55 % 13.11 C
447 01-08-2019 13:10:00 22.8 C 53 % 12.73 C
448 01-08-2019 13:15:00 23.1 C 52 % 12.71 C
449 01-08-2019 13:20:00 23.1 C 52 % 12.71 C
450 01-08-2019 13:25:00 23.1 C 52 % 12.71 C
Sensor: Nr:Datum:Temp:Feuchte:Taupunkt:
Aussen-T/F 451 01-08-2019 13:30:00 23.2 C 54 % 13.38 C
452 01-08-2019 13:35:00 23.2 C 54 % 13.38 C
453 01-08-2019 13:40:00 23.3 C 54 % 13.47 C
454 01-08-2019 13:45:00 23.6 C 53 % 13.46 C
455 01-08-2019 13:50:00 23.8 C 51 % 13.06 C
456 01-08-2019 13:55:00 23.9 C 51 % 13.15 C
457 01-08-2019 14:00:00 23.9 C 50 % 12.85 C
458 01-08-2019 14:05:00 24.1 C 50 % 13.03 C
459 01-08-2019 14:10:00 24.1 C 49 % 12.72 C
460 01-08-2019 14:15:00 24.1 C 49 % 12.72 C
461 01-08-2019 14:20:00 24.1 C 51 % 13.34 C
462 01-08-2019 14:25:00 24.2 C 49 % 12.81 C
463 01-08-2019 14:30:00 24.2 C 49 % 12.81 C
464 01-08-2019 14:35:00 24.2 C 49 % 12.81 C
465 01-08-2019 14:40:00 24.2 C 50 % 13.12 C
466 01-08-2019 14:45:00 24.2 C 49 % 12.81 C
467 01-08-2019 14:50:00 24.2 C 49 % 12.81 C
468 01-08-2019 14:55:00 24.3 C 49 % 12.91 C
469 01-08-2019 15:00:00 24.4 C 50 % 13.31 C
470 01-08-2019 15:05:00 24.5 C 48 % 12.77 C
471 01-08-2019 15:10:00 24.6 C 49 % 13.18 C
472 01-08-2019 15:15:00 24.7 C 48 % 12.96 C
473 01-08-2019 15:20:00 24.8 C 48 % 13.05 C
474 01-08-2019 15:25:00 24.8 C 49 % 13.36 C
475 01-08-2019 15:30:00 24.7 C 48 % 12.96 C
Sensor: Nr:Datum:Temp:Feuchte:Taupunkt:
Aussen-T/F 476 01-08-2019 15:35:00 24.7 C 49 % 13.27 C
477 01-08-2019 15:40:00 24.6 C 49 % 13.18 C
478 01-08-2019 15:45:00 24.5 C 49 % 13.09 C
479 01-08-2019 15:50:00 24.3 C 50 % 13.22 C
480 01-08-2019 15:55:00 24.3 C 50 % 13.22 C
481 01-08-2019 16:00:00 24.2 C 51 % 13.43 C
482 01-08-2019 16:05:00 24.2 C 51 % 13.43 C
483 01-08-2019 16:10:00 24.2 C 51 % 13.43 C
484 01-08-2019 16:15:00 24.2 C 51 % 13.43 C
485 01-08-2019 16:20:00 24.2 C 51 % 13.43 C
486 01-08-2019 16:25:00 24.2 C 51 % 13.43 C
487 01-08-2019 16:30:00 24.3 C 51 % 13.52 C
488 01-08-2019 16:35:00 24.4 C 51 % 13.61 C
489 01-08-2019 16:40:00 24.6 C 49 % 13.18 C
490 01-08-2019 16:45:00 24.7 C 48 % 12.96 C
491 01-08-2019 16:50:00 24.8 C 48 % 13.05 C
492 01-08-2019 16:55:00 24.8 C 47 % 12.73 C
493 01-08-2019 17:00:00 24.8 C 47 % 12.73 C
494 01-08-2019 17:05:00 25 C 48 % 13.23 C
495 01-08-2019 17:10:00 25 C 48 % 13.23 C
496 01-08-2019 17:15:00 24.8 C 47 % 12.73 C
497 01-08-2019 17:20:00 24.8 C 48 % 13.05 C
498 01-08-2019 17:25:00 24.8 C 49 % 13.36 C
499 01-08-2019 17:30:00 24.7 C 49 % 13.27 C
500 01-08-2019 17:35:00 25 C 49 % 13.55 C
Sensor: Nr:Datum:Temp:Feuchte:Taupunkt:
Aussen-T/F 501 01-08-2019 17:40:00 25.4 C 47 % 13.27 C
502 01-08-2019 17:45:00 25.5 C 47 % 13.36 C
503 01-08-2019 17:50:00 25.7 C 47 % 13.55 C
504 01-08-2019 17:55:00 26.1 C 46 % 13.58 C
505 01-08-2019 18:00:00 26.6 C 46 % 14.03 C
506 01-08-2019 18:05:00 26.9 C 44 % 13.62 C
507 01-08-2019 18:10:00 26.7 C 44 % 13.44 C
508 01-08-2019 18:15:00 26.4 C 46 % 13.85 C
509 01-08-2019 18:20:00 26.2 C 45 % 13.33 C
510 01-08-2019 18:25:00 25.8 C 45 % 12.97 C
511 01-08-2019 18:30:00 25.7 C 46 % 13.22 C
512 01-08-2019 18:35:00 25.6 C 46 % 13.12 C
513 01-08-2019 18:40:00 26.1 C 46 % 13.58 C
514 01-08-2019 18:45:00 26.6 C 44 % 13.35 C
515 01-08-2019 18:50:00 26.8 C 43 % 13.18 C
516 01-08-2019 18:55:00 26.8 C 42 % 12.82 C
517 01-08-2019 19:00:00 26.8 C 43 % 13.18 C
518 01-08-2019 19:05:00 26.8 C 43 % 13.18 C
519 01-08-2019 19:10:00 26.8 C 44 % 13.53 C
520 01-08-2019 19:15:00 26.7 C 44 % 13.44 C
521 01-08-2019 19:20:00 26.6 C 45 % 13.69 C
522 01-08-2019 19:25:00 26.4 C 45 % 13.51 C
523 01-08-2019 19:30:00 26.3 C 45 % 13.42 C
524 01-08-2019 19:35:00 26.1 C 46 % 13.58 C
525 01-08-2019 19:40:00 25.9 C 46 % 13.4 C
Sensor: Nr:Datum:Temp:Feuchte:Taupunkt:
Aussen-T/F 526 01-08-2019 19:45:00 25.7 C 47 % 13.55 C
527 01-08-2019 19:50:00 25.6 C 47 % 13.45 C
528 01-08-2019 19:55:00 25.5 C 47 % 13.36 C
529 01-08-2019 20:00:00 25.4 C 48 % 13.6 C
530 01-08-2019 20:05:00 25.2 C 51 % 14.35 C
531 01-08-2019 20:10:00 24.9 C 52 % 14.37 C
532 01-08-2019 20:15:00 24.6 C 52 % 14.09 C
533 01-08-2019 20:20:00 24.4 C 53 % 14.2 C
534 01-08-2019 20:25:00 24.2 C 54 % 14.31 C
535 01-08-2019 20:30:00 24 C 53 % 13.83 C
536 01-08-2019 20:35:00 23.9 C 55 % 14.31 C
537 01-08-2019 20:40:00 23.7 C 56 % 14.4 C
538 01-08-2019 20:45:00 23.4 C 57 % 14.4 C
539 01-08-2019 20:50:00 23 C 57 % 14.03 C
540 01-08-2019 20:55:00 22.6 C 58 % 13.92 C
541 01-08-2019 21:00:00 22.3 C 59 % 13.9 C
542 01-08-2019 21:05:00 22.1 C 60 % 13.98 C
543 01-08-2019 21:10:00 21.8 C 60 % 13.69 C
544 01-08-2019 21:15:00 21.6 C 61 % 13.76 C
545 01-08-2019 21:20:00 21.3 C 62 % 13.73 C
546 01-08-2019 21:25:00 21.1 C 62 % 13.54 C
547 01-08-2019 21:30:00 20.9 C 63 % 13.6 C
548 01-08-2019 21:35:00 20.8 C 64 % 13.74 C
549 01-08-2019 21:40:00 20.7 C 64 % 13.65 C
550 01-08-2019 21:45:00 20.5 C 65 % 13.7 C
Sensor: Nr:Datum:Temp:Feuchte:Taupunkt:
Aussen-T/F 551 01-08-2019 21:50:00 20.4 C 66 % 13.84 C
552 01-08-2019 21:55:00 20.3 C 66 % 13.74 C
553 01-08-2019 22:00:00 20.3 C 66 % 13.74 C
554 01-08-2019 22:05:00 20.2 C 67 % 13.88 C
555 01-08-2019 22:10:00 20.1 C 67 % 13.78 C
556 01-08-2019 22:15:00 19.9 C 67 % 13.59 C
557 01-08-2019 22:20:00 19.8 C 68 % 13.73 C
558 01-08-2019 22:25:00 19.7 C 68 % 13.63 C
559 01-08-2019 22:30:00 19.6 C 67 % 13.31 C
560 01-08-2019 22:35:00 19.6 C 68 % 13.54 C
561 01-08-2019 22:40:00 19.5 C 68 % 13.44 C
562 01-08-2019 22:45:00 19.5 C 68 % 13.44 C
563 01-08-2019 22:50:00 19.5 C 69 % 13.66 C
564 01-08-2019 22:55:00 19.5 C 69 % 13.66 C
565 01-08-2019 23:00:00 19.5 C 68 % 13.44 C
566 01-08-2019 23:05:00 19.4 C 68 % 13.34 C
567 01-08-2019 23:10:00 19.4 C 68 % 13.34 C
568 01-08-2019 23:15:00 19.3 C 68 % 13.25 C
569 01-08-2019 23:20:00 19.3 C 69 % 13.47 C
570 01-08-2019 23:25:00 19.2 C 70 % 13.6 C
571 01-08-2019 23:30:00 19.2 C 70 % 13.6 C
572 01-08-2019 23:35:00 19.2 C 70 % 13.6 C
573 01-08-2019 23:40:00 19.1 C 71 % 13.72 C
574 01-08-2019 23:45:00 19.1 C 71 % 13.72 C
575 01-08-2019 23:50:00 19.1 C 71 % 13.72 C
Sensor: Nr:Datum:Temp:Feuchte:Taupunkt:
Aussen-T/F 576 01-08-2019 23:55:00 19.1 C 71 % 13.72 C
577 02-08-2019 00:00:00 19.1 C 72 % 13.94 C
578 02-08-2019 00:05:00 19.1 C 72 % 13.94 C
579 02-08-2019 00:10:00 19 C 72 % 13.84 C
580 02-08-2019 00:15:00 18.9 C 72 % 13.74 C
581 02-08-2019 00:20:00 18.9 C 73 % 13.96 C
582 02-08-2019 00:25:00 18.8 C 73 % 13.86 C
583 02-08-2019 00:30:00 18.8 C 73 % 13.86 C
584 02-08-2019 00:35:00 18.7 C 74 % 13.97 C
585 02-08-2019 00:40:00 18.7 C 74 % 13.97 C
586 02-08-2019 00:45:00 18.6 C 74 % 13.88 C
587 02-08-2019 00:50:00 18.6 C 75 % 14.08 C
588 02-08-2019 00:55:00 18.6 C 75 % 14.08 C
589 02-08-2019 01:00:00 18.5 C 75 % 13.99 C
590 02-08-2019 01:05:00 18.5 C 75 % 13.99 C
591 02-08-2019 01:10:00 18.5 C 75 % 13.99 C
592 02-08-2019 01:15:00 18.4 C 75 % 13.89 C
593 02-08-2019 01:20:00 18.4 C 75 % 13.89 C
594 02-08-2019 01:25:00 18.4 C 76 % 14.1 C
595 02-08-2019 01:30:00 18.3 C 76 % 14 C
596 02-08-2019 01:35:00 18.3 C 75 % 13.79 C
597 02-08-2019 01:40:00 18.3 C 77 % 14.2 C
598 02-08-2019 01:45:00 18.2 C 77 % 14.1 C
599 02-08-2019 01:50:00 18.2 C 76 % 13.9 C
600 02-08-2019 01:55:00 18.1 C 76 % 13.81 C
Sensor: Nr:Datum:Temp:Feuchte:Taupunkt:
Aussen-T/F 601 02-08-2019 02:00:00 18.1 C 76 % 13.81 C
602 02-08-2019 02:05:00 18.1 C 76 % 13.81 C
603 02-08-2019 02:10:00 18 C 77 % 13.91 C
604 02-08-2019 02:15:00 18 C 76 % 13.71 C
605 02-08-2019 02:20:00 17.9 C 77 % 13.81 C
606 02-08-2019 02:25:00 17.9 C 77 % 13.81 C
607 02-08-2019 02:30:00 17.9 C 77 % 13.81 C
608 02-08-2019 02:35:00 17.8 C 77 % 13.72 C
609 02-08-2019 02:40:00 17.8 C 77 % 13.72 C
610 02-08-2019 02:45:00 17.7 C 77 % 13.62 C
611 02-08-2019 02:50:00 17.6 C 77 % 13.52 C
612 02-08-2019 02:55:00 17.6 C 78 % 13.72 C
613 02-08-2019 03:00:00 17.4 C 78 % 13.53 C
614 02-08-2019 03:05:00 17.3 C 78 % 13.43 C
615 02-08-2019 03:10:00 17.2 C 79 % 13.53 C
616 02-08-2019 03:15:00 17.1 C 79 % 13.43 C
617 02-08-2019 03:20:00 17.1 C 80 % 13.62 C
618 02-08-2019 03:25:00 16.9 C 80 % 13.43 C
619 02-08-2019 03:30:00 16.8 C 80 % 13.33 C
620 02-08-2019 03:35:00 16.8 C 80 % 13.33 C
621 02-08-2019 03:40:00 16.7 C 80 % 13.23 C
622 02-08-2019 03:45:00 16.7 C 80 % 13.23 C
623 02-08-2019 03:50:00 16.7 C 81 % 13.43 C
624 02-08-2019 03:55:00 16.6 C 81 % 13.33 C
625 02-08-2019 04:00:00 16.6 C 81 % 13.33 C
Sensor: Nr:Datum:Temp:Feuchte:Taupunkt:
Aussen-T/F 626 02-08-2019 04:05:00 16.5 C 82 % 13.42 C
627 02-08-2019 04:10:00 16.4 C 82 % 13.32 C
628 02-08-2019 04:15:00 16.4 C 82 % 13.32 C
629 02-08-2019 04:20:00 16.3 C 82 % 13.22 C
630 02-08-2019 04:25:00 16.3 C 82 % 13.22 C
631 02-08-2019 04:30:00 16.3 C 83 % 13.41 C
632 02-08-2019 04:35:00 16.2 C 83 % 13.31 C
633 02-08-2019 04:40:00 16.2 C 84 % 13.5 C
634 02-08-2019 04:45:00 16.2 C 83 % 13.31 C
635 02-08-2019 04:50:00 16.2 C 83 % 13.31 C
636 02-08-2019 04:55:00 16.2 C 83 % 13.31 C
637 02-08-2019 05:00:00 16.2 C 84 % 13.5 C
638 02-08-2019 05:05:00 16.2 C 83 % 13.31 C
639 02-08-2019 05:10:00 16.2 C 83 % 13.31 C
640 02-08-2019 05:15:00 16.2 C 83 % 13.31 C
641 02-08-2019 05:20:00 16.2 C 83 % 13.31 C
642 02-08-2019 05:25:00 16.2 C 84 % 13.5 C
643 02-08-2019 05:30:00 16.2 C 84 % 13.5 C
644 02-08-2019 05:35:00 16.2 C 84 % 13.5 C
645 02-08-2019 05:40:00 16.2 C 84 % 13.5 C
646 02-08-2019 05:45:00 16.2 C 84 % 13.5 C
647 02-08-2019 05:50:00 16.2 C 84 % 13.5 C
648 02-08-2019 05:55:00 16.2 C 84 % 13.5 C
649 02-08-2019 06:00:00 16.2 C 85 % 13.68 C
650 02-08-2019 06:05:00 16.2 C 85 % 13.68 C
Sensor: Nr:Datum:Temp:Feuchte:Taupunkt:
Aussen-T/F 651 02-08-2019 06:10:00 16.2 C 85 % 13.68 C
652 02-08-2019 06:15:00 16.2 C 85 % 13.68 C
653 02-08-2019 06:20:00 16.2 C 85 % 13.68 C
654 02-08-2019 06:25:00 16.2 C 85 % 13.68 C
655 02-08-2019 06:30:00 16.2 C 85 % 13.68 C
656 02-08-2019 06:35:00 16.3 C 85 % 13.77 C
657 02-08-2019 06:40:00 16.3 C 85 % 13.77 C
658 02-08-2019 06:45:00 16.3 C 85 % 13.77 C
659 02-08-2019 06:50:00 16.3 C 85 % 13.77 C
660 02-08-2019 06:55:00 16.4 C 85 % 13.87 C
661 02-08-2019 07:00:00 16.4 C 85 % 13.87 C
662 02-08-2019 07:05:00 16.5 C 85 % 13.97 C
663 02-08-2019 07:10:00 16.6 C 85 % 14.07 C
664 02-08-2019 07:15:00 16.7 C 85 % 14.17 C
665 02-08-2019 07:20:00 16.8 C 85 % 14.26 C
666 02-08-2019 07:25:00 16.9 C 85 % 14.36 C
667 02-08-2019 07:30:00 17 C 84 % 14.28 C
668 02-08-2019 07:35:00 17.1 C 84 % 14.38 C
669 02-08-2019 07:40:00 17.2 C 84 % 14.47 C
670 02-08-2019 07:45:00 17.2 C 84 % 14.47 C
671 02-08-2019 07:50:00 17.3 C 84 % 14.57 C
672 02-08-2019 07:55:00 17.4 C 84 % 14.67 C
673 02-08-2019 08:00:00 17.5 C 83 % 14.58 C
674 02-08-2019 08:05:00 17.6 C 83 % 14.68 C
675 02-08-2019 08:10:00 17.6 C 83 % 14.68 C
Sensor: Nr:Datum:Temp:Feuchte:Taupunkt:
Aussen-T/F 676 02-08-2019 08:15:00 17.7 C 83 % 14.78 C
677 02-08-2019 08:20:00 17.8 C 82 % 14.69 C
678 02-08-2019 08:25:00 17.9 C 83 % 14.97 C
679 02-08-2019 08:30:00 18 C 82 % 14.88 C
680 02-08-2019 08:35:00 18.1 C 82 % 14.98 C
681 02-08-2019 08:40:00 18.2 C 82 % 15.08 C
682 02-08-2019 08:45:00 18.2 C 82 % 15.08 C
683 02-08-2019 08:50:00 18.3 C 82 % 15.17 C
684 02-08-2019 08:55:00 18.3 C 81 % 14.98 C
685 02-08-2019 09:00:00 18.4 C 82 % 15.27 C
686 02-08-2019 09:05:00 18.6 C 81 % 15.28 C
687 02-08-2019 09:10:00 18.7 C 80 % 15.18 C
688 02-08-2019 09:15:00 18.8 C 79 % 15.08 C
689 02-08-2019 09:20:00 19 C 79 % 15.28 C
690 02-08-2019 09:25:00 19.2 C 78 % 15.27 C
691 02-08-2019 09:30:00 19.4 C 78 % 15.47 C
692 02-08-2019 09:35:00 19.7 C 77 % 15.56 C
693 02-08-2019 09:40:00 19.9 C 76 % 15.54 C
694 02-08-2019 09:45:00 20.1 C 76 % 15.74 C
695 02-08-2019 09:50:00 20.2 C 75 % 15.63 C
696 02-08-2019 09:55:00 20.2 C 74 % 15.42 C
697 02-08-2019 10:00:00 20.3 C 74 % 15.51 C
698 02-08-2019 10:05:00 20.3 C 74 % 15.51 C
699 02-08-2019 10:10:00 20.4 C 74 % 15.61 C
700 02-08-2019 10:15:00 20.5 C 74 % 15.71 C
Sensor: Nr:Datum:Temp:Feuchte:Taupunkt:
Aussen-T/F 701 02-08-2019 10:20:00 20.6 C 73 % 15.59 C
702 02-08-2019 10:25:00 20.7 C 73 % 15.69 C
703 02-08-2019 10:30:00 20.8 C 72 % 15.57 C
704 02-08-2019 10:35:00 20.8 C 71 % 15.35 C
705 02-08-2019 10:40:00 20.9 C 71 % 15.45 C
706 02-08-2019 10:45:00 21 C 70 % 15.32 C
707 02-08-2019 10:50:00 21.1 C 71 % 15.64 C
708 02-08-2019 10:55:00 21.2 C 69 % 15.29 C
709 02-08-2019 11:00:00 21.4 C 69 % 15.48 C
710 02-08-2019 11:05:00 21.7 C 67 % 15.31 C
711 02-08-2019 11:10:00 21.7 C 67 % 15.31 C
712 02-08-2019 11:15:00 21.8 C 66 % 15.17 C
713 02-08-2019 11:20:00 21.9 C 66 % 15.26 C
714 02-08-2019 11:25:00 22.1 C 65 % 15.21 C
715 02-08-2019 11:30:00 22.3 C 64 % 15.16 C
716 02-08-2019 11:35:00 22.5 C 63 % 15.11 C
717 02-08-2019 11:40:00 22.6 C 63 % 15.2 C
718 02-08-2019 11:45:00 22.6 C 63 % 15.2 C
719 02-08-2019 11:50:00 22.7 C 62 % 15.05 C
720 02-08-2019 11:55:00 22.7 C 63 % 15.3 C
721 02-08-2019 12:00:00 22.6 C 67 % 16.16 C
722 02-08-2019 12:05:00 22.5 C 73 % 17.42 C
723 02-08-2019 12:10:00 22.3 C 76 % 17.86 C
724 02-08-2019 12:15:00 21.9 C 75 % 17.27 C
725 02-08-2019 12:20:00 21.4 C 74 % 16.57 C
Sensor: Nr:Datum:Temp:Feuchte:Taupunkt:
Aussen-T/F 726 02-08-2019 12:25:00 21.2 C 76 % 16.8 C
727 02-08-2019 12:30:00 20.8 C 78 % 16.82 C
728 02-08-2019 12:35:00 20.7 C 79 % 16.93 C
729 02-08-2019 12:40:00 20.6 C 80 % 17.03 C
730 02-08-2019 12:45:00 20.5 C 78 % 16.53 C
731 02-08-2019 12:50:00 20.4 C 76 % 16.03 C
732 02-08-2019 12:55:00 20.4 C 74 % 15.61 C
733 02-08-2019 13:00:00 20.4 C 75 % 15.82 C
734 02-08-2019 13:05:00 20.5 C 71 % 15.06 C
735 02-08-2019 13:10:00 20.7 C 75 % 16.11 C
736 02-08-2019 13:15:00 20.7 C 72 % 15.47 C
737 02-08-2019 13:20:00 20.8 C 72 % 15.57 C
738 02-08-2019 13:25:00 20.9 C 71 % 15.45 C
739 02-08-2019 13:30:00 21.1 C 71 % 15.64 C
740 02-08-2019 13:35:00 21.4 C 69 % 15.48 C
741 02-08-2019 13:40:00 21.6 C 70 % 15.89 C
742 02-08-2019 13:45:00 21.7 C 70 % 15.99 C
743 02-08-2019 13:50:00 21.8 C 71 % 16.31 C
744 02-08-2019 13:55:00 21.9 C 68 % 15.73 C
745 02-08-2019 14:00:00 22 C 65 % 15.12 C
746 02-08-2019 14:05:00 22.1 C 64 % 14.97 C
747 02-08-2019 14:10:00 22.3 C 63 % 14.92 C
748 02-08-2019 14:15:00 22.5 C 62 % 14.86 C
749 02-08-2019 14:20:00 22.8 C 61 % 14.89 C
750 02-08-2019 14:25:00 23 C 62 % 15.33 C
Sensor: Nr:Datum:Temp:Feuchte:Taupunkt:
Aussen-T/F 751 02-08-2019 14:30:00 23.3 C 61 % 15.36 C
752 02-08-2019 14:35:00 23.5 C 62 % 15.8 C
753 02-08-2019 14:40:00 23.8 C 61 % 15.83 C
754 02-08-2019 14:45:00 24.1 C 59 % 15.59 C
755 02-08-2019 14:50:00 24.2 C 61 % 16.2 C
756 02-08-2019 14:55:00 24.4 C 60 % 16.13 C
757 02-08-2019 15:00:00 24.5 C 59 % 15.96 C
758 02-08-2019 15:05:00 24.5 C 59 % 15.96 C
759 02-08-2019 15:10:00 24.7 C 58 % 15.88 C
760 02-08-2019 15:15:00 24.8 C 57 % 15.7 C
761 02-08-2019 15:20:00 24.8 C 55 % 15.15 C
762 02-08-2019 15:25:00 24.7 C 55 % 15.05 C
763 02-08-2019 15:30:00 24.5 C 56 % 15.15 C
764 02-08-2019 15:35:00 24.4 C 57 % 15.33 C
765 02-08-2019 15:40:00 24.4 C 55 % 14.78 C
766 02-08-2019 15:45:00 24.4 C 56 % 15.06 C
767 02-08-2019 15:50:00 24.6 C 54 % 14.68 C
768 02-08-2019 15:55:00 24.7 C 55 % 15.05 C
769 02-08-2019 16:00:00 25.2 C 53 % 14.94 C
770 02-08-2019 16:05:00 25.5 C 52 % 14.92 C
771 02-08-2019 16:10:00 25.6 C 51 % 14.71 C
772 02-08-2019 16:15:00 25.6 C 52 % 15.02 C
773 02-08-2019 16:20:00 26.1 C 51 % 15.17 C
774 02-08-2019 16:25:00 26.2 C 50 % 14.96 C
775 02-08-2019 16:30:00 26.1 C 49 % 14.55 C
Sensor: Nr:Datum:Temp:Feuchte:Taupunkt:
Aussen-T/F 776 02-08-2019 16:35:00 25.7 C 50 % 14.5 C
777 02-08-2019 16:40:00 25.4 C 52 % 14.83 C
778 02-08-2019 16:45:00 25.3 C 52 % 14.74 C
779 02-08-2019 16:50:00 25.2 C 51 % 14.35 C
780 02-08-2019 16:55:00 25.2 C 50 % 14.04 C
781 02-08-2019 17:00:00 25.4 C 51 % 14.53 C
782 02-08-2019 17:05:00 26.1 C 48 % 14.23 C
783 02-08-2019 17:10:00 26.7 C 46 % 14.12 C
784 02-08-2019 17:15:00 27.1 C 46 % 14.49 C
785 02-08-2019 17:20:00 27.3 C 44 % 13.98 C
786 02-08-2019 17:25:00 27.3 C 44 % 13.98 C
787 02-08-2019 17:30:00 27.5 C 45 % 14.51 C
788 02-08-2019 17:35:00 27.4 C 43 % 13.72 C
789 02-08-2019 17:40:00 27 C 44 % 13.71 C
790 02-08-2019 17:45:00 26.6 C 46 % 14.03 C
791 02-08-2019 17:50:00 26.3 C 47 % 14.09 C
792 02-08-2019 17:55:00 26 C 48 % 14.14 C
793 02-08-2019 18:00:00 25.8 C 48 % 13.96 C
794 02-08-2019 18:05:00 26 C 48 % 14.14 C
795 02-08-2019 18:10:00 25.9 C 49 % 14.37 C
796 02-08-2019 18:15:00 25.6 C 50 % 14.41 C
797 02-08-2019 18:20:00 25.3 C 53 % 15.03 C
798 02-08-2019 18:25:00 24.9 C 55 % 15.24 C
799 02-08-2019 18:30:00 24.5 C 56 % 15.15 C
800 02-08-2019 18:35:00 24.3 C 57 % 15.24 C
Sensor: Nr:Datum:Temp:Feuchte:Taupunkt:
Aussen-T/F 801 02-08-2019 18:40:00 24.4 C 56 % 15.06 C
802 02-08-2019 18:45:00 24.4 C 57 % 15.33 C
803 02-08-2019 18:50:00 24.5 C 56 % 15.15 C
804 02-08-2019 18:55:00 24.5 C 56 % 15.15 C
805 02-08-2019 19:00:00 24.3 C 57 % 15.24 C
806 02-08-2019 19:05:00 24.2 C 58 % 15.42 C
807 02-08-2019 19:10:00 24 C 58 % 15.23 C
808 02-08-2019 19:15:00 23.9 C 53 % 13.74 C
809 02-08-2019 19:20:00 23.8 C 53 % 13.65 C
810 02-08-2019 19:25:00 23.7 C 54 % 13.84 C
811 02-08-2019 19:30:00 23.6 C 54 % 13.75 C
812 02-08-2019 19:35:00 23.6 C 53 % 13.46 C
813 02-08-2019 19:40:00 23.4 C 54 % 13.57 C
814 02-08-2019 19:45:00 23.4 C 55 % 13.85 C
815 02-08-2019 19:50:00 23.3 C 54 % 13.47 C
816 02-08-2019 19:55:00 23.2 C 55 % 13.66 C
817 02-08-2019 20:00:00 23.1 C 56 % 13.85 C
818 02-08-2019 20:05:00 22.9 C 60 % 14.73 C
819 02-08-2019 20:10:00 22.8 C 59 % 14.37 C
820 02-08-2019 20:15:00 22.7 C 61 % 14.79 C
821 02-08-2019 20:20:00 22.5 C 61 % 14.61 C
822 02-08-2019 20:25:00 22.4 C 60 % 14.26 C
823 02-08-2019 20:30:00 22.3 C 60 % 14.16 C
824 02-08-2019 20:35:00 22.3 C 60 % 14.16 C
825 02-08-2019 20:40:00 22.3 C 61 % 14.42 C
Sensor: Nr:Datum:Temp:Feuchte:Taupunkt:
Aussen-T/F 826 02-08-2019 20:45:00 22.2 C 62 % 14.58 C
827 02-08-2019 20:50:00 22.1 C 62 % 14.48 C
828 02-08-2019 20:55:00 21.9 C 63 % 14.54 C
829 02-08-2019 21:00:00 21.7 C 64 % 14.6 C
830 02-08-2019 21:05:00 21.5 C 65 % 14.65 C
831 02-08-2019 21:10:00 21.2 C 64 % 14.12 C
832 02-08-2019 21:15:00 21.1 C 65 % 14.27 C
833 02-08-2019 21:20:00 20.9 C 66 % 14.31 C
834 02-08-2019 21:25:00 20.9 C 64 % 13.84 C
835 02-08-2019 21:30:00 21.1 C 63 % 13.79 C
836 02-08-2019 21:35:00 21.3 C 63 % 13.97 C
837 02-08-2019 21:40:00 21.4 C 62 % 13.82 C
838 02-08-2019 21:45:00 21.4 C 62 % 13.82 C
839 02-08-2019 21:50:00 21.4 C 62 % 13.82 C
840 02-08-2019 21:55:00 21.4 C 63 % 14.07 C
841 02-08-2019 22:00:00 21.4 C 63 % 14.07 C
842 02-08-2019 22:05:00 21.3 C 63 % 13.97 C
843 02-08-2019 22:10:00 21.1 C 64 % 14.03 C
844 02-08-2019 22:15:00 21 C 65 % 14.17 C
845 02-08-2019 22:20:00 20.9 C 65 % 14.08 C
846 02-08-2019 22:25:00 20.9 C 66 % 14.31 C
847 02-08-2019 22:30:00 20.8 C 67 % 14.45 C
848 02-08-2019 22:35:00 20.8 C 66 % 14.22 C
849 02-08-2019 22:40:00 20.8 C 66 % 14.22 C
850 02-08-2019 22:45:00 20.8 C 66 % 14.22 C
Sensor: Nr:Datum:Temp:Feuchte:Taupunkt:
Aussen-T/F 851 02-08-2019 22:50:00 20.8 C 67 % 14.45 C
852 02-08-2019 22:55:00 20.8 C 66 % 14.22 C
853 02-08-2019 23:00:00 20.6 C 68 % 14.49 C
854 02-08-2019 23:05:00 20.3 C 72 % 15.09 C
855 02-08-2019 23:10:00 19.9 C 74 % 15.13 C
856 02-08-2019 23:15:00 19.6 C 77 % 15.46 C
857 02-08-2019 23:20:00 19.3 C 78 % 15.37 C
858 02-08-2019 23:25:00 18.9 C 80 % 15.38 C
859 02-08-2019 23:30:00 18.7 C 81 % 15.37 C
860 02-08-2019 23:35:00 18.4 C 81 % 15.08 C
861 02-08-2019 23:40:00 18.3 C 83 % 15.36 C
862 02-08-2019 23:45:00 18.1 C 83 % 15.17 C
863 02-08-2019 23:50:00 17.9 C 84 % 15.16 C
864 02-08-2019 23:55:00 17.7 C 85 % 15.15 C
865 03-08-2019 00:00:00 17.5 C 85 % 14.95 C
866 03-08-2019 00:05:00 17.4 C 86 % 15.03 C
867 03-08-2019 00:10:00 17.4 C 86 % 15.03 C
868 03-08-2019 00:15:00 17.4 C 86 % 15.03 C
869 03-08-2019 00:20:00 17.4 C 86 % 15.03 C
870 03-08-2019 00:25:00 17.7 C 85 % 15.15 C
871 03-08-2019 00:30:00 17.8 C 84 % 15.06 C
872 03-08-2019 00:35:00 17.9 C 84 % 15.16 C
873 03-08-2019 00:40:00 18.1 C 83 % 15.17 C
874 03-08-2019 00:45:00 18.1 C 83 % 15.17 C
875 03-08-2019 00:50:00 18.2 C 82 % 15.08 C
Sensor: Nr:Datum:Temp:Feuchte:Taupunkt:
Aussen-T/F 876 03-08-2019 00:55:00 18.2 C 82 % 15.08 C
877 03-08-2019 01:00:00 18.3 C 82 % 15.17 C
878 03-08-2019 01:05:00 18.3 C 82 % 15.17 C
879 03-08-2019 01:10:00 18.3 C 83 % 15.36 C
880 03-08-2019 01:15:00 18.3 C 82 % 15.17 C
881 03-08-2019 01:20:00 18.3 C 82 % 15.17 C
882 03-08-2019 01:25:00 18.3 C 82 % 15.17 C
883 03-08-2019 01:30:00 18.3 C 82 % 15.17 C
884 03-08-2019 01:35:00 18.3 C 82 % 15.17 C
885 03-08-2019 01:40:00 18.3 C 83 % 15.36 C
886 03-08-2019 01:45:00 18.3 C 83 % 15.36 C
887 03-08-2019 01:50:00 18.2 C 83 % 15.27 C
888 03-08-2019 01:55:00 18.2 C 84 % 15.45 C
889 03-08-2019 02:00:00 18.2 C 84 % 15.45 C
890 03-08-2019 02:05:00 18.2 C 84 % 15.45 C
891 03-08-2019 02:10:00 18.2 C 84 % 15.45 C
892 03-08-2019 02:15:00 18.2 C 84 % 15.45 C
893 03-08-2019 02:20:00 18.2 C 84 % 15.45 C
894 03-08-2019 02:25:00 18.2 C 84 % 15.45 C
895 03-08-2019 02:30:00 18.3 C 85 % 15.74 C
896 03-08-2019 02:35:00 18.3 C 84 % 15.55 C
897 03-08-2019 02:40:00 18.3 C 85 % 15.74 C
898 03-08-2019 02:45:00 18.3 C 85 % 15.74 C
899 03-08-2019 02:50:00 18.3 C 85 % 15.74 C
900 03-08-2019 02:55:00 18.2 C 85 % 15.64 C
Sensor: Nr:Datum:Temp:Feuchte:Taupunkt:
Aussen-T/F 901 03-08-2019 03:00:00 18.2 C 85 % 15.64 C
902 03-08-2019 03:05:00 18.2 C 85 % 15.64 C
903 03-08-2019 03:10:00 18.2 C 85 % 15.64 C
904 03-08-2019 03:15:00 18.2 C 85 % 15.64 C
905 03-08-2019 03:20:00 18.2 C 86 % 15.82 C
906 03-08-2019 03:25:00 18.2 C 86 % 15.82 C
907 03-08-2019 03:30:00 18.2 C 86 % 15.82 C
908 03-08-2019 03:35:00 18.2 C 86 % 15.82 C
909 03-08-2019 03:40:00 18.2 C 86 % 15.82 C
910 03-08-2019 03:45:00 18.2 C 86 % 15.82 C
911 03-08-2019 03:50:00 18.2 C 86 % 15.82 C
912 03-08-2019 03:55:00 18.2 C 86 % 15.82 C
913 03-08-2019 04:00:00 18.2 C 86 % 15.82 C
914 03-08-2019 04:05:00 18.1 C 87 % 15.9 C
915 03-08-2019 04:10:00 18.1 C 87 % 15.9 C
916 03-08-2019 04:15:00 18.1 C 87 % 15.9 C
917 03-08-2019 04:20:00 18.1 C 87 % 15.9 C
918 03-08-2019 04:25:00 18.1 C 87 % 15.9 C
919 03-08-2019 04:30:00 18.1 C 87 % 15.9 C
920 03-08-2019 04:35:00 18.2 C 87 % 16 C
921 03-08-2019 04:40:00 18.2 C 87 % 16 C
922 03-08-2019 04:45:00 18.2 C 87 % 16 C
923 03-08-2019 04:50:00 18.2 C 87 % 16 C
924 03-08-2019 04:55:00 18.2 C 87 % 16 C
925 03-08-2019 05:00:00 18.2 C 87 % 16 C
Sensor: Nr:Datum:Temp:Feuchte:Taupunkt:
Aussen-T/F 926 03-08-2019 05:05:00 18.2 C 87 % 16 C
927 03-08-2019 05:10:00 18.2 C 87 % 16 C
928 03-08-2019 05:15:00 18.2 C 87 % 16 C
929 03-08-2019 05:20:00 18.2 C 87 % 16 C
930 03-08-2019 05:25:00 18.1 C 87 % 15.9 C
931 03-08-2019 05:30:00 18.1 C 87 % 15.9 C
932 03-08-2019 05:35:00 18.1 C 87 % 15.9 C
933 03-08-2019 05:40:00 18.1 C 87 % 15.9 C
934 03-08-2019 05:45:00 18.1 C 87 % 15.9 C
935 03-08-2019 05:50:00 18.1 C 87 % 15.9 C
936 03-08-2019 05:55:00 18.1 C 87 % 15.9 C
937 03-08-2019 06:00:00 18 C 87 % 15.8 C
938 03-08-2019 06:05:00 18 C 87 % 15.8 C
939 03-08-2019 06:10:00 17.9 C 87 % 15.71 C
940 03-08-2019 06:15:00 17.9 C 88 % 15.88 C
941 03-08-2019 06:20:00 17.9 C 88 % 15.88 C
942 03-08-2019 06:25:00 17.9 C 88 % 15.88 C
943 03-08-2019 06:30:00 17.9 C 87 % 15.71 C
944 03-08-2019 06:35:00 17.9 C 87 % 15.71 C
945 03-08-2019 06:40:00 17.9 C 87 % 15.71 C
946 03-08-2019 06:45:00 17.8 C 87 % 15.61 C
947 03-08-2019 06:50:00 17.8 C 87 % 15.61 C
948 03-08-2019 06:55:00 17.8 C 87 % 15.61 C
949 03-08-2019 07:00:00 17.8 C 87 % 15.61 C
950 03-08-2019 07:05:00 17.8 C 86 % 15.43 C
Sensor: Nr:Datum:Temp:Feuchte:Taupunkt:
Aussen-T/F 951 03-08-2019 07:10:00 17.8 C 86 % 15.43 C
952 03-08-2019 07:15:00 17.8 C 86 % 15.43 C
953 03-08-2019 07:20:00 17.8 C 86 % 15.43 C
954 03-08-2019 07:25:00 17.8 C 86 % 15.43 C
955 03-08-2019 07:30:00 17.9 C 86 % 15.53 C
956 03-08-2019 07:35:00 17.9 C 85 % 15.34 C
957 03-08-2019 07:40:00 17.9 C 85 % 15.34 C
958 03-08-2019 07:45:00 17.9 C 85 % 15.34 C
959 03-08-2019 07:50:00 17.9 C 85 % 15.34 C
960 03-08-2019 07:55:00 17.8 C 85 % 15.25 C
961 03-08-2019 08:00:00 17.8 C 86 % 15.43 C
962 03-08-2019 08:05:00 17.8 C 86 % 15.43 C
963 03-08-2019 08:10:00 17.8 C 85 % 15.25 C
964 03-08-2019 08:15:00 17.8 C 85 % 15.25 C
965 03-08-2019 08:20:00 17.8 C 85 % 15.25 C
966 03-08-2019 08:25:00 17.8 C 85 % 15.25 C
967 03-08-2019 08:30:00 17.9 C 85 % 15.34 C
968 03-08-2019 08:35:00 18 C 84 % 15.26 C
969 03-08-2019 08:40:00 18.1 C 84 % 15.35 C
970 03-08-2019 08:45:00 18.2 C 84 % 15.45 C
971 03-08-2019 08:50:00 18.2 C 83 % 15.27 C
972 03-08-2019 08:55:00 18.2 C 82 % 15.08 C
973 03-08-2019 09:00:00 18.2 C 82 % 15.08 C
974 03-08-2019 09:05:00 18.3 C 81 % 14.98 C
975 03-08-2019 09:10:00 18.3 C 81 % 14.98 C
Sensor: Nr:Datum:Temp:Feuchte:Taupunkt:
Aussen-T/F 976 03-08-2019 09:15:00 18.4 C 79 % 14.69 C
977 03-08-2019 09:20:00 18.5 C 79 % 14.79 C
978 03-08-2019 09:25:00 18.6 C 79 % 14.89 C
979 03-08-2019 09:30:00 18.7 C 79 % 14.99 C
980 03-08-2019 09:35:00 18.8 C 79 % 15.08 C
981 03-08-2019 09:40:00 18.8 C 78 % 14.88 C
982 03-08-2019 09:45:00 18.8 C 78 % 14.88 C
983 03-08-2019 09:50:00 18.9 C 78 % 14.98 C
984 03-08-2019 09:55:00 18.9 C 78 % 14.98 C
985 03-08-2019 10:00:00 19.1 C 77 % 14.97 C
986 03-08-2019 10:05:00 19.2 C 76 % 14.87 C
987 03-08-2019 10:10:00 19.3 C 76 % 14.97 C
988 03-08-2019 10:15:00 19.4 C 76 % 15.06 C
989 03-08-2019 10:20:00 19.7 C 76 % 15.35 C
990 03-08-2019 10:25:00 19.9 C 76 % 15.54 C
991 03-08-2019 10:30:00 19.8 C 75 % 15.24 C
992 03-08-2019 10:35:00 19.8 C 75 % 15.24 C
993 03-08-2019 10:40:00 19.7 C 76 % 15.35 C
994 03-08-2019 10:45:00 19.8 C 74 % 15.03 C
995 03-08-2019 10:50:00 19.8 C 74 % 15.03 C
996 03-08-2019 10:55:00 19.9 C 75 % 15.34 C
997 03-08-2019 11:00:00 19.9 C 74 % 15.13 C
998 03-08-2019 11:05:00 20 C 74 % 15.23 C
999 03-08-2019 11:10:00 20 C 75 % 15.43 C
1000 03-08-2019 11:15:00 20.1 C 74 % 15.32 C
Sensor: Nr:Datum:Temp:Feuchte:Taupunkt:
Aussen-T/F 1001 03-08-2019 11:20:00 20.2 C 73 % 15.21 C
1002 03-08-2019 11:25:00 20.3 C 73 % 15.3 C
1003 03-08-2019 11:30:00 20.3 C 73 % 15.3 C
1004 03-08-2019 11:35:00 20.4 C 74 % 15.61 C
1005 03-08-2019 11:40:00 20.7 C 73 % 15.69 C
1006 03-08-2019 11:45:00 20.8 C 72 % 15.57 C
1007 03-08-2019 11:50:00 20.8 C 71 % 15.35 C
1008 03-08-2019 11:55:00 20.8 C 72 % 15.57 C
1009 03-08-2019 12:00:00 20.8 C 71 % 15.35 C
1010 03-08-2019 12:05:00 21 C 71 % 15.54 C
1011 03-08-2019 12:10:00 21.3 C 69 % 15.38 C
1012 03-08-2019 12:15:00 21.3 C 70 % 15.61 C
1013 03-08-2019 12:20:00 21.4 C 68 % 15.25 C
1014 03-08-2019 12:25:00 21.6 C 66 % 14.98 C
1015 03-08-2019 12:30:00 21.8 C 66 % 15.17 C
1016 03-08-2019 12:35:00 21.9 C 65 % 15.02 C
1017 03-08-2019 12:40:00 21.9 C 65 % 15.02 C
1018 03-08-2019 12:45:00 21.9 C 64 % 14.78 C
1019 03-08-2019 12:50:00 21.9 C 64 % 14.78 C
1020 03-08-2019 12:55:00 21.9 C 64 % 14.78 C
1021 03-08-2019 13:00:00 21.9 C 65 % 15.02 C
1022 03-08-2019 13:05:00 21.9 C 66 % 15.26 C
1023 03-08-2019 13:10:00 21.9 C 66 % 15.26 C
1024 03-08-2019 13:15:00 22.2 C 66 % 15.55 C
1025 03-08-2019 13:20:00 22.3 C 63 % 14.92 C
Sensor: Nr:Datum:Temp:Feuchte:Taupunkt:
Aussen-T/F 1026 03-08-2019 13:25:00 22.3 C 64 % 15.16 C
1027 03-08-2019 13:30:00 22.3 C 64 % 15.16 C
1028 03-08-2019 13:35:00 22.3 C 68 % 16.11 C
1029 03-08-2019 13:40:00 22 C 68 % 15.82 C
1030 03-08-2019 13:45:00 21.9 C 69 % 15.96 C
1031 03-08-2019 13:50:00 21.8 C 68 % 15.63 C
1032 03-08-2019 13:55:00 21.8 C 69 % 15.86 C
1033 03-08-2019 14:00:00 21.7 C 69 % 15.77 C
1034 03-08-2019 14:05:00 21.7 C 70 % 15.99 C
1035 03-08-2019 14:10:00 21.6 C 68 % 15.44 C
1036 03-08-2019 14:15:00 21.7 C 68 % 15.54 C
1037 03-08-2019 14:20:00 21.8 C 67 % 15.4 C
1038 03-08-2019 14:25:00 22 C 66 % 15.36 C
1039 03-08-2019 14:30:00 22.1 C 65 % 15.21 C
1040 03-08-2019 14:35:00 22.3 C 65 % 15.4 C
1041 03-08-2019 14:40:00 22.5 C 64 % 15.35 C
1042 03-08-2019 14:45:00 22.8 C 64 % 15.64 C
1043 03-08-2019 14:50:00 23.1 C 62 % 15.42 C
1044 03-08-2019 14:55:00 23.2 C 62 % 15.52 C
1045 03-08-2019 15:00:00 23.5 C 60 % 15.29 C
1046 03-08-2019 15:05:00 23.4 C 58 % 14.67 C
1047 03-08-2019 15:10:00 23.4 C 56 % 14.13 C
1048 03-08-2019 15:15:00 23.7 C 58 % 14.95 C
1049 03-08-2019 15:20:00 23.9 C 55 % 14.31 C
1050 03-08-2019 15:25:00 23.7 C 56 % 14.4 C
Sensor: Nr:Datum:Temp:Feuchte:Taupunkt:
Aussen-T/F 1051 03-08-2019 15:30:00 23.6 C 60 % 15.38 C
1052 03-08-2019 15:35:00 23.6 C 60 % 15.38 C
1053 03-08-2019 15:40:00 23.7 C 60 % 15.48 C
1054 03-08-2019 15:45:00 24.2 C 58 % 15.42 C
1055 03-08-2019 15:50:00 24.4 C 59 % 15.87 C
1056 03-08-2019 15:55:00 24.6 C 56 % 15.24 C
1057 03-08-2019 16:00:00 24.7 C 56 % 15.33 C
1058 03-08-2019 16:05:00 24.9 C 55 % 15.24 C
1059 03-08-2019 16:10:00 24.9 C 54 % 14.95 C
1060 03-08-2019 16:15:00 25 C 53 % 14.76 C
1061 03-08-2019 16:20:00 25.1 C 54 % 15.14 C
1062 03-08-2019 16:25:00 25.1 C 54 % 15.14 C
1063 03-08-2019 16:30:00 25.2 C 53 % 14.94 C
1064 03-08-2019 16:35:00 25.4 C 52 % 14.83 C
1065 03-08-2019 16:40:00 25.3 C 52 % 14.74 C
1066 03-08-2019 16:45:00 25.4 C 52 % 14.83 C
1067 03-08-2019 16:50:00 25.5 C 52 % 14.92 C
1068 03-08-2019 16:55:00 25.5 C 51 % 14.62 C
1069 03-08-2019 17:00:00 25.6 C 52 % 15.02 C
1070 03-08-2019 17:05:00 25.7 C 52 % 15.11 C
1071 03-08-2019 17:10:00 25.7 C 51 % 14.81 C
1072 03-08-2019 17:15:00 25.4 C 51 % 14.53 C
1073 03-08-2019 17:20:00 25.3 C 51 % 14.44 C
1074 03-08-2019 17:25:00 25.2 C 52 % 14.65 C
1075 03-08-2019 17:30:00 25.2 C 52 % 14.65 C
Sensor: Nr:Datum:Temp:Feuchte:Taupunkt:
Aussen-T/F 1076 03-08-2019 17:35:00 25.3 C 51 % 14.44 C
1077 03-08-2019 17:40:00 25.4 C 51 % 14.53 C
1078 03-08-2019 17:45:00 25.7 C 49 % 14.19 C
1079 03-08-2019 17:50:00 25.7 C 50 % 14.5 C
1080 03-08-2019 17:55:00 25.7 C 50 % 14.5 C
1081 03-08-2019 18:00:00 25.6 C 50 % 14.41 C
1082 03-08-2019 18:05:00 25.6 C 50 % 14.41 C
1083 03-08-2019 18:10:00 25.7 C 50 % 14.5 C
1084 03-08-2019 18:15:00 25.6 C 51 % 14.71 C
1085 03-08-2019 18:20:00 25.6 C 51 % 14.71 C
1086 03-08-2019 18:25:00 25.6 C 50 % 14.41 C
1087 03-08-2019 18:30:00 25.6 C 50 % 14.41 C
1088 03-08-2019 18:35:00 25.6 C 51 % 14.71 C
1089 03-08-2019 18:40:00 25.3 C 52 % 14.74 C
1090 03-08-2019 18:45:00 25.2 C 52 % 14.65 C
1091 03-08-2019 18:50:00 25.1 C 52 % 14.55 C
1092 03-08-2019 18:55:00 25.1 C 53 % 14.85 C
1093 03-08-2019 19:00:00 25.1 C 53 % 14.85 C
1094 03-08-2019 19:05:00 25.1 C 53 % 14.85 C
1095 03-08-2019 19:10:00 24.9 C 53 % 14.66 C
1096 03-08-2019 19:15:00 24.8 C 53 % 14.57 C
1097 03-08-2019 19:20:00 24.6 C 54 % 14.68 C
1098 03-08-2019 19:25:00 24.3 C 54 % 14.4 C
1099 03-08-2019 19:30:00 24.1 C 55 % 14.5 C
1100 03-08-2019 19:35:00 23.9 C 56 % 14.59 C
Sensor: Nr:Datum:Temp:Feuchte:Taupunkt:
Aussen-T/F 1101 03-08-2019 19:40:00 23.8 C 56 % 14.5 C
1102 03-08-2019 19:45:00 23.8 C 55 % 14.22 C
1103 03-08-2019 19:50:00 23.7 C 56 % 14.4 C
1104 03-08-2019 19:55:00 23.6 C 56 % 14.31 C
1105 03-08-2019 20:00:00 23.5 C 56 % 14.22 C
1106 03-08-2019 20:05:00 23.4 C 57 % 14.4 C
1107 03-08-2019 20:10:00 23.2 C 58 % 14.48 C
1108 03-08-2019 20:15:00 23 C 59 % 14.56 C
1109 03-08-2019 20:20:00 22.9 C 59 % 14.47 C
1110 03-08-2019 20:25:00 22.7 C 60 % 14.54 C
1111 03-08-2019 20:30:00 22.6 C 60 % 14.44 C
1112 03-08-2019 20:35:00 22.3 C 61 % 14.42 C
1113 03-08-2019 20:40:00 22.2 C 61 % 14.32 C
1114 03-08-2019 20:45:00 22 C 62 % 14.39 C
1115 03-08-2019 20:50:00 21.9 C 62 % 14.29 C
1116 03-08-2019 20:55:00 21.7 C 63 % 14.35 C
1117 03-08-2019 21:00:00 21.5 C 63 % 14.16 C
1118 03-08-2019 21:05:00 21.3 C 64 % 14.22 C
1119 03-08-2019 21:10:00 21.1 C 64 % 14.03 C
1120 03-08-2019 21:15:00 20.9 C 65 % 14.08 C
1121 03-08-2019 21:20:00 20.8 C 66 % 14.22 C
1122 03-08-2019 21:25:00 20.6 C 65 % 13.79 C
1123 03-08-2019 21:30:00 20.5 C 66 % 13.93 C
1124 03-08-2019 21:35:00 20.3 C 66 % 13.74 C
1125 03-08-2019 21:40:00 20.2 C 66 % 13.65 C
Sensor: Nr:Datum:Temp:Feuchte:Taupunkt:
Aussen-T/F 1126 03-08-2019 21:45:00 20.1 C 67 % 13.78 C
1127 03-08-2019 21:50:00 19.8 C 68 % 13.73 C
1128 03-08-2019 21:55:00 19.6 C 69 % 13.76 C
1129 03-08-2019 22:00:00 19.2 C 70 % 13.6 C
1130 03-08-2019 22:05:00 18.9 C 71 % 13.53 C
1131 03-08-2019 22:10:00 18.6 C 72 % 13.46 C
1132 03-08-2019 22:15:00 18.4 C 73 % 13.48 C
1133 03-08-2019 22:20:00 18.2 C 73 % 13.28 C
1134 03-08-2019 22:25:00 18.1 C 74 % 13.4 C
1135 03-08-2019 22:30:00 17.9 C 75 % 13.41 C
1136 03-08-2019 22:35:00 17.8 C 75 % 13.31 C
1137 03-08-2019 22:40:00 17.7 C 76 % 13.42 C
1138 03-08-2019 22:45:00 17.6 C 76 % 13.32 C
1139 03-08-2019 22:50:00 17.5 C 77 % 13.43 C
1140 03-08-2019 22:55:00 17.4 C 78 % 13.53 C
1141 03-08-2019 23:00:00 17.3 C 78 % 13.43 C
1142 03-08-2019 23:05:00 17.3 C 78 % 13.43 C
1143 03-08-2019 23:10:00 17.2 C 79 % 13.53 C
1144 03-08-2019 23:15:00 17.2 C 79 % 13.53 C
1145 03-08-2019 23:20:00 17.1 C 80 % 13.62 C
1146 03-08-2019 23:25:00 17.1 C 80 % 13.62 C
1147 03-08-2019 23:30:00 17.1 C 80 % 13.62 C
1148 03-08-2019 23:35:00 17 C 79 % 13.33 C
1149 03-08-2019 23:40:00 16.9 C 79 % 13.24 C
1150 03-08-2019 23:45:00 16.9 C 80 % 13.43 C
Sensor: Nr:Datum:Temp:Feuchte:Taupunkt:
Aussen-T/F 1151 03-08-2019 23:50:00 16.8 C 80 % 13.33 C
1152 03-08-2019 23:55:00 16.7 C 80 % 13.23 C
1153 04-08-2019 00:00:00 16.7 C 80 % 13.23 C
1154 04-08-2019 00:05:00 16.6 C 81 % 13.33 C
1155 04-08-2019 00:10:00 16.5 C 81 % 13.23 C
1156 04-08-2019 00:15:00 16.4 C 81 % 13.13 C
1157 04-08-2019 00:20:00 16.3 C 81 % 13.04 C
1158 04-08-2019 00:25:00 16.3 C 81 % 13.04 C
1159 04-08-2019 00:30:00 16.2 C 82 % 13.13 C
1160 04-08-2019 00:35:00 16.1 C 83 % 13.21 C
1161 04-08-2019 00:40:00 16.1 C 83 % 13.21 C
1162 04-08-2019 00:45:00 15.9 C 83 % 13.02 C
1163 04-08-2019 00:50:00 15.8 C 83 % 12.92 C
1164 04-08-2019 00:55:00 15.8 C 83 % 12.92 C
1165 04-08-2019 01:00:00 15.7 C 84 % 13.01 C
1166 04-08-2019 01:05:00 15.6 C 84 % 12.91 C
1167 04-08-2019 01:10:00 15.6 C 84 % 12.91 C
1168 04-08-2019 01:15:00 15.4 C 85 % 12.89 C
1169 04-08-2019 01:20:00 15.3 C 85 % 12.79 C
1170 04-08-2019 01:25:00 15.2 C 85 % 12.7 C
1171 04-08-2019 01:30:00 15.1 C 86 % 12.78 C
1172 04-08-2019 01:35:00 14.9 C 86 % 12.58 C
1173 04-08-2019 01:40:00 14.8 C 86 % 12.48 C
1174 04-08-2019 01:45:00 14.7 C 87 % 12.56 C
1175 04-08-2019 01:50:00 14.6 C 87 % 12.46 C
Sensor: Nr:Datum:Temp:Feuchte:Taupunkt:
Aussen-T/F 1176 04-08-2019 01:55:00 14.6 C 87 % 12.46 C
1177 04-08-2019 02:00:00 14.4 C 87 % 12.27 C
1178 04-08-2019 02:05:00 14.3 C 88 % 12.34 C
1179 04-08-2019 02:10:00 14.3 C 88 % 12.34 C
1180 04-08-2019 02:15:00 14.2 C 88 % 12.24 C
1181 04-08-2019 02:20:00 14.1 C 88 % 12.14 C
1182 04-08-2019 02:25:00 14 C 89 % 12.22 C
1183 04-08-2019 02:30:00 13.9 C 89 % 12.12 C
1184 04-08-2019 02:35:00 13.9 C 89 % 12.12 C
1185 04-08-2019 02:40:00 13.8 C 90 % 12.19 C
1186 04-08-2019 02:45:00 13.7 C 89 % 11.92 C
1187 04-08-2019 02:50:00 13.7 C 90 % 12.09 C
1188 04-08-2019 02:55:00 13.7 C 90 % 12.09 C
1189 04-08-2019 03:00:00 13.6 C 90 % 11.99 C
1190 04-08-2019 03:05:00 13.5 C 90 % 11.89 C
1191 04-08-2019 03:10:00 13.4 C 90 % 11.79 C
1192 04-08-2019 03:15:00 13.3 C 91 % 11.86 C
1193 04-08-2019 03:20:00 13.3 C 91 % 11.86 C
1194 04-08-2019 03:25:00 13.3 C 91 % 11.86 C
1195 04-08-2019 03:30:00 13.3 C 91 % 11.86 C
1196 04-08-2019 03:35:00 13.2 C 91 % 11.76 C
1197 04-08-2019 03:40:00 13.2 C 91 % 11.76 C
1198 04-08-2019 03:45:00 13.2 C 91 % 11.76 C
1199 04-08-2019 03:50:00 13.2 C 92 % 11.93 C
1200 04-08-2019 03:55:00 13.1 C 92 % 11.83 C
Sensor: Nr:Datum:Temp:Feuchte:Taupunkt:
Aussen-T/F 1201 04-08-2019 04:00:00 13.1 C 92 % 11.83 C
1202 04-08-2019 04:05:00 13.1 C 92 % 11.83 C
1203 04-08-2019 04:10:00 12.9 C 91 % 11.47 C
1204 04-08-2019 04:15:00 12.9 C 92 % 11.63 C
1205 04-08-2019 04:20:00 12.9 C 92 % 11.63 C
1206 04-08-2019 04:25:00 12.9 C 92 % 11.63 C
1207 04-08-2019 04:30:00 12.9 C 93 % 11.8 C
1208 04-08-2019 04:35:00 12.9 C 92 % 11.63 C
1209 04-08-2019 04:40:00 12.8 C 92 % 11.53 C
1210 04-08-2019 04:45:00 12.8 C 92 % 11.53 C
1211 04-08-2019 04:50:00 12.7 C 93 % 11.6 C
1212 04-08-2019 04:55:00 12.7 C 92 % 11.43 C
1213 04-08-2019 05:00:00 12.7 C 93 % 11.6 C
1214 04-08-2019 05:05:00 12.7 C 93 % 11.6 C
1215 04-08-2019 05:10:00 12.6 C 93 % 11.5 C
1216 04-08-2019 05:15:00 12.6 C 93 % 11.5 C
1217 04-08-2019 05:20:00 12.6 C 93 % 11.5 C
1218 04-08-2019 05:25:00 12.5 C 93 % 11.4 C
1219 04-08-2019 05:30:00 12.4 C 93 % 11.3 C
1220 04-08-2019 05:35:00 12.4 C 93 % 11.3 C
1221 04-08-2019 05:40:00 12.4 C 93 % 11.3 C
1222 04-08-2019 05:45:00 12.4 C 93 % 11.3 C
1223 04-08-2019 05:50:00 12.3 C 93 % 11.2 C
1224 04-08-2019 05:55:00 12.3 C 93 % 11.2 C
1225 04-08-2019 06:00:00 12.3 C 93 % 11.2 C
Sensor: Nr:Datum:Temp:Feuchte:Taupunkt:
Aussen-T/F 1226 04-08-2019 06:05:00 12.3 C 94 % 11.36 C
1227 04-08-2019 06:10:00 12.3 C 93 % 11.2 C
1228 04-08-2019 06:15:00 12.2 C 94 % 11.26 C
1229 04-08-2019 06:20:00 12.3 C 94 % 11.36 C
1230 04-08-2019 06:25:00 12.3 C 94 % 11.36 C
1231 04-08-2019 06:30:00 12.3 C 94 % 11.36 C
1232 04-08-2019 06:35:00 12.3 C 94 % 11.36 C
1233 04-08-2019 06:40:00 12.4 C 94 % 11.46 C
1234 04-08-2019 06:45:00 12.4 C 94 % 11.46 C
1235 04-08-2019 06:50:00 12.5 C 94 % 11.56 C
1236 04-08-2019 06:55:00 12.5 C 94 % 11.56 C
1237 04-08-2019 07:00:00 12.5 C 94 % 11.56 C
1238 04-08-2019 07:05:00 12.5 C 94 % 11.56 C
1239 04-08-2019 07:10:00 12.5 C 94 % 11.56 C
1240 04-08-2019 07:15:00 12.6 C 94 % 11.66 C
1241 04-08-2019 07:20:00 12.6 C 94 % 11.66 C
1242 04-08-2019 07:25:00 12.7 C 94 % 11.76 C
1243 04-08-2019 07:30:00 12.7 C 94 % 11.76 C
1244 04-08-2019 07:35:00 12.8 C 95 % 12.02 C
1245 04-08-2019 07:40:00 12.8 C 95 % 12.02 C
1246 04-08-2019 07:45:00 12.9 C 95 % 12.12 C
1247 04-08-2019 07:50:00 13 C 95 % 12.22 C
1248 04-08-2019 07:55:00 13.1 C 95 % 12.32 C
1249 04-08-2019 08:00:00 13.2 C 95 % 12.42 C
1250 04-08-2019 08:05:00 13.3 C 95 % 12.52 C
Sensor: Nr:Datum:Temp:Feuchte:Taupunkt:
Aussen-T/F 1251 04-08-2019 08:10:00 13.4 C 95 % 12.62 C
1252 04-08-2019 08:15:00 13.4 C 95 % 12.62 C
1253 04-08-2019 08:20:00 13.6 C 95 % 12.81 C
1254 04-08-2019 08:25:00 13.7 C 95 % 12.91 C
1255 04-08-2019 08:30:00 13.8 C 95 % 13.01 C
1256 04-08-2019 08:35:00 13.8 C 95 % 13.01 C
1257 04-08-2019 08:40:00 14 C 95 % 13.21 C
1258 04-08-2019 08:45:00 14.1 C 95 % 13.31 C
1259 04-08-2019 08:50:00 14.2 C 95 % 13.41 C
1260 04-08-2019 08:55:00 14.3 C 95 % 13.51 C
1261 04-08-2019 09:00:00 14.5 C 95 % 13.71 C
1262 04-08-2019 09:05:00 14.7 C 94 % 13.74 C
1263 04-08-2019 09:10:00 14.8 C 94 % 13.84 C
1264 04-08-2019 09:15:00 14.9 C 94 % 13.94 C
1265 04-08-2019 09:20:00 15.1 C 94 % 14.14 C
1266 04-08-2019 09:25:00 15.2 C 94 % 14.24 C
1267 04-08-2019 09:30:00 15.3 C 93 % 14.18 C
1268 04-08-2019 09:35:00 15.6 C 93 % 14.47 C
1269 04-08-2019 09:40:00 15.7 C 92 % 14.4 C
1270 04-08-2019 09:45:00 15.9 C 92 % 14.6 C
1271 04-08-2019 09:50:00 16.1 C 91 % 14.63 C
1272 04-08-2019 09:55:00 16.3 C 91 % 14.83 C
1273 04-08-2019 10:00:00 16.6 C 90 % 14.95 C
1274 04-08-2019 10:05:00 16.8 C 89 % 14.98 C
1275 04-08-2019 10:10:00 17 C 89 % 15.17 C
Sensor: Nr:Datum:Temp:Feuchte:Taupunkt:
Aussen-T/F 1276 04-08-2019 10:15:00 17.2 C 88 % 15.2 C
1277 04-08-2019 10:20:00 17.4 C 87 % 15.21 C
1278 04-08-2019 10:25:00 17.8 C 84 % 15.06 C
1279 04-08-2019 10:30:00 18.2 C 82 % 15.08 C
1280 04-08-2019 10:35:00 18.6 C 83 % 15.66 C
1281 04-08-2019 10:40:00 18.8 C 80 % 15.28 C
1282 04-08-2019 10:45:00 19.2 C 77 % 15.07 C
1283 04-08-2019 10:50:00 19.7 C 76 % 15.35 C
1284 04-08-2019 10:55:00 20 C 75 % 15.43 C
1285 04-08-2019 11:00:00 20.3 C 73 % 15.3 C
1286 04-08-2019 11:05:00 20.6 C 71 % 15.16 C
1287 04-08-2019 11:10:00 20.7 C 71 % 15.25 C
1288 04-08-2019 11:15:00 20.9 C 69 % 15 C
1289 04-08-2019 11:20:00 21.2 C 69 % 15.29 C
1290 04-08-2019 11:25:00 21.3 C 67 % 14.93 C
1291 04-08-2019 11:30:00 21.4 C 66 % 14.79 C
1292 04-08-2019 11:35:00 21.6 C 66 % 14.98 C
1293 04-08-2019 11:40:00 21.7 C 65 % 14.84 C
1294 04-08-2019 11:45:00 21.8 C 65 % 14.93 C
1295 04-08-2019 11:50:00 22 C 65 % 15.12 C
1296 04-08-2019 11:55:00 22.3 C 63 % 14.92 C
1297 04-08-2019 12:00:00 22.4 C 63 % 15.01 C
1298 04-08-2019 12:05:00 22.6 C 62 % 14.95 C
1299 04-08-2019 12:10:00 22.8 C 61 % 14.89 C
1300 04-08-2019 12:15:00 22.8 C 61 % 14.89 C
Sensor: Nr:Datum:Temp:Feuchte:Taupunkt:
Aussen-T/F 1301 04-08-2019 12:20:00 22.9 C 61 % 14.98 C
1302 04-08-2019 12:25:00 23.1 C 62 % 15.42 C
1303 04-08-2019 12:30:00 23.3 C 60 % 15.1 C
1304 04-08-2019 12:35:00 23.5 C 59 % 15.03 C
1305 04-08-2019 12:40:00 23.7 C 58 % 14.95 C
1306 04-08-2019 12:45:00 24 C 57 % 14.96 C
1307 04-08-2019 12:50:00 24.2 C 55 % 14.59 C
1308 04-08-2019 12:55:00 24.3 C 55 % 14.68 C
1309 04-08-2019 13:00:00 24.4 C 55 % 14.78 C
1310 04-08-2019 13:05:00 24.4 C 55 % 14.78 C
1311 04-08-2019 13:10:00 24.4 C 56 % 15.06 C
1312 04-08-2019 13:15:00 24.5 C 56 % 15.15 C
1313 04-08-2019 13:20:00 24.7 C 55 % 15.05 C
1314 04-08-2019 13:25:00 24.7 C 54 % 14.77 C
1315 04-08-2019 13:30:00 24.8 C 53 % 14.57 C
1316 04-08-2019 13:35:00 24.8 C 53 % 14.57 C
1317 04-08-2019 13:40:00 25 C 52 % 14.46 C
1318 04-08-2019 13:45:00 25.1 C 53 % 14.85 C
1319 04-08-2019 13:50:00 25.1 C 51 % 14.25 C
1320 04-08-2019 13:55:00 25.1 C 51 % 14.25 C
1321 04-08-2019 14:00:00 25.1 C 52 % 14.55 C
1322 04-08-2019 14:05:00 25.2 C 52 % 14.65 C
1323 04-08-2019 14:10:00 25.4 C 50 % 14.22 C
1324 04-08-2019 14:15:00 25.6 C 50 % 14.41 C
1325 04-08-2019 14:20:00 25.6 C 50 % 14.41 C
Sensor: Nr:Datum:Temp:Feuchte:Taupunkt:
Aussen-T/F 1326 04-08-2019 14:25:00 25.7 C 49 % 14.19 C
1327 04-08-2019 14:30:00 25.9 C 48 % 14.05 C
1328 04-08-2019 14:35:00 26.2 C 48 % 14.32 C
1329 04-08-2019 14:40:00 26.3 C 46 % 13.76 C
1330 04-08-2019 14:45:00 26.4 C 45 % 13.51 C
1331 04-08-2019 14:50:00 26.4 C 46 % 13.85 C
1332 04-08-2019 14:55:00 26.6 C 47 % 14.36 C
1333 04-08-2019 15:00:00 26.8 C 46 % 14.21 C
1334 04-08-2019 15:05:00 26.9 C 44 % 13.62 C
1335 04-08-2019 15:10:00 27.2 C 42 % 13.18 C
1336 04-08-2019 15:15:00 27.3 C 44 % 13.98 C
1337 04-08-2019 15:20:00 27.6 C 43 % 13.9 C
1338 04-08-2019 15:25:00 28.1 C 41 % 13.61 C
1339 04-08-2019 15:30:00 28.3 C 39 % 13.02 C
1340 04-08-2019 15:35:00 28.6 C 39 % 13.29 C
1341 04-08-2019 15:40:00 29 C 39 % 13.65 C
1342 04-08-2019 15:45:00 29.4 C 37 % 13.19 C
1343 04-08-2019 15:50:00 29.7 C 37 % 13.46 C
1344 04-08-2019 15:55:00 29.8 C 37 % 13.54 C
1345 04-08-2019 16:00:00 29.9 C 35 % 12.78 C
1346 04-08-2019 16:05:00 30.1 C 36 % 13.39 C
1347 04-08-2019 16:10:00 30.2 C 35 % 13.04 C
1348 04-08-2019 16:15:00 30.2 C 35 % 13.04 C
1349 04-08-2019 16:20:00 30.2 C 36 % 13.48 C
1350 04-08-2019 16:25:00 29.8 C 35 % 12.69 C
Sensor: Nr:Datum:Temp:Feuchte:Taupunkt:
Aussen-T/F 1351 04-08-2019 16:30:00 29.7 C 37 % 13.46 C
1352 04-08-2019 16:35:00 29.9 C 35 % 12.78 C
1353 04-08-2019 16:40:00 30.1 C 33 % 12.06 C
1354 04-08-2019 16:45:00 30.1 C 32 % 11.59 C
1355 04-08-2019 16:50:00 30.1 C 32 % 11.59 C
1356 04-08-2019 16:55:00 30.1 C 33 % 12.06 C
1357 04-08-2019 17:00:00 30.2 C 34 % 12.6 C
1358 04-08-2019 17:05:00 30.4 C 32 % 11.85 C
1359 04-08-2019 17:10:00 30.7 C 33 % 12.58 C
1360 04-08-2019 17:15:00 30.9 C 32 % 12.29 C
1361 04-08-2019 17:20:00 31 C 32 % 12.37 C
1362 04-08-2019 17:25:00 31.1 C 32 % 12.46 C
1363 04-08-2019 17:30:00 31.2 C 32 % 12.55 C
1364 04-08-2019 17:35:00 31.2 C 32 % 12.55 C
1365 04-08-2019 17:40:00 31.3 C 31 % 12.15 C
1366 04-08-2019 17:45:00 31.3 C 31 % 12.15 C
1367 04-08-2019 17:50:00 31.2 C 31 % 12.06 C
1368 04-08-2019 17:55:00 31 C 33 % 12.84 C
1369 04-08-2019 18:00:00 30.8 C 34 % 13.13 C
1370 04-08-2019 18:05:00 30.8 C 33 % 12.67 C
1371 04-08-2019 18:10:00 30.7 C 34 % 13.04 C
1372 04-08-2019 18:15:00 30.7 C 34 % 13.04 C
1373 04-08-2019 18:20:00 30.8 C 34 % 13.13 C
1374 04-08-2019 18:25:00 31.2 C 34 % 13.47 C
1375 04-08-2019 18:30:00 31.2 C 35 % 13.92 C
Sensor: Nr:Datum:Temp:Feuchte:Taupunkt:
Aussen-T/F 1376 04-08-2019 18:35:00 31 C 34 % 13.3 C
1377 04-08-2019 18:40:00 30.7 C 34 % 13.04 C
1378 04-08-2019 18:45:00 30.6 C 33 % 12.5 C
1379 04-08-2019 18:50:00 30.6 C 33 % 12.5 C
1380 04-08-2019 18:55:00 30.4 C 33 % 12.32 C
1381 04-08-2019 19:00:00 30.2 C 34 % 12.6 C
1382 04-08-2019 19:05:00 29.8 C 35 % 12.69 C
1383 04-08-2019 19:10:00 29.5 C 35 % 12.43 C
1384 04-08-2019 19:15:00 29.3 C 39 % 13.91 C
1385 04-08-2019 19:20:00 29.2 C 38 % 13.42 C
1386 04-08-2019 19:25:00 28.9 C 41 % 14.33 C
1387 04-08-2019 19:30:00 28.8 C 44 % 15.33 C
1388 04-08-2019 19:35:00 28.5 C 43 % 14.71 C
1389 04-08-2019 19:40:00 28.2 C 49 % 16.47 C
1390 04-08-2019 19:45:00 27.8 C 46 % 15.12 C
1391 04-08-2019 19:50:00 27.6 C 48 % 15.6 C
1392 04-08-2019 19:55:00 27.3 C 48 % 15.33 C
1393 04-08-2019 20:00:00 27.1 C 48 % 15.15 C
1394 04-08-2019 20:05:00 26.8 C 48 % 14.87 C
1395 04-08-2019 20:10:00 26.7 C 51 % 15.72 C
1396 04-08-2019 20:15:00 26.6 C 50 % 15.32 C
1397 04-08-2019 20:20:00 26.3 C 51 % 15.36 C
1398 04-08-2019 20:25:00 26.1 C 51 % 15.17 C
1399 04-08-2019 20:30:00 25.8 C 52 % 15.2 C
1400 04-08-2019 20:35:00 25.5 C 53 % 15.22 C
Sensor: Nr:Datum:Temp:Feuchte:Taupunkt:
Aussen-T/F 1401 04-08-2019 20:40:00 25.1 C 53 % 14.85 C
1402 04-08-2019 20:45:00 24.8 C 55 % 15.15 C
1403 04-08-2019 20:50:00 24.4 C 55 % 14.78 C
1404 04-08-2019 20:55:00 24.2 C 56 % 14.87 C
1405 04-08-2019 21:00:00 23.8 C 56 % 14.5 C
1406 04-08-2019 21:05:00 23.5 C 57 % 14.49 C
1407 04-08-2019 21:10:00 23.2 C 58 % 14.48 C
1408 04-08-2019 21:15:00 22.9 C 59 % 14.47 C
1409 04-08-2019 21:20:00 22.6 C 60 % 14.44 C
1410 04-08-2019 21:25:00 22.4 C 61 % 14.51 C
1411 04-08-2019 21:30:00 22.2 C 61 % 14.32 C
1412 04-08-2019 21:35:00 22.1 C 61 % 14.23 C
1413 04-08-2019 21:40:00 22 C 62 % 14.39 C
1414 04-08-2019 21:45:00 21.9 C 62 % 14.29 C
1415 04-08-2019 21:50:00 21.8 C 63 % 14.45 C
1416 04-08-2019 21:55:00 21.8 C 64 % 14.69 C
1417 04-08-2019 22:00:00 21.8 C 64 % 14.69 C
1418 04-08-2019 22:05:00 21.7 C 64 % 14.6 C
1419 04-08-2019 22:10:00 21.8 C 64 % 14.69 C
1420 04-08-2019 22:15:00 21.8 C 63 % 14.45 C
1421 04-08-2019 22:20:00 21.8 C 63 % 14.45 C
1422 04-08-2019 22:25:00 22 C 63 % 14.63 C
1423 04-08-2019 22:30:00 22.1 C 64 % 14.97 C
1424 04-08-2019 22:35:00 22.1 C 63 % 14.73 C
1425 04-08-2019 22:40:00 22.1 C 64 % 14.97 C
Sensor: Nr:Datum:Temp:Feuchte:Taupunkt:
Aussen-T/F 1426 04-08-2019 22:45:00 22.1 C 64 % 14.97 C
1427 04-08-2019 22:50:00 22.1 C 64 % 14.97 C
1428 04-08-2019 22:55:00 22.1 C 64 % 14.97 C
1429 04-08-2019 23:00:00 22.1 C 64 % 14.97 C
1430 04-08-2019 23:05:00 22.1 C 63 % 14.73 C
1431 04-08-2019 23:10:00 22.2 C 63 % 14.82 C
1432 04-08-2019 23:15:00 22.3 C 63 % 14.92 C
1433 04-08-2019 23:20:00 22.3 C 62 % 14.67 C
1434 04-08-2019 23:25:00 22.3 C 61 % 14.42 C
1435 04-08-2019 23:30:00 22.4 C 61 % 14.51 C
1436 04-08-2019 23:35:00 22.4 C 60 % 14.26 C
1437 04-08-2019 23:40:00 22.5 C 60 % 14.35 C
1438 04-08-2019 23:45:00 22.6 C 59 % 14.18 C
1439 04-08-2019 23:50:00 22.7 C 60 % 14.54 C
1440 04-08-2019 23:55:00 22.8 C 59 % 14.37 C
1441 05-08-2019 00:00:00 22.8 C 59 % 14.37 C
1442 05-08-2019 00:05:00 22.9 C 58 % 14.2 C
1443 05-08-2019 00:10:00 22.9 C 57 % 13.93 C
1444 05-08-2019 00:15:00 22.9 C 58 % 14.2 C
1445 05-08-2019 00:20:00 23 C 57 % 14.03 C
1446 05-08-2019 00:25:00 23 C 58 % 14.29 C
1447 05-08-2019 00:30:00 22.9 C 57 % 13.93 C
1448 05-08-2019 00:35:00 22.9 C 56 % 13.66 C
1449 05-08-2019 00:40:00 22.9 C 57 % 13.93 C
1450 05-08-2019 00:45:00 22.8 C 59 % 14.37 C
Sensor: Nr:Datum:Temp:Feuchte:Taupunkt:
Aussen-T/F 1451 05-08-2019 00:50:00 22.8 C 58 % 14.11 C
1452 05-08-2019 00:55:00 22.7 C 60 % 14.54 C
1453 05-08-2019 01:00:00 22.6 C 60 % 14.44 C
1454 05-08-2019 01:05:00 22.3 C 61 % 14.42 C
1455 05-08-2019 01:10:00 22.1 C 61 % 14.23 C
1456 05-08-2019 01:15:00 21.9 C 62 % 14.29 C
1457 05-08-2019 01:20:00 21.8 C 62 % 14.2 C
1458 05-08-2019 01:25:00 21.7 C 62 % 14.1 C
1459 05-08-2019 01:30:00 21.6 C 63 % 14.26 C
1460 05-08-2019 01:35:00 21.4 C 63 % 14.07 C
1461 05-08-2019 01:40:00 21.3 C 63 % 13.97 C
1462 05-08-2019 01:45:00 21.2 C 64 % 14.12 C
1463 05-08-2019 01:50:00 21.1 C 64 % 14.03 C
1464 05-08-2019 01:55:00 20.9 C 64 % 13.84 C
1465 05-08-2019 02:00:00 20.8 C 64 % 13.74 C
1466 05-08-2019 02:05:00 20.7 C 65 % 13.89 C
1467 05-08-2019 02:10:00 20.6 C 66 % 14.03 C
1468 05-08-2019 02:15:00 20.4 C 66 % 13.84 C
1469 05-08-2019 02:20:00 20.3 C 67 % 13.97 C
1470 05-08-2019 02:25:00 20.3 C 67 % 13.97 C
1471 05-08-2019 02:30:00 20.2 C 67 % 13.88 C
1472 05-08-2019 02:35:00 20.2 C 68 % 14.11 C
1473 05-08-2019 02:40:00 20.1 C 68 % 14.01 C
1474 05-08-2019 02:45:00 20 C 68 % 13.92 C
1475 05-08-2019 02:50:00 19.9 C 68 % 13.82 C
Sensor: Nr:Datum:Temp:Feuchte:Taupunkt:
Aussen-T/F 1476 05-08-2019 02:55:00 19.9 C 68 % 13.82 C
1477 05-08-2019 03:00:00 19.8 C 68 % 13.73 C
1478 05-08-2019 03:05:00 19.8 C 69 % 13.95 C
1479 05-08-2019 03:10:00 19.8 C 69 % 13.95 C
1480 05-08-2019 03:15:00 19.7 C 69 % 13.86 C
1481 05-08-2019 03:20:00 19.7 C 70 % 14.08 C
1482 05-08-2019 03:25:00 19.6 C 69 % 13.76 C
1483 05-08-2019 03:30:00 19.6 C 70 % 13.98 C
1484 05-08-2019 03:35:00 19.5 C 70 % 13.89 C
1485 05-08-2019 03:40:00 19.4 C 70 % 13.79 C
1486 05-08-2019 03:45:00 19.4 C 71 % 14.01 C
1487 05-08-2019 03:50:00 19.4 C 70 % 13.79 C
1488 05-08-2019 03:55:00 19.5 C 71 % 14.1 C
1489 05-08-2019 04:00:00 19.6 C 73 % 14.63 C
1490 05-08-2019 04:05:00 19.6 C 74 % 14.84 C
1491 05-08-2019 04:10:00 19.6 C 76 % 15.26 C
1492 05-08-2019 04:15:00 19.5 C 76 % 15.16 C
1493 05-08-2019 04:20:00 19.3 C 76 % 14.97 C
1494 05-08-2019 04:25:00 19.3 C 75 % 14.76 C
1495 05-08-2019 04:30:00 19.2 C 77 % 15.07 C
1496 05-08-2019 04:35:00 19.2 C 77 % 15.07 C
1497 05-08-2019 04:40:00 19.1 C 76 % 14.77 C
1498 05-08-2019 04:45:00 19.1 C 76 % 14.77 C
1499 05-08-2019 04:50:00 19.1 C 76 % 14.77 C
1500 05-08-2019 04:55:00 19.2 C 77 % 15.07 C
Sensor: Nr:Datum:Temp:Feuchte:Taupunkt:
Aussen-T/F 1501 05-08-2019 05:00:00 19.3 C 78 % 15.37 C
1502 05-08-2019 05:05:00 19.3 C 78 % 15.37 C
1503 05-08-2019 05:10:00 19.3 C 77 % 15.17 C
1504 05-08-2019 05:15:00 19.3 C 77 % 15.17 C
1505 05-08-2019 05:20:00 19.3 C 77 % 15.17 C
1506 05-08-2019 05:25:00 19.3 C 77 % 15.17 C
1507 05-08-2019 05:30:00 19.2 C 76 % 14.87 C
1508 05-08-2019 05:35:00 19.3 C 76 % 14.97 C
1509 05-08-2019 05:40:00 19.4 C 77 % 15.27 C
1510 05-08-2019 05:45:00 19.5 C 80 % 15.96 C
1511 05-08-2019 05:50:00 19.4 C 81 % 16.06 C
1512 05-08-2019 05:55:00 19.3 C 82 % 16.15 C
1513 05-08-2019 06:00:00 19.1 C 83 % 16.15 C
1514 05-08-2019 06:05:00 18.8 C 84 % 16.04 C
1515 05-08-2019 06:10:00 18.6 C 85 % 16.03 C
1516 05-08-2019 06:15:00 18.4 C 86 % 16.02 C
1517 05-08-2019 06:20:00 18.3 C 86 % 15.92 C
1518 05-08-2019 06:25:00 18.2 C 87 % 16 C
1519 05-08-2019 06:30:00 18.2 C 88 % 16.18 C
1520 05-08-2019 06:35:00 18.1 C 89 % 16.26 C
1521 05-08-2019 06:40:00 18.1 C 89 % 16.26 C
1522 05-08-2019 06:45:00 17.9 C 90 % 16.24 C
1523 05-08-2019 06:50:00 17.9 C 90 % 16.24 C
1524 05-08-2019 06:55:00 17.8 C 91 % 16.31 C
1525 05-08-2019 07:00:00 17.8 C 91 % 16.31 C
Sensor: Nr:Datum:Temp:Feuchte:Taupunkt:
Aussen-T/F 1526 05-08-2019 07:05:00 17.7 C 91 % 16.21 C
1527 05-08-2019 07:10:00 17.7 C 92 % 16.38 C
1528 05-08-2019 07:15:00 17.6 C 92 % 16.28 C
1529 05-08-2019 07:20:00 17.6 C 92 % 16.28 C
1530 05-08-2019 07:25:00 17.6 C 92 % 16.28 C
1531 05-08-2019 07:30:00 17.6 C 93 % 16.45 C
1532 05-08-2019 07:35:00 17.5 C 93 % 16.36 C
1533 05-08-2019 07:40:00 17.4 C 93 % 16.26 C
1534 05-08-2019 07:45:00 17.3 C 93 % 16.16 C
1535 05-08-2019 07:50:00 17.3 C 93 % 16.16 C
1536 05-08-2019 07:55:00 17.3 C 93 % 16.16 C
1537 05-08-2019 08:00:00 17.3 C 94 % 16.33 C
1538 05-08-2019 08:05:00 17.3 C 94 % 16.33 C
1539 05-08-2019 08:10:00 17.4 C 94 % 16.42 C
1540 05-08-2019 08:15:00 17.4 C 94 % 16.42 C
1541 05-08-2019 08:20:00 17.6 C 94 % 16.62 C
1542 05-08-2019 08:25:00 17.6 C 94 % 16.62 C
1543 05-08-2019 08:30:00 17.6 C 95 % 16.79 C
1544 05-08-2019 08:35:00 17.8 C 95 % 16.99 C
1545 05-08-2019 08:40:00 17.8 C 95 % 16.99 C
1546 05-08-2019 08:45:00 17.9 C 95 % 17.09 C
1547 05-08-2019 08:50:00 17.9 C 95 % 17.09 C
1548 05-08-2019 08:55:00 18.1 C 95 % 17.29 C
1549 05-08-2019 09:00:00 18.1 C 95 % 17.29 C
1550 05-08-2019 09:05:00 18.2 C 95 % 17.39 C
Sensor: Nr:Datum:Temp:Feuchte:Taupunkt:
Aussen-T/F 1551 05-08-2019 09:10:00 18.3 C 95 % 17.48 C
1552 05-08-2019 09:15:00 18.5 C 95 % 17.68 C
1553 05-08-2019 09:20:00 18.7 C 96 % 18.05 C
1554 05-08-2019 09:25:00 18.8 C 95 % 17.98 C
1555 05-08-2019 09:30:00 18.8 C 95 % 17.98 C
1556 05-08-2019 09:35:00 18.9 C 95 % 18.08 C
1557 05-08-2019 09:40:00 19.1 C 95 % 18.28 C
1558 05-08-2019 09:45:00 19.2 C 95 % 18.38 C
1559 05-08-2019 09:50:00 19.2 C 94 % 18.21 C
1560 05-08-2019 09:55:00 19.2 C 94 % 18.21 C
1561 05-08-2019 10:00:00 19.4 C 94 % 18.41 C
1562 05-08-2019 10:05:00 19.6 C 94 % 18.61 C
1563 05-08-2019 10:10:00 19.7 C 94 % 18.71 C
1564 05-08-2019 10:15:00 19.8 C 93 % 18.63 C
1565 05-08-2019 10:20:00 19.9 C 94 % 18.91 C
1566 05-08-2019 10:25:00 20.1 C 94 % 19.1 C
1567 05-08-2019 10:30:00 20.4 C 94 % 19.4 C
1568 05-08-2019 10:35:00 20.4 C 93 % 19.23 C
1569 05-08-2019 10:40:00 20.3 C 91 % 18.78 C
1570 05-08-2019 10:45:00 20.4 C 91 % 18.88 C
1571 05-08-2019 10:50:00 20.4 C 89 % 18.53 C
1572 05-08-2019 10:55:00 20.6 C 90 % 18.9 C
1573 05-08-2019 11:00:00 20.8 C 89 % 18.92 C
1574 05-08-2019 11:05:00 21.1 C 87 % 18.85 C
1575 05-08-2019 11:10:00 21.4 C 88 % 19.33 C
Sensor: Nr:Datum:Temp:Feuchte:Taupunkt:
Aussen-T/F 1576 05-08-2019 11:15:00 21.7 C 87 % 19.44 C
1577 05-08-2019 11:20:00 21.8 C 85 % 19.16 C
1578 05-08-2019 11:25:00 21.8 C 84 % 18.97 C
1579 05-08-2019 11:30:00 22.1 C 83 % 19.08 C
1580 05-08-2019 11:35:00 22.3 C 83 % 19.27 C
1581 05-08-2019 11:40:00 22.4 C 80 % 18.78 C
1582 05-08-2019 11:45:00 22.6 C 80 % 18.97 C
1583 05-08-2019 11:50:00 22.8 C 81 % 19.37 C
1584 05-08-2019 11:55:00 23.1 C 82 % 19.86 C
1585 05-08-2019 12:00:00 23.3 C 79 % 19.45 C
1586 05-08-2019 12:05:00 23.4 C 75 % 18.71 C
1587 05-08-2019 12:10:00 23.6 C 74 % 18.69 C
1588 05-08-2019 12:15:00 23.7 C 73 % 18.57 C
1589 05-08-2019 12:20:00 23.9 C 69 % 17.87 C
1590 05-08-2019 12:25:00 24.1 C 68 % 17.82 C
1591 05-08-2019 12:30:00 24.3 C 68 % 18.01 C
1592 05-08-2019 12:35:00 24.6 C 65 % 17.58 C
1593 05-08-2019 12:40:00 24.8 C 63 % 17.28 C
1594 05-08-2019 12:45:00 24.9 C 65 % 17.87 C
1595 05-08-2019 12:50:00 25.2 C 63 % 17.65 C
1596 05-08-2019 12:55:00 25.2 C 63 % 17.65 C
1597 05-08-2019 13:00:00 25.2 C 64 % 17.9 C
1598 05-08-2019 13:05:00 25.3 C 62 % 17.5 C
1599 05-08-2019 13:10:00 25.5 C 61 % 17.43 C
1600 05-08-2019 13:15:00 25.7 C 62 % 17.87 C
Sensor: Nr:Datum:Temp:Feuchte:Taupunkt:
Aussen-T/F 1601 05-08-2019 13:20:00 25.8 C 61 % 17.71 C
1602 05-08-2019 13:25:00 25.9 C 61 % 17.8 C
1603 05-08-2019 13:30:00 26.2 C 59 % 17.55 C
1604 05-08-2019 13:35:00 26.3 C 59 % 17.65 C
1605 05-08-2019 13:40:00 26.4 C 56 % 16.92 C
1606 05-08-2019 13:45:00 26.5 C 58 % 17.56 C
1607 05-08-2019 13:50:00 26.6 C 57 % 17.38 C
1608 05-08-2019 13:55:00 26.6 C 57 % 17.38 C
1609 05-08-2019 14:00:00 26.6 C 58 % 17.66 C
1610 05-08-2019 14:05:00 26.6 C 57 % 17.38 C
1611 05-08-2019 14:10:00 26.7 C 56 % 17.19 C
1612 05-08-2019 14:15:00 26.8 C 56 % 17.29 C
1613 05-08-2019 14:20:00 27.1 C 55 % 17.28 C
1614 05-08-2019 14:25:00 27.3 C 54 % 17.18 C
1615 05-08-2019 14:30:00 27.3 C 53 % 16.88 C
1616 05-08-2019 14:35:00 27.3 C 55 % 17.47 C
1617 05-08-2019 14:40:00 27.3 C 53 % 16.88 C
1618 05-08-2019 14:45:00 27.3 C 53 % 16.88 C
1619 05-08-2019 14:50:00 27.4 C 54 % 17.27 C
1620 05-08-2019 14:55:00 27.7 C 52 % 16.95 C
1621 05-08-2019 15:00:00 27.8 C 47 % 15.45 C
1622 05-08-2019 15:05:00 27.9 C 50 % 16.51 C
1623 05-08-2019 15:10:00 28 C 50 % 16.61 C
1624 05-08-2019 15:15:00 28.4 C 50 % 16.97 C
1625 05-08-2019 15:20:00 28.4 C 48 % 16.33 C
Sensor: Nr:Datum:Temp:Feuchte:Taupunkt:
Aussen-T/F 1626 05-08-2019 15:25:00 28.4 C 45 % 15.32 C
1627 05-08-2019 15:30:00 28.5 C 46 % 15.75 C
1628 05-08-2019 15:35:00 28.3 C 45 % 15.23 C
1629 05-08-2019 15:40:00 28.4 C 45 % 15.32 C
1630 05-08-2019 15:45:00 28.7 C 44 % 15.24 C
1631 05-08-2019 15:50:00 28.8 C 44 % 15.33 C
1632 05-08-2019 15:55:00 28.9 C 44 % 15.42 C
1633 05-08-2019 16:00:00 28.9 C 41 % 14.33 C
1634 05-08-2019 16:05:00 28.9 C 42 % 14.7 C
1635 05-08-2019 16:10:00 29 C 42 % 14.79 C
1636 05-08-2019 16:15:00 29.1 C 41 % 14.51 C
1637 05-08-2019 16:20:00 29.1 C 41 % 14.51 C
1638 05-08-2019 16:25:00 29.1 C 41 % 14.51 C
1639 05-08-2019 16:30:00 29.1 C 41 % 14.51 C
1640 05-08-2019 16:35:00 28.9 C 41 % 14.33 C
1641 05-08-2019 16:40:00 28.8 C 41 % 14.24 C
1642 05-08-2019 16:45:00 28.7 C 41 % 14.15 C
1643 05-08-2019 16:50:00 28.5 C 42 % 14.34 C
1644 05-08-2019 16:55:00 28.4 C 42 % 14.25 C
1645 05-08-2019 17:00:00 28.3 C 42 % 14.16 C
1646 05-08-2019 17:05:00 28.3 C 43 % 14.53 C
1647 05-08-2019 17:10:00 28.3 C 42 % 14.16 C
1648 05-08-2019 17:15:00 28.3 C 42 % 14.16 C
1649 05-08-2019 17:20:00 28.3 C 42 % 14.16 C
1650 05-08-2019 17:25:00 28.3 C 41 % 13.79 C
Sensor: Nr:Datum:Temp:Feuchte:Taupunkt:
Aussen-T/F 1651 05-08-2019 17:30:00 28.3 C 42 % 14.16 C
1652 05-08-2019 17:35:00 28.3 C 42 % 14.16 C
1653 05-08-2019 17:40:00 28.2 C 42 % 14.07 C
1654 05-08-2019 17:45:00 28.1 C 42 % 13.98 C
1655 05-08-2019 17:50:00 28 C 43 % 14.26 C
1656 05-08-2019 17:55:00 28 C 42 % 13.89 C
1657 05-08-2019 18:00:00 28.1 C 43 % 14.35 C
1658 05-08-2019 18:05:00 28.2 C 42 % 14.07 C
1659 05-08-2019 18:10:00 28.1 C 42 % 13.98 C
1660 05-08-2019 18:15:00 27.9 C 40 % 13.05 C
1661 05-08-2019 18:20:00 27.8 C 42 % 13.71 C
1662 05-08-2019 18:25:00 27.7 C 41 % 13.25 C
1663 05-08-2019 18:30:00 27.5 C 42 % 13.44 C
1664 05-08-2019 18:35:00 27.4 C 43 % 13.72 C
1665 05-08-2019 18:40:00 27.5 C 43 % 13.81 C
1666 05-08-2019 18:45:00 27.5 C 43 % 13.81 C
1667 05-08-2019 18:50:00 27.4 C 42 % 13.35 C
1668 05-08-2019 18:55:00 27.3 C 43 % 13.63 C
1669 05-08-2019 19:00:00 27.2 C 44 % 13.89 C
1670 05-08-2019 19:05:00 27.1 C 44 % 13.8 C
1671 05-08-2019 19:10:00 27.1 C 44 % 13.8 C
1672 05-08-2019 19:15:00 26.9 C 45 % 13.96 C
1673 05-08-2019 19:20:00 26.8 C 45 % 13.87 C
1674 05-08-2019 19:25:00 26.8 C 46 % 14.21 C
1675 05-08-2019 19:30:00 26.7 C 46 % 14.12 C
Sensor: Nr:Datum:Temp:Feuchte:Taupunkt:
Aussen-T/F 1676 05-08-2019 19:35:00 26.6 C 47 % 14.36 C
1677 05-08-2019 19:40:00 26.4 C 48 % 14.51 C
1678 05-08-2019 19:45:00 26.3 C 48 % 14.42 C
1679 05-08-2019 19:50:00 26.3 C 49 % 14.74 C
1680 05-08-2019 19:55:00 26.2 C 51 % 15.27 C
1681 05-08-2019 20:00:00 26.1 C 47 % 13.91 C
1682 05-08-2019 20:05:00 26 C 48 % 14.14 C
1683 05-08-2019 20:10:00 25.9 C 45 % 13.06 C
1684 05-08-2019 20:15:00 25.8 C 48 % 13.96 C
1685 05-08-2019 20:20:00 25.7 C 53 % 15.4 C
1686 05-08-2019 20:25:00 25.5 C 55 % 15.8 C
1687 05-08-2019 20:30:00 25.2 C 57 % 16.08 C
1688 05-08-2019 20:35:00 24.9 C 58 % 16.07 C
1689 05-08-2019 20:40:00 24.6 C 59 % 16.06 C
1690 05-08-2019 20:45:00 24.2 C 59 % 15.68 C
1691 05-08-2019 20:50:00 23.8 C 57 % 14.77 C
1692 05-08-2019 20:55:00 23.5 C 57 % 14.49 C
1693 05-08-2019 21:00:00 23.3 C 58 % 14.58 C
1694 05-08-2019 21:05:00 23 C 58 % 14.29 C
1695 05-08-2019 21:10:00 22.7 C 59 % 14.28 C
1696 05-08-2019 21:15:00 22.4 C 61 % 14.51 C
1697 05-08-2019 21:20:00 22.2 C 62 % 14.58 C
1698 05-08-2019 21:25:00 22 C 61 % 14.14 C
1699 05-08-2019 21:30:00 21.8 C 62 % 14.2 C
1700 05-08-2019 21:35:00 21.7 C 62 % 14.1 C
Sensor: Nr:Datum:Temp:Feuchte:Taupunkt:
Aussen-T/F 1701 05-08-2019 21:40:00 21.6 C 62 % 14.01 C
1702 05-08-2019 21:45:00 21.5 C 62 % 13.92 C
1703 05-08-2019 21:50:00 21.4 C 63 % 14.07 C
1704 05-08-2019 21:55:00 21.3 C 64 % 14.22 C
1705 05-08-2019 22:00:00 21.2 C 64 % 14.12 C
1706 05-08-2019 22:05:00 21.1 C 66 % 14.5 C
1707 05-08-2019 22:10:00 21 C 66 % 14.41 C
1708 05-08-2019 22:15:00 20.8 C 68 % 14.68 C
1709 05-08-2019 22:20:00 20.7 C 69 % 14.81 C
1710 05-08-2019 22:25:00 20.6 C 70 % 14.94 C
1711 05-08-2019 22:30:00 20.4 C 71 % 14.97 C
1712 05-08-2019 22:35:00 20.3 C 71 % 14.87 C
1713 05-08-2019 22:40:00 20.2 C 71 % 14.78 C
1714 05-08-2019 22:45:00 20.1 C 72 % 14.9 C
1715 05-08-2019 22:50:00 20 C 71 % 14.58 C
1716 05-08-2019 22:55:00 20 C 73 % 15.01 C
1717 05-08-2019 23:00:00 19.9 C 73 % 14.92 C
1718 05-08-2019 23:05:00 19.8 C 72 % 14.61 C
1719 05-08-2019 23:10:00 19.8 C 73 % 14.82 C
1720 05-08-2019 23:15:00 19.7 C 73 % 14.73 C
1721 05-08-2019 23:20:00 19.6 C 74 % 14.84 C
1722 05-08-2019 23:25:00 19.4 C 74 % 14.65 C
1723 05-08-2019 23:30:00 19.3 C 74 % 14.55 C
1724 05-08-2019 23:35:00 19.1 C 74 % 14.36 C
1725 05-08-2019 23:40:00 18.9 C 75 % 14.37 C
Sensor: Nr:Datum:Temp:Feuchte:Taupunkt:
Aussen-T/F 1726 05-08-2019 23:45:00 18.8 C 75 % 14.28 C
1727 05-08-2019 23:50:00 18.6 C 76 % 14.29 C
1728 05-08-2019 23:55:00 18.5 C 75 % 13.99 C
1729 06-08-2019 00:00:00 18.4 C 77 % 14.3 C
1730 06-08-2019 00:05:00 18.3 C 77 % 14.2 C
1731 06-08-2019 00:10:00 18.2 C 77 % 14.1 C
1732 06-08-2019 00:15:00 18.2 C 77 % 14.1 C
1733 06-08-2019 00:20:00 18.1 C 78 % 14.21 C
1734 06-08-2019 00:25:00 18.1 C 78 % 14.21 C
1735 06-08-2019 00:30:00 18 C 79 % 14.31 C
1736 06-08-2019 00:35:00 17.9 C 79 % 14.21 C
1737 06-08-2019 00:40:00 17.8 C 78 % 13.91 C
1738 06-08-2019 00:45:00 17.8 C 79 % 14.11 C
1739 06-08-2019 00:50:00 17.7 C 80 % 14.21 C
1740 06-08-2019 00:55:00 17.6 C 80 % 14.11 C
1741 06-08-2019 01:00:00 17.4 C 80 % 13.92 C
1742 06-08-2019 01:05:00 17.3 C 81 % 14.01 C
1743 06-08-2019 01:10:00 17.3 C 81 % 14.01 C
1744 06-08-2019 01:15:00 17.2 C 81 % 13.91 C
1745 06-08-2019 01:20:00 17.2 C 81 % 13.91 C
1746 06-08-2019 01:25:00 17.1 C 81 % 13.82 C
1747 06-08-2019 01:30:00 17.1 C 82 % 14 C
1748 06-08-2019 01:35:00 17.1 C 82 % 14 C
1749 06-08-2019 01:40:00 16.9 C 82 % 13.81 C
1750 06-08-2019 01:45:00 16.9 C 82 % 13.81 C
Sensor: Nr:Datum:Temp:Feuchte:Taupunkt:
Aussen-T/F 1751 06-08-2019 01:50:00 16.9 C 82 % 13.81 C
1752 06-08-2019 01:55:00 16.9 C 82 % 13.81 C
1753 06-08-2019 02:00:00 16.8 C 82 % 13.71 C
1754 06-08-2019 02:05:00 16.7 C 83 % 13.8 C
1755 06-08-2019 02:10:00 16.7 C 83 % 13.8 C
1756 06-08-2019 02:15:00 16.7 C 83 % 13.8 C
1757 06-08-2019 02:20:00 16.7 C 84 % 13.98 C
1758 06-08-2019 02:25:00 16.8 C 84 % 14.08 C
1759 06-08-2019 02:30:00 17 C 83 % 14.09 C
1760 06-08-2019 02:35:00 17.2 C 83 % 14.29 C
1761 06-08-2019 02:40:00 17.3 C 82 % 14.2 C
1762 06-08-2019 02:45:00 17.4 C 82 % 14.3 C
1763 06-08-2019 02:50:00 17.4 C 83 % 14.48 C
1764 06-08-2019 02:55:00 17.4 C 83 % 14.48 C
1765 06-08-2019 03:00:00 17.4 C 83 % 14.48 C
1766 06-08-2019 03:05:00 17.4 C 83 % 14.48 C
1767 06-08-2019 03:10:00 17.5 C 83 % 14.58 C
1768 06-08-2019 03:15:00 17.5 C 83 % 14.58 C
1769 06-08-2019 03:20:00 17.5 C 83 % 14.58 C
1770 06-08-2019 03:25:00 17.5 C 83 % 14.58 C
1771 06-08-2019 03:30:00 17.4 C 83 % 14.48 C
1772 06-08-2019 03:35:00 17.4 C 83 % 14.48 C
1773 06-08-2019 03:40:00 17.4 C 84 % 14.67 C
1774 06-08-2019 03:45:00 17.4 C 83 % 14.48 C
1775 06-08-2019 03:50:00 17.5 C 83 % 14.58 C
Sensor: Nr:Datum:Temp:Feuchte:Taupunkt:
Aussen-T/F 1776 06-08-2019 03:55:00 17.6 C 83 % 14.68 C
1777 06-08-2019 04:00:00 17.6 C 83 % 14.68 C
1778 06-08-2019 04:05:00 17.5 C 83 % 14.58 C
1779 06-08-2019 04:10:00 17.5 C 83 % 14.58 C
1780 06-08-2019 04:15:00 17.4 C 84 % 14.67 C
1781 06-08-2019 04:20:00 17.3 C 84 % 14.57 C
1782 06-08-2019 04:25:00 17.3 C 83 % 14.39 C
1783 06-08-2019 04:30:00 17.2 C 83 % 14.29 C
1784 06-08-2019 04:35:00 17.1 C 84 % 14.38 C
1785 06-08-2019 04:40:00 16.9 C 84 % 14.18 C
1786 06-08-2019 04:45:00 16.9 C 85 % 14.36 C
1787 06-08-2019 04:50:00 16.9 C 85 % 14.36 C
1788 06-08-2019 04:55:00 16.9 C 85 % 14.36 C
1789 06-08-2019 05:00:00 16.8 C 85 % 14.26 C
1790 06-08-2019 05:05:00 16.8 C 85 % 14.26 C
1791 06-08-2019 05:10:00 16.7 C 85 % 14.17 C
1792 06-08-2019 05:15:00 16.6 C 85 % 14.07 C
1793 06-08-2019 05:20:00 16.6 C 86 % 14.25 C
1794 06-08-2019 05:25:00 16.6 C 86 % 14.25 C
1795 06-08-2019 05:30:00 16.6 C 86 % 14.25 C
1796 06-08-2019 05:35:00 16.6 C 86 % 14.25 C
1797 06-08-2019 05:40:00 16.6 C 86 % 14.25 C
1798 06-08-2019 05:45:00 16.5 C 86 % 14.15 C
1799 06-08-2019 05:50:00 16.5 C 86 % 14.15 C
1800 06-08-2019 05:55:00 16.4 C 86 % 14.05 C
Sensor: Nr:Datum:Temp:Feuchte:Taupunkt:
Aussen-T/F 1801 06-08-2019 06:00:00 16.3 C 86 % 13.95 C
1802 06-08-2019 06:05:00 16.3 C 87 % 14.13 C
1803 06-08-2019 06:10:00 16.3 C 87 % 14.13 C
1804 06-08-2019 06:15:00 16.4 C 87 % 14.23 C
1805 06-08-2019 06:20:00 16.5 C 87 % 14.33 C
1806 06-08-2019 06:25:00 16.6 C 87 % 14.43 C
1807 06-08-2019 06:30:00 16.7 C 87 % 14.53 C
1808 06-08-2019 06:35:00 16.8 C 87 % 14.62 C
1809 06-08-2019 06:40:00 16.9 C 86 % 14.54 C
1810 06-08-2019 06:45:00 17 C 86 % 14.64 C
1811 06-08-2019 06:50:00 17.1 C 86 % 14.74 C
1812 06-08-2019 06:55:00 17.1 C 86 % 14.74 C
1813 06-08-2019 07:00:00 17.2 C 86 % 14.84 C
1814 06-08-2019 07:05:00 17.3 C 85 % 14.76 C
1815 06-08-2019 07:10:00 17.5 C 84 % 14.77 C
1816 06-08-2019 07:15:00 17.7 C 83 % 14.78 C
1817 06-08-2019 07:20:00 17.8 C 83 % 14.88 C
1818 06-08-2019 07:25:00 17.8 C 83 % 14.88 C
1819 06-08-2019 07:30:00 17.9 C 83 % 14.97 C
1820 06-08-2019 07:35:00 18 C 83 % 15.07 C
1821 06-08-2019 07:40:00 18.1 C 83 % 15.17 C
1822 06-08-2019 07:45:00 18.2 C 82 % 15.08 C
1823 06-08-2019 07:50:00 18.2 C 82 % 15.08 C
1824 06-08-2019 07:55:00 18.3 C 82 % 15.17 C
1825 06-08-2019 08:00:00 18.3 C 82 % 15.17 C
Sensor: Nr:Datum:Temp:Feuchte:Taupunkt:
Aussen-T/F 1826 06-08-2019 08:05:00 18.4 C 82 % 15.27 C
1827 06-08-2019 08:10:00 18.4 C 81 % 15.08 C
1828 06-08-2019 08:15:00 18.5 C 81 % 15.18 C
1829 06-08-2019 08:20:00 18.6 C 81 % 15.28 C
1830 06-08-2019 08:25:00 18.6 C 81 % 15.28 C
1831 06-08-2019 08:30:00 18.7 C 81 % 15.37 C
1832 06-08-2019 08:35:00 18.8 C 81 % 15.47 C
1833 06-08-2019 08:40:00 18.8 C 81 % 15.47 C
1834 06-08-2019 08:45:00 18.9 C 81 % 15.57 C
1835 06-08-2019 08:50:00 19 C 81 % 15.67 C
1836 06-08-2019 08:55:00 19.1 C 80 % 15.57 C
1837 06-08-2019 09:00:00 19.3 C 79 % 15.57 C
1838 06-08-2019 09:05:00 19.4 C 79 % 15.66 C
1839 06-08-2019 09:10:00 19.7 C 78 % 15.76 C
1840 06-08-2019 09:15:00 19.8 C 77 % 15.65 C
1841 06-08-2019 09:20:00 19.9 C 76 % 15.54 C
1842 06-08-2019 09:25:00 20.1 C 77 % 15.94 C
1843 06-08-2019 09:30:00 20.1 C 77 % 15.94 C
1844 06-08-2019 09:35:00 20.3 C 76 % 15.93 C
1845 06-08-2019 09:40:00 20.4 C 76 % 16.03 C
1846 06-08-2019 09:45:00 20.6 C 75 % 16.01 C
1847 06-08-2019 09:50:00 20.8 C 74 % 16 C
1848 06-08-2019 09:55:00 20.8 C 74 % 16 C
1849 06-08-2019 10:00:00 20.8 C 73 % 15.78 C
1850 06-08-2019 10:05:00 20.7 C 77 % 16.52 C
Sensor: Nr:Datum:Temp:Feuchte:Taupunkt:
Aussen-T/F 1851 06-08-2019 10:10:00 20.6 C 80 % 17.03 C
1852 06-08-2019 10:15:00 20.4 C 81 % 17.03 C
1853 06-08-2019 10:20:00 20.2 C 83 % 17.22 C
1854 06-08-2019 10:25:00 19.9 C 84 % 17.12 C
1855 06-08-2019 10:30:00 19.7 C 86 % 17.29 C
1856 06-08-2019 10:35:00 19.6 C 87 % 17.38 C
1857 06-08-2019 10:40:00 19.4 C 88 % 17.36 C
1858 06-08-2019 10:45:00 19.3 C 88 % 17.26 C
1859 06-08-2019 10:50:00 19.2 C 89 % 17.34 C
1860 06-08-2019 10:55:00 19.2 C 89 % 17.34 C
1861 06-08-2019 11:00:00 19.2 C 89 % 17.34 C
1862 06-08-2019 11:05:00 19.2 C 89 % 17.34 C
1863 06-08-2019 11:10:00 19.2 C 89 % 17.34 C
1864 06-08-2019 11:15:00 19.3 C 90 % 17.62 C
1865 06-08-2019 11:20:00 19.4 C 90 % 17.72 C
1866 06-08-2019 11:25:00 19.6 C 90 % 17.91 C
1867 06-08-2019 11:30:00 19.6 C 90 % 17.91 C
1868 06-08-2019 11:35:00 19.7 C 89 % 17.84 C
1869 06-08-2019 11:40:00 19.9 C 89 % 18.03 C
1870 06-08-2019 11:45:00 20.1 C 89 % 18.23 C
1871 06-08-2019 11:50:00 20.2 C 88 % 18.15 C
1872 06-08-2019 11:55:00 20.4 C 88 % 18.34 C
1873 06-08-2019 12:00:00 20.6 C 87 % 18.36 C
1874 06-08-2019 12:05:00 20.7 C 86 % 18.27 C
1875 06-08-2019 12:10:00 20.8 C 87 % 18.56 C
Sensor: Nr:Datum:Temp:Feuchte:Taupunkt:
Aussen-T/F 1876 06-08-2019 12:15:00 21 C 84 % 18.19 C
1877 06-08-2019 12:20:00 21.2 C 83 % 18.2 C
1878 06-08-2019 12:25:00 21.3 C 82 % 18.1 C
1879 06-08-2019 12:30:00 21.4 C 80 % 17.81 C
1880 06-08-2019 12:35:00 21.6 C 80 % 18 C
1881 06-08-2019 12:40:00 21.7 C 80 % 18.1 C
1882 06-08-2019 12:45:00 21.8 C 80 % 18.2 C
1883 06-08-2019 12:50:00 21.8 C 79 % 18 C
1884 06-08-2019 12:55:00 21.9 C 79 % 18.09 C
1885 06-08-2019 13:00:00 21.9 C 78 % 17.89 C
1886 06-08-2019 13:05:00 22 C 78 % 17.99 C
1887 06-08-2019 13:10:00 22.1 C 78 % 18.08 C
1888 06-08-2019 13:15:00 22.2 C 79 % 18.38 C
1889 06-08-2019 13:20:00 22.3 C 79 % 18.48 C
1890 06-08-2019 13:25:00 22.3 C 78 % 18.28 C
1891 06-08-2019 13:30:00 22.3 C 77 % 18.07 C
1892 06-08-2019 13:35:00 22.3 C 79 % 18.48 C
1893 06-08-2019 13:40:00 22.4 C 76 % 17.96 C
1894 06-08-2019 13:45:00 22.6 C 77 % 18.36 C
1895 06-08-2019 13:50:00 22.7 C 76 % 18.25 C
1896 06-08-2019 13:55:00 22.8 C 74 % 17.92 C
1897 06-08-2019 14:00:00 23.1 C 73 % 17.99 C
1898 06-08-2019 14:05:00 23.2 C 72 % 17.87 C
1899 06-08-2019 14:10:00 23.2 C 72 % 17.87 C
1900 06-08-2019 14:15:00 23.3 C 71 % 17.75 C
Sensor: Nr:Datum:Temp:Feuchte:Taupunkt:
Aussen-T/F 1901 06-08-2019 14:20:00 23.4 C 71 % 17.84 C
1902 06-08-2019 14:25:00 23.5 C 69 % 17.48 C
1903 06-08-2019 14:30:00 23.6 C 68 % 17.35 C
1904 06-08-2019 14:35:00 23.7 C 70 % 17.9 C
1905 06-08-2019 14:40:00 23.9 C 69 % 17.87 C
1906 06-08-2019 14:45:00 24.1 C 68 % 17.82 C
1907 06-08-2019 14:50:00 24.2 C 67 % 17.68 C
1908 06-08-2019 14:55:00 24.2 C 68 % 17.92 C
1909 06-08-2019 15:00:00 24.3 C 65 % 17.3 C
1910 06-08-2019 15:05:00 24.4 C 65 % 17.39 C
1911 06-08-2019 15:10:00 24.5 C 65 % 17.49 C
1912 06-08-2019 15:15:00 24.4 C 67 % 17.87 C
1913 06-08-2019 15:20:00 24.6 C 66 % 17.83 C
1914 06-08-2019 15:25:00 24.8 C 66 % 18.01 C
1915 06-08-2019 15:30:00 24.8 C 65 % 17.77 C
1916 06-08-2019 15:35:00 24.9 C 65 % 17.87 C
1917 06-08-2019 15:40:00 25 C 63 % 17.47 C
1918 06-08-2019 15:45:00 25 C 63 % 17.47 C
1919 06-08-2019 15:50:00 24.9 C 64 % 17.62 C
1920 06-08-2019 15:55:00 25.1 C 63 % 17.56 C
1921 06-08-2019 16:00:00 25.2 C 63 % 17.65 C
1922 06-08-2019 16:05:00 25.2 C 63 % 17.65 C
1923 06-08-2019 16:10:00 25.3 C 63 % 17.75 C
1924 06-08-2019 16:15:00 25.4 C 62 % 17.59 C
1925 06-08-2019 16:20:00 25.2 C 63 % 17.65 C
Sensor: Nr:Datum:Temp:Feuchte:Taupunkt:
Aussen-T/F 1926 06-08-2019 16:25:00 25.3 C 62 % 17.5 C
1927 06-08-2019 16:30:00 25.4 C 62 % 17.59 C
1928 06-08-2019 16:35:00 25.4 C 62 % 17.59 C
1929 06-08-2019 16:40:00 25.4 C 62 % 17.59 C
1930 06-08-2019 16:45:00 25.4 C 61 % 17.33 C
1931 06-08-2019 16:50:00 25.6 C 61 % 17.52 C
1932 06-08-2019 16:55:00 25.9 C 59 % 17.27 C
1933 06-08-2019 17:00:00 26.2 C 59 % 17.55 C
1934 06-08-2019 17:05:00 26.4 C 58 % 17.47 C
1935 06-08-2019 17:10:00 26.4 C 59 % 17.74 C
1936 06-08-2019 17:15:00 26.6 C 57 % 17.38 C
1937 06-08-2019 17:20:00 26.8 C 57 % 17.57 C
1938 06-08-2019 17:25:00 26.8 C 57 % 17.57 C
1939 06-08-2019 17:30:00 26.7 C 56 % 17.19 C
1940 06-08-2019 17:35:00 26.4 C 55 % 16.63 C
1941 06-08-2019 17:40:00 26.1 C 58 % 17.19 C
1942 06-08-2019 17:45:00 26 C 58 % 17.1 C
1943 06-08-2019 17:50:00 26.2 C 59 % 17.55 C
1944 06-08-2019 17:55:00 26.2 C 57 % 17.01 C
1945 06-08-2019 18:00:00 26.2 C 58 % 17.28 C
1946 06-08-2019 18:05:00 26 C 58 % 17.1 C
1947 06-08-2019 18:10:00 25.7 C 59 % 17.09 C
1948 06-08-2019 18:15:00 25.4 C 60 % 17.07 C
1949 06-08-2019 18:20:00 25.3 C 61 % 17.24 C
1950 06-08-2019 18:25:00 25.2 C 60 % 16.88 C
Sensor: Nr:Datum:Temp:Feuchte:Taupunkt:
Aussen-T/F 1951 06-08-2019 18:30:00 25.1 C 62 % 17.31 C
1952 06-08-2019 18:35:00 24.9 C 61 % 16.86 C
1953 06-08-2019 18:40:00 24.8 C 62 % 17.02 C
1954 06-08-2019 18:45:00 24.7 C 65 % 17.68 C
1955 06-08-2019 18:50:00 24.7 C 68 % 18.4 C
1956 06-08-2019 18:55:00 24.5 C 68 % 18.2 C
1957 06-08-2019 19:00:00 24.3 C 70 % 18.48 C
1958 06-08-2019 19:05:00 23.9 C 70 % 18.09 C
1959 06-08-2019 19:10:00 23.7 C 72 % 18.35 C
1960 06-08-2019 19:15:00 23.4 C 73 % 18.28 C
1961 06-08-2019 19:20:00 23.1 C 74 % 18.21 C
1962 06-08-2019 19:25:00 22.8 C 75 % 18.14 C
1963 06-08-2019 19:30:00 22.5 C 75 % 17.85 C
1964 06-08-2019 19:35:00 22.3 C 77 % 18.07 C
1965 06-08-2019 19:40:00 22 C 81 % 18.59 C
1966 06-08-2019 19:45:00 21.4 C 82 % 18.2 C
1967 06-08-2019 19:50:00 20.8 C 85 % 18.18 C
1968 06-08-2019 19:55:00 20.3 C 87 % 18.06 C
1969 06-08-2019 20:00:00 20 C 89 % 18.13 C
1970 06-08-2019 20:05:00 19.8 C 89 % 17.93 C
1971 06-08-2019 20:10:00 19.7 C 89 % 17.84 C
1972 06-08-2019 20:15:00 19.4 C 90 % 17.72 C
1973 06-08-2019 20:20:00 19.2 C 89 % 17.34 C
1974 06-08-2019 20:25:00 19 C 90 % 17.32 C
1975 06-08-2019 20:30:00 18.8 C 91 % 17.3 C
Sensor: Nr:Datum:Temp:Feuchte:Taupunkt:
Aussen-T/F 1976 06-08-2019 20:35:00 18.7 C 91 % 17.2 C
1977 06-08-2019 20:40:00 18.7 C 91 % 17.2 C
1978 06-08-2019 20:45:00 18.6 C 92 % 17.27 C
1979 06-08-2019 20:50:00 18.4 C 92 % 17.08 C
1980 06-08-2019 20:55:00 18.3 C 92 % 16.98 C
1981 06-08-2019 21:00:00 18.2 C 92 % 16.88 C
1982 06-08-2019 21:05:00 18.2 C 93 % 17.05 C
1983 06-08-2019 21:10:00 18.2 C 93 % 17.05 C
1984 06-08-2019 21:15:00 18.1 C 93 % 16.95 C
1985 06-08-2019 21:20:00 18.1 C 93 % 16.95 C
1986 06-08-2019 21:25:00 18 C 93 % 16.85 C
1987 06-08-2019 21:30:00 18 C 93 % 16.85 C
1988 06-08-2019 21:35:00 18 C 93 % 16.85 C
1989 06-08-2019 21:40:00 17.9 C 93 % 16.75 C
1990 06-08-2019 21:45:00 17.9 C 94 % 16.92 C
1991 06-08-2019 21:50:00 17.8 C 94 % 16.82 C
1992 06-08-2019 21:55:00 17.7 C 94 % 16.72 C
1993 06-08-2019 22:00:00 17.7 C 94 % 16.72 C
1994 06-08-2019 22:05:00 17.7 C 94 % 16.72 C
1995 06-08-2019 22:10:00 17.7 C 94 % 16.72 C
1996 06-08-2019 22:15:00 17.6 C 94 % 16.62 C
1997 06-08-2019 22:20:00 17.6 C 94 % 16.62 C
1998 06-08-2019 22:25:00 17.6 C 94 % 16.62 C
1999 06-08-2019 22:30:00 17.5 C 94 % 16.52 C
2000 06-08-2019 22:35:00 17.4 C 94 % 16.42 C
Sensor: Nr:Datum:Temp:Feuchte:Taupunkt:
Aussen-T/F 2001 06-08-2019 22:40:00 17.4 C 94 % 16.42 C
2002 06-08-2019 22:45:00 17.4 C 94 % 16.42 C
2003 06-08-2019 22:50:00 17.3 C 94 % 16.33 C
2004 06-08-2019 22:55:00 17.3 C 94 % 16.33 C
2005 06-08-2019 23:00:00 17.3 C 94 % 16.33 C
2006 06-08-2019 23:05:00 17.2 C 95 % 16.39 C
2007 06-08-2019 23:10:00 17.2 C 95 % 16.39 C
2008 06-08-2019 23:15:00 17.2 C 95 % 16.39 C
2009 06-08-2019 23:20:00 17.2 C 95 % 16.39 C
2010 06-08-2019 23:25:00 17.1 C 95 % 16.29 C
2011 06-08-2019 23:30:00 17.1 C 95 % 16.29 C
2012 06-08-2019 23:35:00 17 C 95 % 16.19 C
2013 06-08-2019 23:40:00 17 C 95 % 16.19 C
2014 06-08-2019 23:45:00 16.9 C 95 % 16.09 C
2015 06-08-2019 23:50:00 16.9 C 95 % 16.09 C
2016 06-08-2019 23:55:00 16.9 C 95 % 16.09 C
2017 07-08-2019 00:00:00 16.8 C 95 % 15.99 C
2018 07-08-2019 00:05:00 16.7 C 95 % 15.9 C
2019 07-08-2019 00:10:00 16.7 C 95 % 15.9 C
2020 07-08-2019 00:15:00 16.6 C 95 % 15.8 C
2021 07-08-2019 00:20:00 16.6 C 95 % 15.8 C
2022 07-08-2019 00:25:00 16.7 C 95 % 15.9 C
2023 07-08-2019 00:30:00 16.7 C 95 % 15.9 C
2024 07-08-2019 00:35:00 16.7 C 95 % 15.9 C
2025 07-08-2019 00:40:00 16.7 C 95 % 15.9 C
Sensor: Nr:Datum:Temp:Feuchte:Taupunkt:
Aussen-T/F 2026 07-08-2019 00:45:00 16.7 C 95 % 15.9 C
2027 07-08-2019 00:50:00 16.7 C 95 % 15.9 C
2028 07-08-2019 00:55:00 16.6 C 95 % 15.8 C
2029 07-08-2019 01:00:00 16.5 C 95 % 15.7 C
2030 07-08-2019 01:05:00 16.4 C 95 % 15.6 C
2031 07-08-2019 01:10:00 16.3 C 95 % 15.5 C
2032 07-08-2019 01:15:00 16.3 C 95 % 15.5 C
2033 07-08-2019 01:20:00 16.2 C 95 % 15.4 C
2034 07-08-2019 01:25:00 16.2 C 95 % 15.4 C
2035 07-08-2019 01:30:00 16.2 C 96 % 15.56 C
2036 07-08-2019 01:35:00 16.2 C 96 % 15.56 C
2037 07-08-2019 01:40:00 16.3 C 96 % 15.66 C
2038 07-08-2019 01:45:00 16.3 C 96 % 15.66 C
2039 07-08-2019 01:50:00 16.3 C 96 % 15.66 C
2040 07-08-2019 01:55:00 16.4 C 96 % 15.76 C
2041 07-08-2019 02:00:00 16.4 C 96 % 15.76 C
2042 07-08-2019 02:05:00 16.5 C 96 % 15.86 C
2043 07-08-2019 02:10:00 16.5 C 96 % 15.86 C
2044 07-08-2019 02:15:00 16.5 C 96 % 15.86 C
2045 07-08-2019 02:20:00 16.5 C 96 % 15.86 C
2046 07-08-2019 02:25:00 16.5 C 96 % 15.86 C
2047 07-08-2019 02:30:00 16.5 C 96 % 15.86 C
2048 07-08-2019 02:35:00 16.5 C 96 % 15.86 C
2049 07-08-2019 02:40:00 16.4 C 96 % 15.76 C
2050 07-08-2019 02:45:00 16.4 C 96 % 15.76 C
Sensor: Nr:Datum:Temp:Feuchte:Taupunkt:
Aussen-T/F 2051 07-08-2019 02:50:00 16.4 C 96 % 15.76 C
2052 07-08-2019 02:55:00 16.4 C 96 % 15.76 C
2053 07-08-2019 03:00:00 16.5 C 96 % 15.86 C
2054 07-08-2019 03:05:00 16.5 C 96 % 15.86 C
2055 07-08-2019 03:10:00 16.6 C 96 % 15.96 C
2056 07-08-2019 03:15:00 16.6 C 96 % 15.96 C
2057 07-08-2019 03:20:00 16.6 C 97 % 16.12 C
2058 07-08-2019 03:25:00 16.6 C 97 % 16.12 C
2059 07-08-2019 03:30:00 16.6 C 97 % 16.12 C
2060 07-08-2019 03:35:00 16.6 C 96 % 15.96 C
2061 07-08-2019 03:40:00 16.6 C 96 % 15.96 C
2062 07-08-2019 03:45:00 16.6 C 96 % 15.96 C
2063 07-08-2019 03:50:00 16.6 C 96 % 15.96 C
2064 07-08-2019 03:55:00 16.6 C 96 % 15.96 C
2065 07-08-2019 04:00:00 16.6 C 97 % 16.12 C
2066 07-08-2019 04:05:00 16.6 C 97 % 16.12 C
2067 07-08-2019 04:10:00 16.6 C 97 % 16.12 C
2068 07-08-2019 04:15:00 16.6 C 97 % 16.12 C
2069 07-08-2019 04:20:00 16.6 C 97 % 16.12 C
2070 07-08-2019 04:25:00 16.6 C 97 % 16.12 C
2071 07-08-2019 04:30:00 16.7 C 97 % 16.22 C
2072 07-08-2019 04:35:00 16.6 C 97 % 16.12 C
2073 07-08-2019 04:40:00 16.7 C 97 % 16.22 C
2074 07-08-2019 04:45:00 16.7 C 97 % 16.22 C
2075 07-08-2019 04:50:00 16.7 C 97 % 16.22 C
Sensor: Nr:Datum:Temp:Feuchte:Taupunkt:
Aussen-T/F 2076 07-08-2019 04:55:00 16.6 C 97 % 16.12 C
2077 07-08-2019 05:00:00 16.6 C 97 % 16.12 C
2078 07-08-2019 05:05:00 16.6 C 97 % 16.12 C
2079 07-08-2019 05:10:00 16.7 C 97 % 16.22 C
2080 07-08-2019 05:15:00 16.6 C 97 % 16.12 C
2081 07-08-2019 05:20:00 16.6 C 97 % 16.12 C
2082 07-08-2019 05:25:00 16.7 C 97 % 16.22 C
2083 07-08-2019 05:30:00 16.7 C 97 % 16.22 C
2084 07-08-2019 05:35:00 16.7 C 97 % 16.22 C
2085 07-08-2019 05:40:00 16.7 C 97 % 16.22 C
2086 07-08-2019 05:45:00 16.7 C 97 % 16.22 C
2087 07-08-2019 05:50:00 16.7 C 97 % 16.22 C
2088 07-08-2019 05:55:00 16.7 C 97 % 16.22 C
2089 07-08-2019 06:00:00 16.7 C 97 % 16.22 C
2090 07-08-2019 06:05:00 16.8 C 97 % 16.32 C
2091 07-08-2019 06:10:00 16.8 C 97 % 16.32 C
2092 07-08-2019 06:15:00 16.8 C 97 % 16.32 C
2093 07-08-2019 06:20:00 16.8 C 97 % 16.32 C
2094 07-08-2019 06:25:00 16.8 C 97 % 16.32 C
2095 07-08-2019 06:30:00 16.9 C 97 % 16.42 C
2096 07-08-2019 06:35:00 16.9 C 97 % 16.42 C
2097 07-08-2019 06:40:00 16.9 C 97 % 16.42 C
2098 07-08-2019 06:45:00 17 C 97 % 16.52 C
2099 07-08-2019 06:50:00 17 C 97 % 16.52 C
2100 07-08-2019 06:55:00 17.1 C 97 % 16.62 C
Sensor: Nr:Datum:Temp:Feuchte:Taupunkt:
Aussen-T/F 2101 07-08-2019 07:00:00 17.1 C 97 % 16.62 C
2102 07-08-2019 07:05:00 17.1 C 97 % 16.62 C
2103 07-08-2019 07:10:00 17.1 C 97 % 16.62 C
2104 07-08-2019 07:15:00 17.2 C 97 % 16.72 C
2105 07-08-2019 07:20:00 17.2 C 97 % 16.72 C
2106 07-08-2019 07:25:00 17.2 C 97 % 16.72 C
2107 07-08-2019 07:30:00 17.3 C 97 % 16.82 C
2108 07-08-2019 07:35:00 17.3 C 97 % 16.82 C
2109 07-08-2019 07:40:00 17.3 C 97 % 16.82 C
2110 07-08-2019 07:45:00 17.4 C 97 % 16.92 C
2111 07-08-2019 07:50:00 17.4 C 97 % 16.92 C
2112 07-08-2019 07:55:00 17.4 C 97 % 16.92 C
2113 07-08-2019 08:00:00 17.4 C 97 % 16.92 C
2114 07-08-2019 08:05:00 17.4 C 97 % 16.92 C
2115 07-08-2019 08:10:00 17.5 C 97 % 17.02 C
2116 07-08-2019 08:15:00 17.6 C 97 % 17.12 C
2117 07-08-2019 08:20:00 17.6 C 97 % 17.12 C
2118 07-08-2019 08:25:00 17.7 C 97 % 17.22 C
2119 07-08-2019 08:30:00 17.8 C 97 % 17.32 C
2120 07-08-2019 08:35:00 17.9 C 97 % 17.42 C
2121 07-08-2019 08:40:00 17.9 C 97 % 17.42 C
2122 07-08-2019 08:45:00 18.1 C 97 % 17.62 C
2123 07-08-2019 08:50:00 18.1 C 97 % 17.62 C
2124 07-08-2019 08:55:00 18.1 C 97 % 17.62 C
2125 07-08-2019 09:00:00 18.1 C 97 % 17.62 C
Sensor: Nr:Datum:Temp:Feuchte:Taupunkt:
Aussen-T/F 2126 07-08-2019 09:05:00 18.1 C 97 % 17.62 C
2127 07-08-2019 09:10:00 18 C 97 % 17.52 C
2128 07-08-2019 09:15:00 18 C 97 % 17.52 C
2129 07-08-2019 09:20:00 18.1 C 97 % 17.62 C
2130 07-08-2019 09:25:00 18.2 C 97 % 17.72 C
2131 07-08-2019 09:30:00 18.3 C 97 % 17.82 C
2132 07-08-2019 09:35:00 18.3 C 97 % 17.82 C
2133 07-08-2019 09:40:00 18.3 C 97 % 17.82 C
2134 07-08-2019 09:45:00 18.4 C 97 % 17.91 C
2135 07-08-2019 09:50:00 18.6 C 97 % 18.11 C
2136 07-08-2019 09:55:00 18.6 C 97 % 18.11 C
2137 07-08-2019 10:00:00 18.6 C 97 % 18.11 C
2138 07-08-2019 10:05:00 18.7 C 97 % 18.21 C
2139 07-08-2019 10:10:00 18.8 C 97 % 18.31 C
2140 07-08-2019 10:15:00 19 C 97 % 18.51 C
2141 07-08-2019 10:20:00 18.8 C 96 % 18.15 C
2142 07-08-2019 10:25:00 18.8 C 96 % 18.15 C
2143 07-08-2019 10:30:00 18.9 C 96 % 18.25 C
2144 07-08-2019 10:35:00 19.1 C 96 % 18.45 C
2145 07-08-2019 10:40:00 19.2 C 97 % 18.71 C
2146 07-08-2019 10:45:00 19.2 C 96 % 18.55 C
2147 07-08-2019 10:50:00 19.3 C 96 % 18.65 C
2148 07-08-2019 10:55:00 19.2 C 96 % 18.55 C
2149 07-08-2019 11:00:00 19.3 C 96 % 18.65 C
2150 07-08-2019 11:05:00 19.5 C 96 % 18.84 C
Sensor: Nr:Datum:Temp:Feuchte:Taupunkt:
Aussen-T/F 2151 07-08-2019 11:10:00 19.5 C 95 % 18.68 C
2152 07-08-2019 11:15:00 19.6 C 95 % 18.78 C
2153 07-08-2019 11:20:00 19.6 C 94 % 18.61 C
2154 07-08-2019 11:25:00 19.6 C 94 % 18.61 C
2155 07-08-2019 11:30:00 19.8 C 94 % 18.81 C
2156 07-08-2019 11:35:00 19.8 C 92 % 18.46 C
2157 07-08-2019 11:40:00 19.8 C 90 % 18.11 C
2158 07-08-2019 11:45:00 19.9 C 92 % 18.56 C
2159 07-08-2019 11:50:00 20.1 C 91 % 18.58 C
2160 07-08-2019 11:55:00 20.2 C 88 % 18.15 C
2161 07-08-2019 12:00:00 20.3 C 90 % 18.61 C
2162 07-08-2019 12:05:00 20.3 C 85 % 17.7 C
2163 07-08-2019 12:10:00 20.4 C 86 % 17.98 C
2164 07-08-2019 12:15:00 20.6 C 86 % 18.18 C
2165 07-08-2019 12:20:00 20.8 C 88 % 18.74 C
2166 07-08-2019 12:25:00 20.9 C 86 % 18.47 C
2167 07-08-2019 12:30:00 20.8 C 81 % 17.42 C
2168 07-08-2019 12:35:00 20.9 C 84 % 18.09 C
2169 07-08-2019 12:40:00 21.1 C 82 % 17.91 C
2170 07-08-2019 12:45:00 21.2 C 81 % 17.81 C
2171 07-08-2019 12:50:00 21.3 C 83 % 18.29 C
2172 07-08-2019 12:55:00 21.4 C 82 % 18.2 C
2173 07-08-2019 13:00:00 21.5 C 83 % 18.49 C
2174 07-08-2019 13:05:00 21.5 C 79 % 17.7 C
2175 07-08-2019 13:10:00 21.6 C 78 % 17.6 C
Sensor: Nr:Datum:Temp:Feuchte:Taupunkt:
Aussen-T/F 2176 07-08-2019 13:15:00 21.8 C 84 % 18.97 C
2177 07-08-2019 13:20:00 21.8 C 75 % 17.17 C
2178 07-08-2019 13:25:00 21.8 C 76 % 17.38 C
2179 07-08-2019 13:30:00 21.8 C 75 % 17.17 C
2180 07-08-2019 13:35:00 21.9 C 72 % 16.62 C
2181 07-08-2019 13:40:00 22 C 76 % 17.57 C
2182 07-08-2019 13:45:00 22.1 C 72 % 16.82 C
2183 07-08-2019 13:50:00 22.2 C 72 % 16.91 C
2184 07-08-2019 13:55:00 22.3 C 74 % 17.44 C
2185 07-08-2019 14:00:00 22.4 C 73 % 17.32 C
2186 07-08-2019 14:05:00 22.6 C 76 % 18.15 C
2187 07-08-2019 14:10:00 22.7 C 77 % 18.46 C
2188 07-08-2019 14:15:00 22.7 C 78 % 18.67 C
2189 07-08-2019 14:20:00 22.6 C 74 % 17.73 C
2190 07-08-2019 14:25:00 22.4 C 76 % 17.96 C
2191 07-08-2019 14:30:00 22.4 C 76 % 17.96 C
2192 07-08-2019 14:35:00 22.4 C 76 % 17.96 C
2193 07-08-2019 14:40:00 22.4 C 76 % 17.96 C
2194 07-08-2019 14:45:00 22.5 C 75 % 17.85 C
2195 07-08-2019 14:50:00 22.6 C 73 % 17.51 C
2196 07-08-2019 14:55:00 22.6 C 74 % 17.73 C
2197 07-08-2019 15:00:00 22.6 C 74 % 17.73 C
2198 07-08-2019 15:05:00 22.7 C 73 % 17.61 C
2199 07-08-2019 15:10:00 22.7 C 72 % 17.39 C
2200 07-08-2019 15:15:00 22.7 C 74 % 17.83 C
Sensor: Nr:Datum:Temp:Feuchte:Taupunkt:
Aussen-T/F 2201 07-08-2019 15:20:00 22.7 C 74 % 17.83 C
2202 07-08-2019 15:25:00 22.7 C 73 % 17.61 C
2203 07-08-2019 15:30:00 22.6 C 73 % 17.51 C
2204 07-08-2019 15:35:00 22.6 C 73 % 17.51 C
2205 07-08-2019 15:40:00 22.6 C 73 % 17.51 C
2206 07-08-2019 15:45:00 22.5 C 71 % 16.98 C
2207 07-08-2019 15:50:00 22.4 C 73 % 17.32 C
2208 07-08-2019 15:55:00 22.3 C 72 % 17.01 C
2209 07-08-2019 16:00:00 22.3 C 72 % 17.01 C
2210 07-08-2019 16:05:00 22.2 C 73 % 17.13 C
2211 07-08-2019 16:10:00 22.2 C 74 % 17.34 C
2212 07-08-2019 16:15:00 22.2 C 72 % 16.91 C
2213 07-08-2019 16:20:00 22.1 C 74 % 17.25 C
2214 07-08-2019 16:25:00 22 C 73 % 16.94 C
2215 07-08-2019 16:30:00 21.9 C 73 % 16.84 C
2216 07-08-2019 16:35:00 21.8 C 73 % 16.75 C
2217 07-08-2019 16:40:00 21.9 C 73 % 16.84 C
2218 07-08-2019 16:45:00 22.1 C 73 % 17.03 C
2219 07-08-2019 16:50:00 22.2 C 72 % 16.91 C
2220 07-08-2019 16:55:00 22.1 C 72 % 16.82 C
2221 07-08-2019 17:00:00 22.1 C 73 % 17.03 C
2222 07-08-2019 17:05:00 22 C 72 % 16.72 C
2223 07-08-2019 17:10:00 22 C 73 % 16.94 C
2224 07-08-2019 17:15:00 22.1 C 73 % 17.03 C
2225 07-08-2019 17:20:00 22.2 C 73 % 17.13 C
Sensor: Nr:Datum:Temp:Feuchte:Taupunkt:
Aussen-T/F 2226 07-08-2019 17:25:00 22.4 C 72 % 17.1 C
2227 07-08-2019 17:30:00 22.6 C 70 % 16.85 C
2228 07-08-2019 17:35:00 22.8 C 72 % 17.49 C
2229 07-08-2019 17:40:00 23.1 C 71 % 17.55 C
2230 07-08-2019 17:45:00 23.2 C 68 % 16.97 C
2231 07-08-2019 17:50:00 23.1 C 68 % 16.87 C
2232 07-08-2019 17:55:00 22.8 C 70 % 17.04 C
2233 07-08-2019 18:00:00 22.6 C 71 % 17.07 C
2234 07-08-2019 18:05:00 22.5 C 73 % 17.42 C
2235 07-08-2019 18:10:00 22.5 C 71 % 16.98 C
2236 07-08-2019 18:15:00 22.5 C 70 % 16.76 C
2237 07-08-2019 18:20:00 22.8 C 71 % 17.27 C
2238 07-08-2019 18:25:00 23.2 C 69 % 17.2 C
2239 07-08-2019 18:30:00 23.6 C 68 % 17.35 C
2240 07-08-2019 18:35:00 23.9 C 67 % 17.4 C
2241 07-08-2019 18:40:00 24.1 C 65 % 17.11 C
2242 07-08-2019 18:45:00 24.3 C 65 % 17.3 C
2243 07-08-2019 18:50:00 24.2 C 66 % 17.45 C
2244 07-08-2019 18:55:00 24.1 C 65 % 17.11 C
2245 07-08-2019 19:00:00 23.8 C 65 % 16.83 C
2246 07-08-2019 19:05:00 23.5 C 67 % 17.02 C
2247 07-08-2019 19:10:00 23.2 C 68 % 16.97 C
2248 07-08-2019 19:15:00 22.9 C 73 % 17.8 C
2249 07-08-2019 19:20:00 22.7 C 72 % 17.39 C
2250 07-08-2019 19:25:00 22.4 C 73 % 17.32 C
Sensor: Nr:Datum:Temp:Feuchte:Taupunkt:
Aussen-T/F 2251 07-08-2019 19:30:00 22.2 C 76 % 17.77 C
2252 07-08-2019 19:35:00 21.9 C 77 % 17.68 C
2253 07-08-2019 19:40:00 21.8 C 78 % 17.79 C
2254 07-08-2019 19:45:00 21.6 C 78 % 17.6 C
2255 07-08-2019 19:50:00 21.4 C 79 % 17.61 C
2256 07-08-2019 19:55:00 21.2 C 79 % 17.41 C
2257 07-08-2019 20:00:00 21.1 C 80 % 17.51 C
2258 07-08-2019 20:05:00 20.8 C 81 % 17.42 C
2259 07-08-2019 20:10:00 20.7 C 82 % 17.52 C
2260 07-08-2019 20:15:00 20.4 C 83 % 17.42 C
2261 07-08-2019 20:20:00 20.3 C 83 % 17.32 C
2262 07-08-2019 20:25:00 20.1 C 84 % 17.31 C
2263 07-08-2019 20:30:00 19.9 C 84 % 17.12 C
2264 07-08-2019 20:35:00 19.8 C 84 % 17.02 C
2265 07-08-2019 20:40:00 19.7 C 85 % 17.11 C
2266 07-08-2019 20:45:00 19.4 C 85 % 16.81 C
2267 07-08-2019 20:50:00 19.3 C 85 % 16.72 C
2268 07-08-2019 20:55:00 19.2 C 86 % 16.8 C
2269 07-08-2019 21:00:00 19.1 C 86 % 16.7 C
2270 07-08-2019 21:05:00 18.9 C 87 % 16.69 C
2271 07-08-2019 21:10:00 18.8 C 86 % 16.41 C
2272 07-08-2019 21:15:00 18.6 C 86 % 16.21 C
2273 07-08-2019 21:20:00 18.3 C 86 % 15.92 C
2274 07-08-2019 21:25:00 18.1 C 86 % 15.72 C
2275 07-08-2019 21:30:00 17.9 C 87 % 15.71 C
Sensor: Nr:Datum:Temp:Feuchte:Taupunkt:
Aussen-T/F 2276 07-08-2019 21:35:00 17.7 C 87 % 15.51 C
2277 07-08-2019 21:40:00 17.5 C 87 % 15.31 C
2278 07-08-2019 21:45:00 17.3 C 87 % 15.12 C
2279 07-08-2019 21:50:00 17.3 C 88 % 15.29 C
2280 07-08-2019 21:55:00 17.1 C 88 % 15.1 C
2281 07-08-2019 22:00:00 17.1 C 89 % 15.27 C
2282 07-08-2019 22:05:00 17 C 89 % 15.17 C
2283 07-08-2019 22:10:00 16.9 C 89 % 15.08 C
2284 07-08-2019 22:15:00 16.8 C 89 % 14.98 C
2285 07-08-2019 22:20:00 16.7 C 89 % 14.88 C
2286 07-08-2019 22:25:00 16.7 C 90 % 15.05 C
2287 07-08-2019 22:30:00 16.7 C 90 % 15.05 C
2288 07-08-2019 22:35:00 16.6 C 90 % 14.95 C
2289 07-08-2019 22:40:00 16.6 C 90 % 14.95 C
2290 07-08-2019 22:45:00 16.6 C 91 % 15.13 C
2291 07-08-2019 22:50:00 16.6 C 91 % 15.13 C
2292 07-08-2019 22:55:00 16.6 C 90 % 14.95 C
2293 07-08-2019 23:00:00 16.7 C 89 % 14.88 C
2294 07-08-2019 23:05:00 16.8 C 90 % 15.15 C
2295 07-08-2019 23:10:00 16.8 C 89 % 14.98 C
2296 07-08-2019 23:15:00 16.8 C 89 % 14.98 C
2297 07-08-2019 23:20:00 16.8 C 89 % 14.98 C
2298 07-08-2019 23:25:00 16.8 C 89 % 14.98 C
2299 07-08-2019 23:30:00 16.8 C 89 % 14.98 C
2300 07-08-2019 23:35:00 16.7 C 89 % 14.88 C
Sensor: Nr:Datum:Temp:Feuchte:Taupunkt:
Aussen-T/F 2301 07-08-2019 23:40:00 16.6 C 89 % 14.78 C
2302 07-08-2019 23:45:00 16.4 C 89 % 14.58 C
2303 07-08-2019 23:50:00 16.3 C 89 % 14.48 C
2304 07-08-2019 23:55:00 16.2 C 90 % 14.56 C
2305 08-08-2019 00:00:00 16.1 C 90 % 14.46 C
2306 08-08-2019 00:05:00 15.9 C 90 % 14.26 C
2307 08-08-2019 00:10:00 15.8 C 90 % 14.16 C
2308 08-08-2019 00:15:00 15.7 C 90 % 14.06 C
2309 08-08-2019 00:20:00 15.7 C 91 % 14.24 C
2310 08-08-2019 00:25:00 15.6 C 91 % 14.14 C
2311 08-08-2019 00:30:00 15.6 C 92 % 14.31 C
2312 08-08-2019 00:35:00 15.6 C 92 % 14.31 C
2313 08-08-2019 00:40:00 15.6 C 92 % 14.31 C
2314 08-08-2019 00:45:00 15.7 C 93 % 14.57 C
2315 08-08-2019 00:50:00 15.8 C 93 % 14.67 C
2316 08-08-2019 00:55:00 16.1 C 93 % 14.97 C
2317 08-08-2019 01:00:00 16.2 C 92 % 14.9 C
2318 08-08-2019 01:05:00 16.2 C 92 % 14.9 C
2319 08-08-2019 01:10:00 16.3 C 92 % 15 C
2320 08-08-2019 01:15:00 16.3 C 92 % 15 C
2321 08-08-2019 01:20:00 16.4 C 92 % 15.1 C
2322 08-08-2019 01:25:00 16.4 C 92 % 15.1 C
2323 08-08-2019 01:30:00 16.4 C 92 % 15.1 C
2324 08-08-2019 01:35:00 16.4 C 92 % 15.1 C
2325 08-08-2019 01:40:00 16.4 C 92 % 15.1 C
Sensor: Nr:Datum:Temp:Feuchte:Taupunkt:
Aussen-T/F 2326 08-08-2019 01:45:00 16.4 C 92 % 15.1 C
2327 08-08-2019 01:50:00 16.4 C 92 % 15.1 C
2328 08-08-2019 01:55:00 16.4 C 92 % 15.1 C
2329 08-08-2019 02:00:00 16.4 C 92 % 15.1 C
2330 08-08-2019 02:05:00 16.5 C 92 % 15.2 C
2331 08-08-2019 02:10:00 16.5 C 92 % 15.2 C
2332 08-08-2019 02:15:00 16.5 C 92 % 15.2 C
2333 08-08-2019 02:20:00 16.5 C 92 % 15.2 C
2334 08-08-2019 02:25:00 16.5 C 92 % 15.2 C
2335 08-08-2019 02:30:00 16.5 C 92 % 15.2 C
2336 08-08-2019 02:35:00 16.5 C 92 % 15.2 C
2337 08-08-2019 02:40:00 16.4 C 92 % 15.1 C
2338 08-08-2019 02:45:00 16.4 C 92 % 15.1 C
2339 08-08-2019 02:50:00 16.4 C 92 % 15.1 C
2340 08-08-2019 02:55:00 16.3 C 92 % 15 C
2341 08-08-2019 03:00:00 16.3 C 92 % 15 C
2342 08-08-2019 03:05:00 16.4 C 92 % 15.1 C
2343 08-08-2019 03:10:00 16.4 C 92 % 15.1 C
2344 08-08-2019 03:15:00 16.4 C 92 % 15.1 C
2345 08-08-2019 03:20:00 16.5 C 92 % 15.2 C
2346 08-08-2019 03:25:00 16.6 C 92 % 15.3 C
2347 08-08-2019 03:30:00 16.6 C 92 % 15.3 C
2348 08-08-2019 03:35:00 16.6 C 92 % 15.3 C
2349 08-08-2019 03:40:00 16.5 C 92 % 15.2 C
2350 08-08-2019 03:45:00 16.4 C 92 % 15.1 C
Sensor: Nr:Datum:Temp:Feuchte:Taupunkt:
Aussen-T/F 2351 08-08-2019 03:50:00 16.3 C 91 % 14.83 C
2352 08-08-2019 03:55:00 16.3 C 92 % 15 C
2353 08-08-2019 04:00:00 16.2 C 92 % 14.9 C
2354 08-08-2019 04:05:00 16.2 C 92 % 14.9 C
2355 08-08-2019 04:10:00 16.2 C 92 % 14.9 C
2356 08-08-2019 04:15:00 16.1 C 93 % 14.97 C
2357 08-08-2019 04:20:00 16.1 C 92 % 14.8 C
2358 08-08-2019 04:25:00 16.1 C 93 % 14.97 C
2359 08-08-2019 04:30:00 16 C 93 % 14.87 C
2360 08-08-2019 04:35:00 16 C 93 % 14.87 C
2361 08-08-2019 04:40:00 16 C 93 % 14.87 C
2362 08-08-2019 04:45:00 16 C 93 % 14.87 C
2363 08-08-2019 04:50:00 16 C 93 % 14.87 C
2364 08-08-2019 04:55:00 15.9 C 93 % 14.77 C
2365 08-08-2019 05:00:00 15.8 C 93 % 14.67 C
2366 08-08-2019 05:05:00 15.7 C 93 % 14.57 C
2367 08-08-2019 05:10:00 15.6 C 92 % 14.31 C
2368 08-08-2019 05:15:00 15.4 C 92 % 14.11 C
2369 08-08-2019 05:20:00 15.3 C 93 % 14.18 C
2370 08-08-2019 05:25:00 15.2 C 93 % 14.08 C
2371 08-08-2019 05:30:00 15.1 C 93 % 13.98 C
2372 08-08-2019 05:35:00 15 C 93 % 13.88 C
2373 08-08-2019 05:40:00 15.1 C 94 % 14.14 C
2374 08-08-2019 05:45:00 15.1 C 94 % 14.14 C
2375 08-08-2019 05:50:00 15.2 C 94 % 14.24 C
Sensor: Nr:Datum:Temp:Feuchte:Taupunkt:
Aussen-T/F 2376 08-08-2019 05:55:00 15.3 C 95 % 14.5 C
2377 08-08-2019 06:00:00 15.3 C 95 % 14.5 C
2378 08-08-2019 06:05:00 15.4 C 95 % 14.6 C
2379 08-08-2019 06:10:00 15.4 C 95 % 14.6 C
2380 08-08-2019 06:15:00 15.6 C 95 % 14.8 C
2381 08-08-2019 06:20:00 15.7 C 94 % 14.74 C
2382 08-08-2019 06:25:00 15.8 C 94 % 14.84 C
2383 08-08-2019 06:30:00 15.8 C 94 % 14.84 C
2384 08-08-2019 06:35:00 15.9 C 94 % 14.94 C
2385 08-08-2019 06:40:00 15.9 C 93 % 14.77 C
2386 08-08-2019 06:45:00 15.9 C 93 % 14.77 C
2387 08-08-2019 06:50:00 15.9 C 93 % 14.77 C
2388 08-08-2019 06:55:00 15.8 C 93 % 14.67 C
2389 08-08-2019 07:00:00 15.8 C 93 % 14.67 C
2390 08-08-2019 07:05:00 15.8 C 93 % 14.67 C
2391 08-08-2019 07:10:00 15.8 C 93 % 14.67 C
2392 08-08-2019 07:15:00 15.8 C 93 % 14.67 C
2393 08-08-2019 07:20:00 15.8 C 93 % 14.67 C
2394 08-08-2019 07:25:00 15.9 C 94 % 14.94 C
2395 08-08-2019 07:30:00 15.9 C 94 % 14.94 C
2396 08-08-2019 07:35:00 16 C 94 % 15.03 C
2397 08-08-2019 07:40:00 16.1 C 94 % 15.13 C
2398 08-08-2019 07:45:00 16.1 C 94 % 15.13 C
2399 08-08-2019 07:50:00 16.2 C 94 % 15.23 C
2400 08-08-2019 07:55:00 16.2 C 94 % 15.23 C
Sensor: Nr:Datum:Temp:Feuchte:Taupunkt:
Aussen-T/F 2401 08-08-2019 08:00:00 16.3 C 94 % 15.33 C
2402 08-08-2019 08:05:00 16.4 C 93 % 15.27 C
2403 08-08-2019 08:10:00 16.6 C 93 % 15.46 C
2404 08-08-2019 08:15:00 16.7 C 92 % 15.39 C
2405 08-08-2019 08:20:00 16.9 C 92 % 15.59 C
2406 08-08-2019 08:25:00 17.1 C 91 % 15.62 C
2407 08-08-2019 08:30:00 17.2 C 91 % 15.72 C
2408 08-08-2019 08:35:00 17.3 C 90 % 15.64 C
2409 08-08-2019 08:40:00 17.4 C 90 % 15.74 C
2410 08-08-2019 08:45:00 17.5 C 90 % 15.84 C
2411 08-08-2019 08:50:00 17.6 C 89 % 15.77 C
2412 08-08-2019 08:55:00 17.7 C 89 % 15.86 C
2413 08-08-2019 09:00:00 17.8 C 89 % 15.96 C
2414 08-08-2019 09:05:00 17.9 C 88 % 15.88 C
2415 08-08-2019 09:10:00 18.1 C 88 % 16.08 C
2416 08-08-2019 09:15:00 18.3 C 87 % 16.1 C
2417 08-08-2019 09:20:00 18.4 C 85 % 15.83 C
2418 08-08-2019 09:25:00 18.5 C 85 % 15.93 C
2419 08-08-2019 09:30:00 18.6 C 84 % 15.84 C
2420 08-08-2019 09:35:00 18.7 C 84 % 15.94 C
2421 08-08-2019 09:40:00 18.9 C 81 % 15.57 C
2422 08-08-2019 09:45:00 19.1 C 81 % 15.76 C
2423 08-08-2019 09:50:00 19.2 C 80 % 15.67 C
2424 08-08-2019 09:55:00 19.2 C 77 % 15.07 C
2425 08-08-2019 10:00:00 19.3 C 76 % 14.97 C
Sensor: Nr:Datum:Temp:Feuchte:Taupunkt:
Aussen-T/F 2426 08-08-2019 10:05:00 19.4 C 74 % 14.65 C
2427 08-08-2019 10:10:00 19.5 C 76 % 15.16 C
2428 08-08-2019 10:15:00 19.6 C 76 % 15.26 C
2429 08-08-2019 10:20:00 19.7 C 73 % 14.73 C
2430 08-08-2019 10:25:00 19.9 C 73 % 14.92 C
2431 08-08-2019 10:30:00 20.2 C 72 % 14.99 C
2432 08-08-2019 10:35:00 20.3 C 72 % 15.09 C
2433 08-08-2019 10:40:00 20.5 C 72 % 15.28 C
2434 08-08-2019 10:45:00 20.7 C 71 % 15.25 C
2435 08-08-2019 10:50:00 20.8 C 71 % 15.35 C
2436 08-08-2019 10:55:00 20.8 C 70 % 15.13 C
2437 08-08-2019 11:00:00 21 C 70 % 15.32 C
2438 08-08-2019 11:05:00 21.1 C 68 % 14.97 C
2439 08-08-2019 11:10:00 21.2 C 67 % 14.83 C
2440 08-08-2019 11:15:00 21.3 C 68 % 15.16 C
2441 08-08-2019 11:20:00 21.5 C 67 % 15.12 C
2442 08-08-2019 11:25:00 21.6 C 68 % 15.44 C
2443 08-08-2019 11:30:00 21.8 C 66 % 15.17 C
2444 08-08-2019 11:35:00 21.9 C 64 % 14.78 C
2445 08-08-2019 11:40:00 22 C 65 % 15.12 C
2446 08-08-2019 11:45:00 22.3 C 62 % 14.67 C
2447 08-08-2019 11:50:00 22.5 C 62 % 14.86 C
2448 08-08-2019 11:55:00 22.7 C 62 % 15.05 C
2449 08-08-2019 12:00:00 22.8 C 62 % 15.14 C
2450 08-08-2019 12:05:00 22.7 C 63 % 15.3 C
Sensor: Nr:Datum:Temp:Feuchte:Taupunkt:
Aussen-T/F 2451 08-08-2019 12:10:00 22.6 C 63 % 15.2 C
2452 08-08-2019 12:15:00 22.7 C 64 % 15.54 C
2453 08-08-2019 12:20:00 22.7 C 62 % 15.05 C
2454 08-08-2019 12:25:00 22.9 C 60 % 14.73 C
2455 08-08-2019 12:30:00 23 C 61 % 15.08 C
2456 08-08-2019 12:35:00 23 C 61 % 15.08 C
2457 08-08-2019 12:40:00 23.2 C 60 % 15.01 C
2458 08-08-2019 12:45:00 23.3 C 60 % 15.1 C
2459 08-08-2019 12:50:00 23.4 C 60 % 15.19 C
2460 08-08-2019 12:55:00 23.6 C 58 % 14.86 C
2461 08-08-2019 13:00:00 23.7 C 60 % 15.48 C
2462 08-08-2019 13:05:00 23.8 C 59 % 15.31 C
2463 08-08-2019 13:10:00 23.9 C 59 % 15.4 C
2464 08-08-2019 13:15:00 24.1 C 57 % 15.05 C
2465 08-08-2019 13:20:00 24.1 C 57 % 15.05 C
2466 08-08-2019 13:25:00 24.2 C 57 % 15.14 C
2467 08-08-2019 13:30:00 24.2 C 55 % 14.59 C
2468 08-08-2019 13:35:00 24.1 C 56 % 14.78 C
2469 08-08-2019 13:40:00 24 C 58 % 15.23 C
2470 08-08-2019 13:45:00 24 C 58 % 15.23 C
2471 08-08-2019 13:50:00 24 C 56 % 14.68 C
2472 08-08-2019 13:55:00 24.2 C 57 % 15.14 C
2473 08-08-2019 14:00:00 24.2 C 58 % 15.42 C
2474 08-08-2019 14:05:00 24.1 C 57 % 15.05 C
2475 08-08-2019 14:10:00 24.1 C 59 % 15.59 C
Sensor: Nr:Datum:Temp:Feuchte:Taupunkt:
Aussen-T/F 2476 08-08-2019 14:15:00 24.2 C 58 % 15.42 C
2477 08-08-2019 14:20:00 24.3 C 59 % 15.78 C
2478 08-08-2019 14:25:00 24.3 C 58 % 15.51 C
2479 08-08-2019 14:30:00 24.3 C 57 % 15.24 C
2480 08-08-2019 14:35:00 24.2 C 57 % 15.14 C
2481 08-08-2019 14:40:00 24.2 C 55 % 14.59 C
2482 08-08-2019 14:45:00 24.2 C 56 % 14.87 C
2483 08-08-2019 14:50:00 24.2 C 57 % 15.14 C
2484 08-08-2019 14:55:00 24.2 C 57 % 15.14 C
2485 08-08-2019 15:00:00 24.2 C 56 % 14.87 C
2486 08-08-2019 15:05:00 24.2 C 60 % 15.95 C
2487 08-08-2019 15:10:00 24.3 C 56 % 14.96 C
2488 08-08-2019 15:15:00 24.4 C 56 % 15.06 C
2489 08-08-2019 15:20:00 24.6 C 57 % 15.52 C
2490 08-08-2019 15:25:00 24.7 C 56 % 15.33 C
2491 08-08-2019 15:30:00 24.7 C 58 % 15.88 C
2492 08-08-2019 15:35:00 24.5 C 58 % 15.7 C
2493 08-08-2019 15:40:00 24.3 C 60 % 16.04 C
2494 08-08-2019 15:45:00 24.5 C 59 % 15.96 C
2495 08-08-2019 15:50:00 24.7 C 56 % 15.33 C
2496 08-08-2019 15:55:00 25.1 C 54 % 15.14 C
2497 08-08-2019 16:00:00 25.4 C 53 % 15.13 C
2498 08-08-2019 16:05:00 25.5 C 54 % 15.51 C
2499 08-08-2019 16:10:00 25.8 C 55 % 16.07 C
2500 08-08-2019 16:15:00 26.1 C 51 % 15.17 C
Sensor: Nr:Datum:Temp:Feuchte:Taupunkt:
Aussen-T/F 2501 08-08-2019 16:20:00 26.3 C 55 % 16.54 C
2502 08-08-2019 16:25:00 26.8 C 51 % 15.82 C
2503 08-08-2019 16:30:00 26.8 C 51 % 15.82 C
2504 08-08-2019 16:35:00 27.1 C 51 % 16.09 C
2505 08-08-2019 16:40:00 27.3 C 48 % 15.33 C
2506 08-08-2019 16:45:00 27.3 C 50 % 15.97 C
2507 08-08-2019 16:50:00 27.2 C 50 % 15.87 C
2508 08-08-2019 16:55:00 27.4 C 48 % 15.42 C
2509 08-08-2019 17:00:00 27.5 C 48 % 15.51 C
2510 08-08-2019 17:05:00 27.5 C 48 % 15.51 C
2511 08-08-2019 17:10:00 27.2 C 47 % 14.91 C
2512 08-08-2019 17:15:00 26.6 C 49 % 15.01 C
2513 08-08-2019 17:20:00 26.6 C 53 % 16.23 C
2514 08-08-2019 17:25:00 27.1 C 49 % 15.47 C
2515 08-08-2019 17:30:00 27.5 C 47 % 15.18 C
2516 08-08-2019 17:35:00 27.7 C 47 % 15.36 C
2517 08-08-2019 17:40:00 27.4 C 46 % 14.76 C
2518 08-08-2019 17:45:00 26.9 C 48 % 14.96 C
2519 08-08-2019 17:50:00 27 C 48 % 15.05 C
2520 08-08-2019 17:55:00 27.2 C 48 % 15.24 C
2521 08-08-2019 18:00:00 27.2 C 47 % 14.91 C
2522 08-08-2019 18:05:00 27.1 C 48 % 15.15 C
2523 08-08-2019 18:10:00 27.4 C 47 % 15.09 C
2524 08-08-2019 18:15:00 27.8 C 47 % 15.45 C
2525 08-08-2019 18:20:00 27.9 C 45 % 14.87 C
Sensor: Nr:Datum:Temp:Feuchte:Taupunkt:
Aussen-T/F 2526 08-08-2019 18:25:00 27.8 C 45 % 14.78 C
2527 08-08-2019 18:30:00 27.7 C 46 % 15.03 C
2528 08-08-2019 18:35:00 27.7 C 47 % 15.36 C
2529 08-08-2019 18:40:00 27.7 C 46 % 15.03 C
2530 08-08-2019 18:45:00 27.4 C 50 % 16.06 C
2531 08-08-2019 18:50:00 27.1 C 50 % 15.78 C
2532 08-08-2019 18:55:00 26.8 C 50 % 15.51 C
2533 08-08-2019 19:00:00 26.3 C 51 % 15.36 C
2534 08-08-2019 19:05:00 26.1 C 55 % 16.35 C
2535 08-08-2019 19:10:00 25.9 C 58 % 17 C
2536 08-08-2019 19:15:00 25.7 C 62 % 17.87 C
2537 08-08-2019 19:20:00 25.6 C 62 % 17.78 C
2538 08-08-2019 19:25:00 25.4 C 62 % 17.59 C
2539 08-08-2019 19:30:00 25.2 C 64 % 17.9 C
2540 08-08-2019 19:35:00 25.1 C 65 % 18.06 C
2541 08-08-2019 19:40:00 25 C 66 % 18.2 C
2542 08-08-2019 19:45:00 24.9 C 67 % 18.35 C
2543 08-08-2019 19:50:00 24.9 C 66 % 18.11 C
2544 08-08-2019 19:55:00 25.1 C 67 % 18.54 C
2545 08-08-2019 20:00:00 25.1 C 66 % 18.3 C
2546 08-08-2019 20:05:00 25.1 C 65 % 18.06 C
2547 08-08-2019 20:10:00 24.9 C 64 % 17.62 C
2548 08-08-2019 20:15:00 24.7 C 64 % 17.43 C
2549 08-08-2019 20:20:00 24.3 C 66 % 17.54 C
2550 08-08-2019 20:25:00 23.9 C 67 % 17.4 C
Sensor: Nr:Datum:Temp:Feuchte:Taupunkt:
Aussen-T/F 2551 08-08-2019 20:30:00 23.4 C 68 % 17.16 C
2552 08-08-2019 20:35:00 22.9 C 69 % 16.91 C
2553 08-08-2019 20:40:00 22.6 C 70 % 16.85 C
2554 08-08-2019 20:45:00 22.2 C 70 % 16.47 C
2555 08-08-2019 20:50:00 22 C 71 % 16.5 C
2556 08-08-2019 20:55:00 21.8 C 71 % 16.31 C
2557 08-08-2019 21:00:00 21.6 C 72 % 16.34 C
2558 08-08-2019 21:05:00 21.4 C 73 % 16.36 C
2559 08-08-2019 21:10:00 21.2 C 74 % 16.38 C
2560 08-08-2019 21:15:00 21 C 75 % 16.4 C
2561 08-08-2019 21:20:00 20.8 C 75 % 16.21 C
2562 08-08-2019 21:25:00 20.7 C 77 % 16.52 C
2563 08-08-2019 21:30:00 20.5 C 78 % 16.53 C
2564 08-08-2019 21:35:00 20.3 C 78 % 16.34 C
2565 08-08-2019 21:40:00 20.2 C 78 % 16.24 C
2566 08-08-2019 21:45:00 20.1 C 79 % 16.34 C
2567 08-08-2019 21:50:00 19.9 C 79 % 16.15 C
2568 08-08-2019 21:55:00 19.8 C 79 % 16.05 C
2569 08-08-2019 22:00:00 19.8 C 80 % 16.25 C
2570 08-08-2019 22:05:00 19.7 C 81 % 16.35 C
2571 08-08-2019 22:10:00 19.6 C 82 % 16.44 C
2572 08-08-2019 22:15:00 19.4 C 82 % 16.25 C
2573 08-08-2019 22:20:00 19.3 C 83 % 16.34 C
2574 08-08-2019 22:25:00 19.2 C 83 % 16.24 C
2575 08-08-2019 22:30:00 19.1 C 83 % 16.15 C
Sensor: Nr:Datum:Temp:Feuchte:Taupunkt:
Aussen-T/F 2576 08-08-2019 22:35:00 18.9 C 84 % 16.14 C
2577 08-08-2019 22:40:00 18.8 C 84 % 16.04 C
2578 08-08-2019 22:45:00 18.8 C 85 % 16.23 C
2579 08-08-2019 22:50:00 18.7 C 85 % 16.13 C
2580 08-08-2019 22:55:00 18.6 C 86 % 16.21 C
2581 08-08-2019 23:00:00 18.4 C 86 % 16.02 C
2582 08-08-2019 23:05:00 18.4 C 86 % 16.02 C
2583 08-08-2019 23:10:00 18.3 C 87 % 16.1 C
2584 08-08-2019 23:15:00 18.2 C 87 % 16 C
2585 08-08-2019 23:20:00 18.2 C 88 % 16.18 C
2586 08-08-2019 23:25:00 18.2 C 88 % 16.18 C
2587 08-08-2019 23:30:00 18.2 C 88 % 16.18 C
2588 08-08-2019 23:35:00 18.2 C 88 % 16.18 C
2589 08-08-2019 23:40:00 18.1 C 88 % 16.08 C
2590 08-08-2019 23:45:00 18.1 C 88 % 16.08 C
2591 08-08-2019 23:50:00 17.9 C 88 % 15.88 C
2592 08-08-2019 23:55:00 17.8 C 88 % 15.79 C
2593 09-08-2019 00:00:00 17.7 C 88 % 15.69 C
2594 09-08-2019 00:05:00 17.6 C 88 % 15.59 C
2595 09-08-2019 00:10:00 17.5 C 88 % 15.49 C
2596 09-08-2019 00:15:00 17.4 C 89 % 15.57 C
2597 09-08-2019 00:20:00 17.3 C 89 % 15.47 C
2598 09-08-2019 00:25:00 17.2 C 89 % 15.37 C
2599 09-08-2019 00:30:00 17.1 C 90 % 15.45 C
2600 09-08-2019 00:35:00 17 C 90 % 15.35 C
Sensor: Nr:Datum:Temp:Feuchte:Taupunkt:
Aussen-T/F 2601 09-08-2019 00:40:00 16.9 C 90 % 15.25 C
2602 09-08-2019 00:45:00 16.8 C 90 % 15.15 C
2603 09-08-2019 00:50:00 16.7 C 91 % 15.22 C
2604 09-08-2019 00:55:00 16.7 C 91 % 15.22 C
2605 09-08-2019 01:00:00 16.6 C 91 % 15.13 C
2606 09-08-2019 01:05:00 16.6 C 91 % 15.13 C
2607 09-08-2019 01:10:00 16.4 C 91 % 14.93 C
2608 09-08-2019 01:15:00 16.4 C 91 % 14.93 C
2609 09-08-2019 01:20:00 16.3 C 91 % 14.83 C
2610 09-08-2019 01:25:00 16.3 C 91 % 14.83 C
2611 09-08-2019 01:30:00 16.2 C 91 % 14.73 C
2612 09-08-2019 01:35:00 16.2 C 91 % 14.73 C
2613 09-08-2019 01:40:00 16.1 C 91 % 14.63 C
2614 09-08-2019 01:45:00 16 C 92 % 14.7 C
2615 09-08-2019 01:50:00 16 C 92 % 14.7 C
2616 09-08-2019 01:55:00 16 C 92 % 14.7 C
2617 09-08-2019 02:00:00 16 C 92 % 14.7 C
2618 09-08-2019 02:05:00 16 C 92 % 14.7 C
2619 09-08-2019 02:10:00 16 C 92 % 14.7 C
2620 09-08-2019 02:15:00 16 C 92 % 14.7 C
2621 09-08-2019 02:20:00 16 C 92 % 14.7 C
2622 09-08-2019 02:25:00 15.9 C 92 % 14.6 C
2623 09-08-2019 02:30:00 15.9 C 92 % 14.6 C
2624 09-08-2019 02:35:00 15.9 C 92 % 14.6 C
2625 09-08-2019 02:40:00 15.8 C 92 % 14.5 C
Sensor: Nr:Datum:Temp:Feuchte:Taupunkt:
Aussen-T/F 2626 09-08-2019 02:45:00 15.7 C 92 % 14.4 C
2627 09-08-2019 02:50:00 15.7 C 92 % 14.4 C
2628 09-08-2019 02:55:00 15.6 C 92 % 14.31 C
2629 09-08-2019 03:00:00 15.6 C 92 % 14.31 C
2630 09-08-2019 03:05:00 15.4 C 92 % 14.11 C
2631 09-08-2019 03:10:00 15.4 C 93 % 14.27 C
2632 09-08-2019 03:15:00 15.3 C 92 % 14.01 C
2633 09-08-2019 03:20:00 15.2 C 93 % 14.08 C
2634 09-08-2019 03:25:00 15.2 C 93 % 14.08 C
2635 09-08-2019 03:30:00 15.2 C 93 % 14.08 C
2636 09-08-2019 03:35:00 15.1 C 93 % 13.98 C
2637 09-08-2019 03:40:00 15.1 C 93 % 13.98 C
2638 09-08-2019 03:45:00 15.1 C 93 % 13.98 C
2639 09-08-2019 03:50:00 15 C 93 % 13.88 C
2640 09-08-2019 03:55:00 15 C 93 % 13.88 C
2641 09-08-2019 04:00:00 14.9 C 94 % 13.94 C
2642 09-08-2019 04:05:00 14.9 C 93 % 13.78 C
2643 09-08-2019 04:10:00 14.8 C 94 % 13.84 C
2644 09-08-2019 04:15:00 14.8 C 93 % 13.68 C
2645 09-08-2019 04:20:00 14.7 C 93 % 13.58 C
2646 09-08-2019 04:25:00 14.6 C 93 % 13.48 C
2647 09-08-2019 04:30:00 14.6 C 94 % 13.65 C
2648 09-08-2019 04:35:00 14.7 C 94 % 13.74 C
2649 09-08-2019 04:40:00 14.7 C 94 % 13.74 C
2650 09-08-2019 04:45:00 14.7 C 94 % 13.74 C
Sensor: Nr:Datum:Temp:Feuchte:Taupunkt:
Aussen-T/F 2651 09-08-2019 04:50:00 14.7 C 94 % 13.74 C
2652 09-08-2019 04:55:00 14.6 C 94 % 13.65 C
2653 09-08-2019 05:00:00 14.6 C 94 % 13.65 C
2654 09-08-2019 05:05:00 14.5 C 94 % 13.55 C
2655 09-08-2019 05:10:00 14.5 C 94 % 13.55 C
2656 09-08-2019 05:15:00 14.5 C 94 % 13.55 C
2657 09-08-2019 05:20:00 14.4 C 94 % 13.45 C
2658 09-08-2019 05:25:00 14.4 C 94 % 13.45 C
2659 09-08-2019 05:30:00 14.4 C 94 % 13.45 C
2660 09-08-2019 05:35:00 14.4 C 94 % 13.45 C
2661 09-08-2019 05:40:00 14.4 C 94 % 13.45 C
2662 09-08-2019 05:45:00 14.4 C 94 % 13.45 C
2663 09-08-2019 05:50:00 14.4 C 94 % 13.45 C
2664 09-08-2019 05:55:00 14.4 C 95 % 13.61 C
2665 09-08-2019 06:00:00 14.4 C 95 % 13.61 C
2666 09-08-2019 06:05:00 14.4 C 95 % 13.61 C
2667 09-08-2019 06:10:00 14.4 C 95 % 13.61 C
2668 09-08-2019 06:15:00 14.5 C 95 % 13.71 C
2669 09-08-2019 06:20:00 14.5 C 95 % 13.71 C
2670 09-08-2019 06:25:00 14.6 C 95 % 13.81 C
2671 09-08-2019 06:30:00 14.6 C 95 % 13.81 C
2672 09-08-2019 06:35:00 14.6 C 95 % 13.81 C
2673 09-08-2019 06:40:00 14.6 C 95 % 13.81 C
2674 09-08-2019 06:45:00 14.7 C 95 % 13.91 C
2675 09-08-2019 06:50:00 14.7 C 95 % 13.91 C
Sensor: Nr:Datum:Temp:Feuchte:Taupunkt:
Aussen-T/F 2676 09-08-2019 06:55:00 14.8 C 95 % 14.01 C
2677 09-08-2019 07:00:00 14.8 C 95 % 14.01 C
2678 09-08-2019 07:05:00 15 C 95 % 14.21 C
2679 09-08-2019 07:10:00 15.1 C 96 % 14.47 C
2680 09-08-2019 07:15:00 15.2 C 96 % 14.57 C
2681 09-08-2019 07:20:00 15.3 C 96 % 14.67 C
2682 09-08-2019 07:25:00 15.4 C 96 % 14.77 C
2683 09-08-2019 07:30:00 15.5 C 95 % 14.7 C
2684 09-08-2019 07:35:00 15.6 C 95 % 14.8 C
2685 09-08-2019 07:40:00 15.6 C 95 % 14.8 C
2686 09-08-2019 07:45:00 15.7 C 95 % 14.9 C
2687 09-08-2019 07:50:00 15.8 C 95 % 15 C
2688 09-08-2019 07:55:00 15.9 C 95 % 15.1 C
2689 09-08-2019 08:00:00 15.9 C 94 % 14.94 C
2690 09-08-2019 08:05:00 15.9 C 94 % 14.94 C
2691 09-08-2019 08:10:00 16.1 C 94 % 15.13 C
2692 09-08-2019 08:15:00 16.2 C 94 % 15.23 C
2693 09-08-2019 08:20:00 16.2 C 94 % 15.23 C
2694 09-08-2019 08:25:00 16.4 C 94 % 15.43 C
2695 09-08-2019 08:30:00 16.5 C 93 % 15.36 C
2696 09-08-2019 08:35:00 16.6 C 93 % 15.46 C
2697 09-08-2019 08:40:00 16.7 C 92 % 15.39 C
2698 09-08-2019 08:45:00 16.8 C 92 % 15.49 C
2699 09-08-2019 08:50:00 16.9 C 92 % 15.59 C
2700 09-08-2019 08:55:00 17.1 C 92 % 15.79 C
Sensor: Nr:Datum:Temp:Feuchte:Taupunkt:
Aussen-T/F 2701 09-08-2019 09:00:00 17.2 C 91 % 15.72 C
2702 09-08-2019 09:05:00 17.4 C 91 % 15.92 C
2703 09-08-2019 09:10:00 17.6 C 91 % 16.11 C
2704 09-08-2019 09:15:00 17.7 C 89 % 15.86 C
2705 09-08-2019 09:20:00 17.9 C 89 % 16.06 C
2706 09-08-2019 09:25:00 18.2 C 88 % 16.18 C
2707 09-08-2019 09:30:00 18.4 C 87 % 16.2 C
2708 09-08-2019 09:35:00 18.6 C 87 % 16.39 C
2709 09-08-2019 09:40:00 18.8 C 86 % 16.41 C
2710 09-08-2019 09:45:00 18.9 C 86 % 16.51 C
2711 09-08-2019 09:50:00 19.2 C 85 % 16.62 C
2712 09-08-2019 09:55:00 19.3 C 84 % 16.53 C
2713 09-08-2019 10:00:00 19.5 C 82 % 16.35 C
2714 09-08-2019 10:05:00 19.7 C 82 % 16.54 C
2715 09-08-2019 10:10:00 19.9 C 82 % 16.74 C
2716 09-08-2019 10:15:00 20.1 C 82 % 16.93 C
2717 09-08-2019 10:20:00 20.3 C 81 % 16.93 C
2718 09-08-2019 10:25:00 20.5 C 82 % 17.32 C
2719 09-08-2019 10:30:00 20.7 C 80 % 17.13 C
2720 09-08-2019 10:35:00 20.9 C 80 % 17.32 C
2721 09-08-2019 10:40:00 21.1 C 79 % 17.32 C
2722 09-08-2019 10:45:00 21.3 C 81 % 17.91 C
2723 09-08-2019 10:50:00 21.6 C 79 % 17.8 C
2724 09-08-2019 10:55:00 21.7 C 79 % 17.9 C
2725 09-08-2019 11:00:00 21.9 C 78 % 17.89 C
Sensor: Nr:Datum:Temp:Feuchte:Taupunkt:
Aussen-T/F 2726 09-08-2019 11:05:00 22.2 C 77 % 17.98 C
2727 09-08-2019 11:10:00 22.6 C 75 % 17.94 C
2728 09-08-2019 11:15:00 23 C 76 % 18.54 C
2729 09-08-2019 11:20:00 23.4 C 74 % 18.5 C
2730 09-08-2019 11:25:00 23.7 C 70 % 17.9 C
2731 09-08-2019 11:30:00 24.2 C 70 % 18.38 C
2732 09-08-2019 11:35:00 24.5 C 68 % 18.2 C
2733 09-08-2019 11:40:00 24.8 C 69 % 18.72 C
2734 09-08-2019 11:45:00 25 C 67 % 18.44 C
2735 09-08-2019 11:50:00 25.1 C 66 % 18.3 C
2736 09-08-2019 11:55:00 25.2 C 69 % 19.11 C
2737 09-08-2019 12:00:00 25.1 C 66 % 18.3 C
2738 09-08-2019 12:05:00 25.2 C 68 % 18.87 C
2739 09-08-2019 12:10:00 25.2 C 68 % 18.87 C
2740 09-08-2019 12:15:00 25.3 C 66 % 18.49 C
2741 09-08-2019 12:20:00 25.2 C 63 % 17.65 C
2742 09-08-2019 12:25:00 25.3 C 71 % 19.66 C
2743 09-08-2019 12:30:00 25.3 C 64 % 18 C
2744 09-08-2019 12:35:00 25.3 C 63 % 17.75 C
2745 09-08-2019 12:40:00 25.3 C 64 % 18 C
2746 09-08-2019 12:45:00 25.3 C 64 % 18 C
2747 09-08-2019 12:50:00 25.4 C 70 % 19.53 C
2748 09-08-2019 12:55:00 25.3 C 63 % 17.75 C
2749 09-08-2019 13:00:00 25.3 C 63 % 17.75 C
2750 09-08-2019 13:05:00 25.3 C 69 % 19.2 C
Sensor: Nr:Datum:Temp:Feuchte:Taupunkt:
Aussen-T/F 2751 09-08-2019 13:10:00 25.2 C 63 % 17.65 C
2752 09-08-2019 13:15:00 25.2 C 72 % 19.79 C
2753 09-08-2019 13:20:00 25.1 C 68 % 18.78 C
2754 09-08-2019 13:25:00 25.1 C 69 % 19.01 C
2755 09-08-2019 13:30:00 25.2 C 68 % 18.87 C
2756 09-08-2019 13:35:00 25.2 C 63 % 17.65 C
2757 09-08-2019 13:40:00 25.3 C 65 % 18.25 C
2758 09-08-2019 13:45:00 25.4 C 64 % 18.09 C
2759 09-08-2019 13:50:00 25.4 C 64 % 18.09 C
2760 09-08-2019 13:55:00 25.6 C 69 % 19.49 C
2761 09-08-2019 14:00:00 25.6 C 68 % 19.25 C
2762 09-08-2019 14:05:00 25.5 C 69 % 19.39 C
2763 09-08-2019 14:10:00 25.4 C 67 % 18.82 C
2764 09-08-2019 14:15:00 25.4 C 73 % 20.21 C
2765 09-08-2019 14:20:00 25.2 C 76 % 20.67 C
2766 09-08-2019 14:25:00 25 C 78 % 20.89 C
2767 09-08-2019 14:30:00 24.8 C 80 % 21.11 C
2768 09-08-2019 14:35:00 24.4 C 82 % 21.12 C
2769 09-08-2019 14:40:00 24.2 C 83 % 21.13 C
2770 09-08-2019 14:45:00 24 C 83 % 20.93 C
2771 09-08-2019 14:50:00 23.8 C 84 % 20.93 C
2772 09-08-2019 14:55:00 23.7 C 85 % 21.03 C
2773 09-08-2019 15:00:00 23.4 C 85 % 20.73 C
2774 09-08-2019 15:05:00 23.2 C 86 % 20.73 C
2775 09-08-2019 15:10:00 23.1 C 88 % 21 C
Sensor: Nr:Datum:Temp:Feuchte:Taupunkt:
Aussen-T/F 2776 09-08-2019 15:15:00 23.3 C 89 % 21.38 C
2777 09-08-2019 15:20:00 23.7 C 85 % 21.03 C
2778 09-08-2019 15:25:00 24 C 83 % 20.93 C
2779 09-08-2019 15:30:00 24.3 C 83 % 21.22 C
2780 09-08-2019 15:35:00 24.7 C 81 % 21.22 C
2781 09-08-2019 15:40:00 25.1 C 78 % 20.99 C
2782 09-08-2019 15:45:00 25.6 C 78 % 21.48 C
2783 09-08-2019 15:50:00 26.1 C 76 % 21.53 C
2784 09-08-2019 15:55:00 26.7 C 73 % 21.45 C
2785 09-08-2019 16:00:00 27.2 C 72 % 21.71 C
2786 09-08-2019 16:05:00 27.4 C 68 % 20.97 C
2787 09-08-2019 16:10:00 27.6 C 66 % 20.67 C
2788 09-08-2019 16:15:00 27.4 C 67 % 20.73 C
2789 09-08-2019 16:20:00 27.4 C 68 % 20.97 C
2790 09-08-2019 16:25:00 27.3 C 68 % 20.87 C
2791 09-08-2019 16:30:00 27.3 C 71 % 21.58 C
2792 09-08-2019 16:35:00 27.2 C 71 % 21.48 C
2793 09-08-2019 16:40:00 27.1 C 68 % 20.68 C
2794 09-08-2019 16:45:00 27 C 70 % 21.06 C
2795 09-08-2019 16:50:00 27.1 C 75 % 22.28 C
2796 09-08-2019 16:55:00 27 C 75 % 22.19 C
2797 09-08-2019 17:00:00 26.9 C 78 % 22.73 C
2798 09-08-2019 17:05:00 26.7 C 78 % 22.54 C
2799 09-08-2019 17:10:00 26.4 C 79 % 22.46 C
2800 09-08-2019 17:15:00 26.2 C 80 % 22.47 C
Sensor: Nr:Datum:Temp:Feuchte:Taupunkt:
Aussen-T/F 2801 09-08-2019 17:20:00 25.8 C 80 % 22.08 C
2802 09-08-2019 17:25:00 25.5 C 81 % 22 C
2803 09-08-2019 17:30:00 25.2 C 81 % 21.7 C
2804 09-08-2019 17:35:00 24.9 C 82 % 21.61 C
2805 09-08-2019 17:40:00 24.8 C 83 % 21.71 C
2806 09-08-2019 17:45:00 24.6 C 85 % 21.91 C
2807 09-08-2019 17:50:00 24.3 C 85 % 21.61 C
2808 09-08-2019 17:55:00 24.1 C 86 % 21.61 C
2809 09-08-2019 18:00:00 23.8 C 87 % 21.5 C
2810 09-08-2019 18:05:00 23.6 C 87 % 21.31 C
2811 09-08-2019 18:10:00 23.4 C 88 % 21.3 C
2812 09-08-2019 18:15:00 23.2 C 88 % 21.1 C
2813 09-08-2019 18:20:00 23.1 C 88 % 21 C
2814 09-08-2019 18:25:00 22.9 C 89 % 20.99 C
2815 09-08-2019 18:30:00 22.7 C 89 % 20.79 C
2816 09-08-2019 18:35:00 22.4 C 89 % 20.5 C
2817 09-08-2019 18:40:00 22.3 C 90 % 20.58 C
2818 09-08-2019 18:45:00 22.1 C 90 % 20.38 C
2819 09-08-2019 18:50:00 22 C 91 % 20.46 C
2820 09-08-2019 18:55:00 21.9 C 91 % 20.36 C
2821 09-08-2019 19:00:00 21.8 C 92 % 20.44 C
2822 09-08-2019 19:05:00 21.8 C 92 % 20.44 C
2823 09-08-2019 19:10:00 21.7 C 92 % 20.34 C
2824 09-08-2019 19:15:00 21.7 C 93 % 20.52 C
2825 09-08-2019 19:20:00 21.7 C 93 % 20.52 C
Sensor: Nr:Datum:Temp:Feuchte:Taupunkt:
Aussen-T/F 2826 09-08-2019 19:25:00 21.7 C 94 % 20.69 C
2827 09-08-2019 19:30:00 21.7 C 94 % 20.69 C
2828 09-08-2019 19:35:00 21.6 C 94 % 20.59 C
2829 09-08-2019 19:40:00 21.5 C 94 % 20.49 C
2830 09-08-2019 19:45:00 21.2 C 93 % 20.02 C
2831 09-08-2019 19:50:00 20.9 C 93 % 19.72 C
2832 09-08-2019 19:55:00 20.7 C 93 % 19.53 C
2833 09-08-2019 20:00:00 20.4 C 93 % 19.23 C
2834 09-08-2019 20:05:00 20 C 93 % 18.83 C
2835 09-08-2019 20:10:00 19.8 C 93 % 18.63 C
2836 09-08-2019 20:15:00 19.7 C 94 % 18.71 C
2837 09-08-2019 20:20:00 19.6 C 94 % 18.61 C
2838 09-08-2019 20:25:00 19.6 C 94 % 18.61 C
2839 09-08-2019 20:30:00 19.5 C 94 % 18.51 C
2840 09-08-2019 20:35:00 19.4 C 94 % 18.41 C
2841 09-08-2019 20:40:00 19.4 C 95 % 18.58 C
2842 09-08-2019 20:45:00 19.4 C 95 % 18.58 C
2843 09-08-2019 20:50:00 19.4 C 95 % 18.58 C
2844 09-08-2019 20:55:00 19.4 C 95 % 18.58 C
2845 09-08-2019 21:00:00 19.3 C 95 % 18.48 C
2846 09-08-2019 21:05:00 19.3 C 95 % 18.48 C
2847 09-08-2019 21:10:00 19.3 C 95 % 18.48 C
2848 09-08-2019 21:15:00 19.3 C 95 % 18.48 C
2849 09-08-2019 21:20:00 19.3 C 95 % 18.48 C
2850 09-08-2019 21:25:00 19.3 C 95 % 18.48 C
Sensor: Nr:Datum:Temp:Feuchte:Taupunkt:
Aussen-T/F 2851 09-08-2019 21:30:00 19.3 C 96 % 18.65 C
2852 09-08-2019 21:35:00 19.3 C 96 % 18.65 C
2853 09-08-2019 21:40:00 19.4 C 96 % 18.75 C
2854 09-08-2019 21:45:00 19.4 C 96 % 18.75 C
2855 09-08-2019 21:50:00 19.3 C 96 % 18.65 C
2856 09-08-2019 21:55:00 19.3 C 96 % 18.65 C
2857 09-08-2019 22:00:00 19.4 C 96 % 18.75 C
2858 09-08-2019 22:05:00 19.4 C 96 % 18.75 C
2859 09-08-2019 22:10:00 19.4 C 96 % 18.75 C
2860 09-08-2019 22:15:00 19.4 C 96 % 18.75 C
2861 09-08-2019 22:20:00 19.4 C 96 % 18.75 C
2862 09-08-2019 22:25:00 19.4 C 96 % 18.75 C
2863 09-08-2019 22:30:00 19.3 C 96 % 18.65 C
2864 09-08-2019 22:35:00 19.3 C 96 % 18.65 C
2865 09-08-2019 22:40:00 19.2 C 96 % 18.55 C
2866 09-08-2019 22:45:00 19.2 C 96 % 18.55 C
2867 09-08-2019 22:50:00 19.2 C 96 % 18.55 C
2868 09-08-2019 22:55:00 19.1 C 96 % 18.45 C
2869 09-08-2019 23:00:00 19.1 C 96 % 18.45 C
2870 09-08-2019 23:05:00 19.1 C 96 % 18.45 C
2871 09-08-2019 23:10:00 19.1 C 96 % 18.45 C
2872 09-08-2019 23:15:00 19 C 96 % 18.35 C
2873 09-08-2019 23:20:00 18.9 C 96 % 18.25 C
2874 09-08-2019 23:25:00 18.8 C 96 % 18.15 C
2875 09-08-2019 23:30:00 18.8 C 96 % 18.15 C
Sensor: Nr:Datum:Temp:Feuchte:Taupunkt:
Aussen-T/F 2876 09-08-2019 23:35:00 18.8 C 96 % 18.15 C
2877 09-08-2019 23:40:00 18.7 C 96 % 18.05 C
2878 09-08-2019 23:45:00 18.7 C 96 % 18.05 C
2879 09-08-2019 23:50:00 18.7 C 96 % 18.05 C
2880 09-08-2019 23:55:00 18.7 C 96 % 18.05 C
2881 10-08-2019 00:00:00 18.6 C 96 % 17.95 C
2882 10-08-2019 00:05:00 18.6 C 96 % 17.95 C
2883 10-08-2019 00:10:00 18.6 C 96 % 17.95 C
2884 10-08-2019 00:15:00 18.7 C 96 % 18.05 C
2885 10-08-2019 00:20:00 18.8 C 96 % 18.15 C
2886 10-08-2019 00:25:00 18.8 C 97 % 18.31 C
2887 10-08-2019 00:30:00 18.8 C 97 % 18.31 C
2888 10-08-2019 00:35:00 18.8 C 97 % 18.31 C
2889 10-08-2019 00:40:00 18.9 C 97 % 18.41 C
2890 10-08-2019 00:45:00 18.9 C 97 % 18.41 C
2891 10-08-2019 00:50:00 18.9 C 97 % 18.41 C
2892 10-08-2019 00:55:00 18.9 C 97 % 18.41 C
2893 10-08-2019 01:00:00 18.9 C 97 % 18.41 C
2894 10-08-2019 01:05:00 18.9 C 97 % 18.41 C
2895 10-08-2019 01:10:00 18.9 C 97 % 18.41 C
2896 10-08-2019 01:15:00 18.8 C 97 % 18.31 C
2897 10-08-2019 01:20:00 18.8 C 97 % 18.31 C
2898 10-08-2019 01:25:00 18.7 C 96 % 18.05 C
2899 10-08-2019 01:30:00 18.7 C 97 % 18.21 C
2900 10-08-2019 01:35:00 18.7 C 97 % 18.21 C
Sensor: Nr:Datum:Temp:Feuchte:Taupunkt:
Aussen-T/F 2901 10-08-2019 01:40:00 18.6 C 97 % 18.11 C
2902 10-08-2019 01:45:00 18.6 C 97 % 18.11 C
2903 10-08-2019 01:50:00 18.6 C 97 % 18.11 C
2904 10-08-2019 01:55:00 18.6 C 97 % 18.11 C
2905 10-08-2019 02:00:00 18.6 C 97 % 18.11 C
2906 10-08-2019 02:05:00 18.7 C 97 % 18.21 C
2907 10-08-2019 02:10:00 18.6 C 97 % 18.11 C
2908 10-08-2019 02:15:00 18.6 C 97 % 18.11 C
2909 10-08-2019 02:20:00 18.5 C 97 % 18.01 C
2910 10-08-2019 02:25:00 18.4 C 97 % 17.91 C
2911 10-08-2019 02:30:00 18.4 C 97 % 17.91 C
2912 10-08-2019 02:35:00 18.4 C 97 % 17.91 C
2913 10-08-2019 02:40:00 18.5 C 97 % 18.01 C
2914 10-08-2019 02:45:00 18.5 C 97 % 18.01 C
2915 10-08-2019 02:50:00 18.5 C 97 % 18.01 C
2916 10-08-2019 02:55:00 18.4 C 97 % 17.91 C
2917 10-08-2019 03:00:00 18.4 C 97 % 17.91 C
2918 10-08-2019 03:05:00 18.4 C 97 % 17.91 C
2919 10-08-2019 03:10:00 18.3 C 97 % 17.82 C
2920 10-08-2019 03:15:00 18.3 C 97 % 17.82 C
2921 10-08-2019 03:20:00 18.3 C 97 % 17.82 C
2922 10-08-2019 03:25:00 18.2 C 97 % 17.72 C
2923 10-08-2019 03:30:00 18.2 C 97 % 17.72 C
2924 10-08-2019 03:35:00 18.2 C 97 % 17.72 C
2925 10-08-2019 03:40:00 18.3 C 97 % 17.82 C
Sensor: Nr:Datum:Temp:Feuchte:Taupunkt:
Aussen-T/F 2926 10-08-2019 03:45:00 18.3 C 97 % 17.82 C
2927 10-08-2019 03:50:00 18.3 C 97 % 17.82 C
2928 10-08-2019 03:55:00 18.3 C 97 % 17.82 C
2929 10-08-2019 04:00:00 18.3 C 97 % 17.82 C
2930 10-08-2019 04:05:00 18.3 C 97 % 17.82 C
2931 10-08-2019 04:10:00 18.4 C 97 % 17.91 C
2932 10-08-2019 04:15:00 18.4 C 97 % 17.91 C
2933 10-08-2019 04:20:00 18.3 C 97 % 17.82 C
2934 10-08-2019 04:25:00 18.2 C 97 % 17.72 C
2935 10-08-2019 04:30:00 18.1 C 97 % 17.62 C
2936 10-08-2019 04:35:00 18 C 97 % 17.52 C
2937 10-08-2019 04:40:00 17.9 C 97 % 17.42 C
2938 10-08-2019 04:45:00 17.9 C 97 % 17.42 C
2939 10-08-2019 04:50:00 17.8 C 97 % 17.32 C
2940 10-08-2019 04:55:00 17.8 C 97 % 17.32 C
2941 10-08-2019 05:00:00 17.7 C 97 % 17.22 C
2942 10-08-2019 05:05:00 17.6 C 97 % 17.12 C
2943 10-08-2019 05:10:00 17.6 C 97 % 17.12 C
2944 10-08-2019 05:15:00 17.6 C 97 % 17.12 C
2945 10-08-2019 05:20:00 17.5 C 97 % 17.02 C
2946 10-08-2019 05:25:00 17.5 C 97 % 17.02 C
2947 10-08-2019 05:30:00 17.5 C 97 % 17.02 C
2948 10-08-2019 05:35:00 17.5 C 97 % 17.02 C
2949 10-08-2019 05:40:00 17.5 C 97 % 17.02 C
2950 10-08-2019 05:45:00 17.5 C 97 % 17.02 C
Sensor: Nr:Datum:Temp:Feuchte:Taupunkt:
Aussen-T/F 2951 10-08-2019 05:50:00 17.5 C 97 % 17.02 C
2952 10-08-2019 05:55:00 17.4 C 97 % 16.92 C
2953 10-08-2019 06:00:00 17.4 C 97 % 16.92 C
2954 10-08-2019 06:05:00 17.5 C 97 % 17.02 C
2955 10-08-2019 06:10:00 17.5 C 97 % 17.02 C
2956 10-08-2019 06:15:00 17.5 C 97 % 17.02 C
2957 10-08-2019 06:20:00 17.5 C 97 % 17.02 C
2958 10-08-2019 06:25:00 17.5 C 97 % 17.02 C
2959 10-08-2019 06:30:00 17.5 C 97 % 17.02 C
2960 10-08-2019 06:35:00 17.5 C 97 % 17.02 C
2961 10-08-2019 06:40:00 17.4 C 97 % 16.92 C
2962 10-08-2019 06:45:00 17.4 C 97 % 16.92 C
2963 10-08-2019 06:50:00 17.4 C 97 % 16.92 C
2964 10-08-2019 06:55:00 17.3 C 97 % 16.82 C
2965 10-08-2019 07:00:00 17.3 C 97 % 16.82 C
2966 10-08-2019 07:05:00 17.3 C 97 % 16.82 C
2967 10-08-2019 07:10:00 17.3 C 97 % 16.82 C
2968 10-08-2019 07:15:00 17.3 C 97 % 16.82 C
2969 10-08-2019 07:20:00 17.3 C 97 % 16.82 C
2970 10-08-2019 07:25:00 17.3 C 97 % 16.82 C
2971 10-08-2019 07:30:00 17.3 C 97 % 16.82 C
2972 10-08-2019 07:35:00 17.3 C 97 % 16.82 C
2973 10-08-2019 07:40:00 17.3 C 97 % 16.82 C
2974 10-08-2019 07:45:00 17.4 C 97 % 16.92 C
2975 10-08-2019 07:50:00 17.4 C 97 % 16.92 C
Sensor: Nr:Datum:Temp:Feuchte:Taupunkt:
Aussen-T/F 2976 10-08-2019 07:55:00 17.5 C 97 % 17.02 C
2977 10-08-2019 08:00:00 17.6 C 97 % 17.12 C
2978 10-08-2019 08:05:00 17.4 C 97 % 16.92 C
2979 10-08-2019 08:10:00 17.2 C 97 % 16.72 C
2980 10-08-2019 08:15:00 17.1 C 96 % 16.46 C
2981 10-08-2019 08:20:00 17.2 C 96 % 16.56 C
2982 10-08-2019 08:25:00 17.2 C 96 % 16.56 C
2983 10-08-2019 08:30:00 17.2 C 96 % 16.56 C
2984 10-08-2019 08:35:00 17.3 C 95 % 16.49 C
2985 10-08-2019 08:40:00 17.4 C 94 % 16.42 C
2986 10-08-2019 08:45:00 17.7 C 93 % 16.55 C
2987 10-08-2019 08:50:00 17.8 C 92 % 16.48 C
2988 10-08-2019 08:55:00 17.9 C 92 % 16.58 C
2989 10-08-2019 09:00:00 18.2 C 90 % 16.53 C
2990 10-08-2019 09:05:00 18.6 C 89 % 16.75 C
2991 10-08-2019 09:10:00 18.8 C 89 % 16.95 C
2992 10-08-2019 09:15:00 18.9 C 87 % 16.69 C
2993 10-08-2019 09:20:00 19 C 86 % 16.6 C
2994 10-08-2019 09:25:00 19.1 C 85 % 16.52 C
2995 10-08-2019 09:30:00 19.2 C 86 % 16.8 C
2996 10-08-2019 09:35:00 19.3 C 85 % 16.72 C
2997 10-08-2019 09:40:00 19.4 C 85 % 16.81 C
2998 10-08-2019 09:45:00 19.6 C 84 % 16.82 C
2999 10-08-2019 09:50:00 19.7 C 83 % 16.73 C
3000 10-08-2019 09:55:00 19.7 C 83 % 16.73 C
Sensor: Nr:Datum:Temp:Feuchte:Taupunkt:
Aussen-T/F 3001 10-08-2019 10:00:00 19.8 C 82 % 16.64 C
3002 10-08-2019 10:05:00 19.9 C 82 % 16.74 C
3003 10-08-2019 10:10:00 20.1 C 81 % 16.74 C
3004 10-08-2019 10:15:00 20.2 C 81 % 16.84 C
3005 10-08-2019 10:20:00 20.2 C 80 % 16.64 C
3006 10-08-2019 10:25:00 20.3 C 80 % 16.74 C
3007 10-08-2019 10:30:00 20.3 C 80 % 16.74 C
3008 10-08-2019 10:35:00 20.4 C 80 % 16.83 C
3009 10-08-2019 10:40:00 20.6 C 80 % 17.03 C
3010 10-08-2019 10:45:00 20.7 C 77 % 16.52 C
3011 10-08-2019 10:50:00 20.8 C 75 % 16.21 C
3012 10-08-2019 10:55:00 21.1 C 76 % 16.7 C
3013 10-08-2019 11:00:00 21.3 C 76 % 16.9 C
3014 10-08-2019 11:05:00 21.6 C 78 % 17.6 C
3015 10-08-2019 11:10:00 21.6 C 74 % 16.77 C
3016 10-08-2019 11:15:00 21.6 C 73 % 16.55 C
3017 10-08-2019 11:20:00 21.4 C 73 % 16.36 C
3018 10-08-2019 11:25:00 21.2 C 74 % 16.38 C
3019 10-08-2019 11:30:00 21.2 C 74 % 16.38 C
3020 10-08-2019 11:35:00 21.3 C 75 % 16.69 C
3021 10-08-2019 11:40:00 21.4 C 74 % 16.57 C
3022 10-08-2019 11:45:00 21.5 C 73 % 16.46 C
3023 10-08-2019 11:50:00 21.5 C 74 % 16.67 C
3024 10-08-2019 11:55:00 21.6 C 74 % 16.77 C
3025 10-08-2019 12:00:00 21.6 C 72 % 16.34 C
Sensor: Nr:Datum:Temp:Feuchte:Taupunkt:
Aussen-T/F 3026 10-08-2019 12:05:00 21.7 C 72 % 16.43 C
3027 10-08-2019 12:10:00 21.8 C 72 % 16.53 C
3028 10-08-2019 12:15:00 22.1 C 72 % 16.82 C
3029 10-08-2019 12:20:00 22.3 C 70 % 16.56 C
3030 10-08-2019 12:25:00 22.4 C 68 % 16.2 C
3031 10-08-2019 12:30:00 22.6 C 69 % 16.62 C
3032 10-08-2019 12:35:00 22.7 C 68 % 16.49 C
3033 10-08-2019 12:40:00 22.8 C 67 % 16.35 C
3034 10-08-2019 12:45:00 22.9 C 67 % 16.45 C
3035 10-08-2019 12:50:00 22.9 C 65 % 15.97 C
3036 10-08-2019 12:55:00 22.8 C 66 % 16.12 C
3037 10-08-2019 13:00:00 22.8 C 65 % 15.88 C
3038 10-08-2019 13:05:00 22.9 C 65 % 15.97 C
3039 10-08-2019 13:10:00 23.1 C 63 % 15.67 C
3040 10-08-2019 13:15:00 23.3 C 64 % 16.11 C
3041 10-08-2019 13:20:00 23.4 C 62 % 15.71 C
3042 10-08-2019 13:25:00 23.4 C 64 % 16.2 C
3043 10-08-2019 13:30:00 23.4 C 64 % 16.2 C
3044 10-08-2019 13:35:00 23.4 C 63 % 15.96 C
3045 10-08-2019 13:40:00 23.6 C 63 % 16.14 C
3046 10-08-2019 13:45:00 23.5 C 62 % 15.8 C
3047 10-08-2019 13:50:00 23.3 C 63 % 15.86 C
3048 10-08-2019 13:55:00 23.1 C 63 % 15.67 C
3049 10-08-2019 14:00:00 23.1 C 63 % 15.67 C
3050 10-08-2019 14:05:00 23.4 C 62 % 15.71 C
Sensor: Nr:Datum:Temp:Feuchte:Taupunkt:
Aussen-T/F 3051 10-08-2019 14:10:00 23.6 C 62 % 15.89 C
3052 10-08-2019 14:15:00 23.7 C 61 % 15.73 C
3053 10-08-2019 14:20:00 23.8 C 62 % 16.08 C
3054 10-08-2019 14:25:00 24 C 59 % 15.5 C
3055 10-08-2019 14:30:00 23.9 C 62 % 16.18 C
3056 10-08-2019 14:35:00 23.8 C 62 % 16.08 C
3057 10-08-2019 14:40:00 24 C 60 % 15.76 C
3058 10-08-2019 14:45:00 24.1 C 60 % 15.85 C
3059 10-08-2019 14:50:00 24.2 C 58 % 15.42 C
3060 10-08-2019 14:55:00 24.4 C 58 % 15.6 C
3061 10-08-2019 15:00:00 24.6 C 57 % 15.52 C
3062 10-08-2019 15:05:00 24.6 C 55 % 14.96 C
3063 10-08-2019 15:10:00 24.6 C 57 % 15.52 C
3064 10-08-2019 15:15:00 24.8 C 57 % 15.7 C
3065 10-08-2019 15:20:00 25.1 C 55 % 15.43 C
3066 10-08-2019 15:25:00 24.9 C 55 % 15.24 C
3067 10-08-2019 15:30:00 24.7 C 56 % 15.33 C
3068 10-08-2019 15:35:00 24.8 C 59 % 16.24 C
3069 10-08-2019 15:40:00 25.2 C 55 % 15.52 C
3070 10-08-2019 15:45:00 25.5 C 54 % 15.51 C
3071 10-08-2019 15:50:00 25.7 C 52 % 15.11 C
3072 10-08-2019 15:55:00 25.4 C 53 % 15.13 C
3073 10-08-2019 16:00:00 25.1 C 55 % 15.43 C
3074 10-08-2019 16:05:00 25.2 C 53 % 14.94 C
3075 10-08-2019 16:10:00 24.9 C 52 % 14.37 C
Sensor: Nr:Datum:Temp:Feuchte:Taupunkt:
Aussen-T/F 3076 10-08-2019 16:15:00 24.8 C 54 % 14.86 C
3077 10-08-2019 16:20:00 25.3 C 53 % 15.03 C
3078 10-08-2019 16:25:00 25.6 C 55 % 15.89 C
3079 10-08-2019 16:30:00 25.7 C 52 % 15.11 C
3080 10-08-2019 16:35:00 25.4 C 52 % 14.83 C
3081 10-08-2019 16:40:00 25.1 C 55 % 15.43 C
3082 10-08-2019 16:45:00 25.1 C 53 % 14.85 C
3083 10-08-2019 16:50:00 25.3 C 58 % 16.44 C
3084 10-08-2019 16:55:00 25.4 C 50 % 14.22 C
3085 10-08-2019 17:00:00 25.8 C 52 % 15.2 C
3086 10-08-2019 17:05:00 25.8 C 49 % 14.28 C
3087 10-08-2019 17:10:00 25.7 C 49 % 14.19 C
3088 10-08-2019 17:15:00 25.9 C 50 % 14.68 C
3089 10-08-2019 17:20:00 26.2 C 51 % 15.27 C
3090 10-08-2019 17:25:00 26.4 C 48 % 14.51 C
3091 10-08-2019 17:30:00 26.6 C 50 % 15.32 C
3092 10-08-2019 17:35:00 26.8 C 48 % 14.87 C
3093 10-08-2019 17:40:00 26.8 C 47 % 14.55 C
3094 10-08-2019 17:45:00 26.7 C 47 % 14.45 C
3095 10-08-2019 17:50:00 26.4 C 49 % 14.83 C
3096 10-08-2019 17:55:00 26.4 C 51 % 15.45 C
3097 10-08-2019 18:00:00 26.8 C 48 % 14.87 C
3098 10-08-2019 18:05:00 26.7 C 46 % 14.12 C
3099 10-08-2019 18:10:00 26.4 C 47 % 14.18 C
3100 10-08-2019 18:15:00 26.4 C 47 % 14.18 C
Sensor: Nr:Datum:Temp:Feuchte:Taupunkt:
Aussen-T/F 3101 10-08-2019 18:20:00 26.3 C 48 % 14.42 C
3102 10-08-2019 18:25:00 26.2 C 51 % 15.27 C
3103 10-08-2019 18:30:00 25.9 C 49 % 14.37 C
3104 10-08-2019 18:35:00 25.5 C 49 % 14 C
3105 10-08-2019 18:40:00 25.2 C 50 % 14.04 C
3106 10-08-2019 18:45:00 25.2 C 52 % 14.65 C
3107 10-08-2019 18:50:00 25.5 C 50 % 14.32 C
3108 10-08-2019 18:55:00 25.8 C 52 % 15.2 C
3109 10-08-2019 19:00:00 25.8 C 49 % 14.28 C
3110 10-08-2019 19:05:00 25.9 C 47 % 13.73 C
3111 10-08-2019 19:10:00 25.8 C 47 % 13.64 C
3112 10-08-2019 19:15:00 25.7 C 48 % 13.87 C
3113 10-08-2019 19:20:00 25.5 C 48 % 13.69 C
3114 10-08-2019 19:25:00 25.1 C 49 % 13.64 C
3115 10-08-2019 19:30:00 24.9 C 51 % 14.07 C
3116 10-08-2019 19:35:00 24.8 C 49 % 13.36 C
3117 10-08-2019 19:40:00 24.4 C 50 % 13.31 C
3118 10-08-2019 19:45:00 24.2 C 53 % 14.02 C
3119 10-08-2019 19:50:00 24.1 C 52 % 13.63 C
3120 10-08-2019 19:55:00 23.9 C 53 % 13.74 C
3121 10-08-2019 20:00:00 23.9 C 52 % 13.45 C
3122 10-08-2019 20:05:00 23.8 C 52 % 13.36 C
3123 10-08-2019 20:10:00 23.8 C 55 % 14.22 C
3124 10-08-2019 20:15:00 23.7 C 56 % 14.4 C
3125 10-08-2019 20:20:00 23.4 C 60 % 15.19 C
Sensor: Nr:Datum:Temp:Feuchte:Taupunkt:
Aussen-T/F 3126 10-08-2019 20:25:00 23 C 62 % 15.33 C
3127 10-08-2019 20:30:00 22.7 C 64 % 15.54 C
3128 10-08-2019 20:35:00 22.2 C 66 % 15.55 C
3129 10-08-2019 20:40:00 21.8 C 64 % 14.69 C
3130 10-08-2019 20:45:00 21.4 C 67 % 15.02 C
3131 10-08-2019 20:50:00 21.1 C 68 % 14.97 C
3132 10-08-2019 20:55:00 20.8 C 69 % 14.91 C
3133 10-08-2019 21:00:00 20.5 C 69 % 14.62 C
3134 10-08-2019 21:05:00 20.2 C 68 % 14.11 C
3135 10-08-2019 21:10:00 20 C 71 % 14.58 C
3136 10-08-2019 21:15:00 19.8 C 71 % 14.39 C
3137 10-08-2019 21:20:00 19.6 C 71 % 14.2 C
3138 10-08-2019 21:25:00 19.4 C 72 % 14.22 C
3139 10-08-2019 21:30:00 19.3 C 73 % 14.34 C
3140 10-08-2019 21:35:00 19.1 C 74 % 14.36 C
3141 10-08-2019 21:40:00 19 C 75 % 14.47 C
3142 10-08-2019 21:45:00 18.8 C 75 % 14.28 C
3143 10-08-2019 21:50:00 18.7 C 76 % 14.39 C
3144 10-08-2019 21:55:00 18.6 C 77 % 14.49 C
3145 10-08-2019 22:00:00 18.4 C 76 % 14.1 C
3146 10-08-2019 22:05:00 18.3 C 77 % 14.2 C
3147 10-08-2019 22:10:00 18.2 C 77 % 14.1 C
3148 10-08-2019 22:15:00 18.1 C 79 % 14.4 C
3149 10-08-2019 22:20:00 17.9 C 79 % 14.21 C
3150 10-08-2019 22:25:00 17.7 C 78 % 13.82 C
Sensor: Nr:Datum:Temp:Feuchte:Taupunkt:
Aussen-T/F 3151 10-08-2019 22:30:00 17.6 C 79 % 13.92 C
3152 10-08-2019 22:35:00 17.4 C 79 % 13.72 C
3153 10-08-2019 22:40:00 17.3 C 79 % 13.63 C
3154 10-08-2019 22:45:00 17.3 C 80 % 13.82 C
3155 10-08-2019 22:50:00 17.2 C 81 % 13.91 C
3156 10-08-2019 22:55:00 17.2 C 81 % 13.91 C
3157 10-08-2019 23:00:00 17.1 C 81 % 13.82 C
3158 10-08-2019 23:05:00 16.9 C 81 % 13.62 C
3159 10-08-2019 23:10:00 16.8 C 82 % 13.71 C
3160 10-08-2019 23:15:00 16.7 C 82 % 13.61 C
3161 10-08-2019 23:20:00 16.6 C 82 % 13.52 C
3162 10-08-2019 23:25:00 16.4 C 81 % 13.13 C
3163 10-08-2019 23:30:00 16.3 C 81 % 13.04 C
3164 10-08-2019 23:35:00 16.2 C 82 % 13.13 C
3165 10-08-2019 23:40:00 16.2 C 83 % 13.31 C
3166 10-08-2019 23:45:00 16.1 C 83 % 13.21 C
3167 10-08-2019 23:50:00 16.1 C 83 % 13.21 C
3168 10-08-2019 23:55:00 16.1 C 83 % 13.21 C
3169 11-08-2019 00:00:00 16 C 84 % 13.3 C
3170 11-08-2019 00:05:00 15.9 C 85 % 13.38 C
3171 11-08-2019 00:10:00 15.9 C 85 % 13.38 C
3172 11-08-2019 00:15:00 15.8 C 85 % 13.28 C
3173 11-08-2019 00:20:00 15.8 C 84 % 13.1 C
3174 11-08-2019 00:25:00 15.8 C 85 % 13.28 C
3175 11-08-2019 00:30:00 15.7 C 84 % 13.01 C
Sensor: Nr:Datum:Temp:Feuchte:Taupunkt:
Aussen-T/F 3176 11-08-2019 00:35:00 15.7 C 85 % 13.19 C
3177 11-08-2019 00:40:00 15.7 C 85 % 13.19 C
3178 11-08-2019 00:45:00 15.6 C 85 % 13.09 C
3179 11-08-2019 00:50:00 15.6 C 85 % 13.09 C
3180 11-08-2019 00:55:00 15.6 C 86 % 13.27 C
3181 11-08-2019 01:00:00 15.6 C 87 % 13.45 C
3182 11-08-2019 01:05:00 15.6 C 87 % 13.45 C
3183 11-08-2019 01:10:00 15.5 C 87 % 13.35 C
3184 11-08-2019 01:15:00 15.4 C 87 % 13.25 C
3185 11-08-2019 01:20:00 15.4 C 87 % 13.25 C
3186 11-08-2019 01:25:00 15.4 C 87 % 13.25 C
3187 11-08-2019 01:30:00 15.3 C 87 % 13.15 C
3188 11-08-2019 01:35:00 15.3 C 87 % 13.15 C
3189 11-08-2019 01:40:00 15.2 C 88 % 13.23 C
3190 11-08-2019 01:45:00 15.2 C 88 % 13.23 C
3191 11-08-2019 01:50:00 15.3 C 88 % 13.33 C
3192 11-08-2019 01:55:00 15.3 C 88 % 13.33 C
3193 11-08-2019 02:00:00 15.4 C 88 % 13.42 C
3194 11-08-2019 02:05:00 15.5 C 87 % 13.35 C
3195 11-08-2019 02:10:00 15.6 C 87 % 13.45 C
3196 11-08-2019 02:15:00 15.7 C 87 % 13.54 C
3197 11-08-2019 02:20:00 15.7 C 87 % 13.54 C
3198 11-08-2019 02:25:00 15.8 C 86 % 13.46 C
3199 11-08-2019 02:30:00 15.8 C 86 % 13.46 C
3200 11-08-2019 02:35:00 15.8 C 87 % 13.64 C
Sensor: Nr:Datum:Temp:Feuchte:Taupunkt:
Aussen-T/F 3201 11-08-2019 02:40:00 15.8 C 86 % 13.46 C
3202 11-08-2019 02:45:00 15.8 C 86 % 13.46 C
3203 11-08-2019 02:50:00 15.8 C 86 % 13.46 C
3204 11-08-2019 02:55:00 15.7 C 85 % 13.19 C
3205 11-08-2019 03:00:00 15.7 C 85 % 13.19 C
3206 11-08-2019 03:05:00 15.6 C 85 % 13.09 C
3207 11-08-2019 03:10:00 15.6 C 86 % 13.27 C
3208 11-08-2019 03:15:00 15.4 C 86 % 13.07 C
3209 11-08-2019 03:20:00 15.3 C 86 % 12.97 C
3210 11-08-2019 03:25:00 15.2 C 86 % 12.88 C
3211 11-08-2019 03:30:00 15.1 C 87 % 12.95 C
3212 11-08-2019 03:35:00 15.1 C 87 % 12.95 C
3213 11-08-2019 03:40:00 15 C 87 % 12.86 C
3214 11-08-2019 03:45:00 14.9 C 87 % 12.76 C
3215 11-08-2019 03:50:00 14.8 C 88 % 12.83 C
3216 11-08-2019 03:55:00 14.8 C 88 % 12.83 C
3217 11-08-2019 04:00:00 14.7 C 88 % 12.73 C
3218 11-08-2019 04:05:00 14.7 C 88 % 12.73 C
3219 11-08-2019 04:10:00 14.6 C 88 % 12.64 C
3220 11-08-2019 04:15:00 14.6 C 88 % 12.64 C
3221 11-08-2019 04:20:00 14.6 C 88 % 12.64 C
3222 11-08-2019 04:25:00 14.5 C 88 % 12.54 C
3223 11-08-2019 04:30:00 14.4 C 88 % 12.44 C
3224 11-08-2019 04:35:00 14.3 C 88 % 12.34 C
3225 11-08-2019 04:40:00 14.2 C 89 % 12.41 C
Sensor: Nr:Datum:Temp:Feuchte:Taupunkt:
Aussen-T/F 3226 11-08-2019 04:45:00 14.2 C 89 % 12.41 C
3227 11-08-2019 04:50:00 14.2 C 89 % 12.41 C
3228 11-08-2019 04:55:00 14.2 C 89 % 12.41 C
3229 11-08-2019 05:00:00 14.1 C 89 % 12.32 C
3230 11-08-2019 05:05:00 13.9 C 89 % 12.12 C
3231 11-08-2019 05:10:00 13.8 C 90 % 12.19 C
3232 11-08-2019 05:15:00 13.7 C 90 % 12.09 C
3233 11-08-2019 05:20:00 13.7 C 90 % 12.09 C
3234 11-08-2019 05:25:00 13.6 C 90 % 11.99 C
3235 11-08-2019 05:30:00 13.6 C 90 % 11.99 C
3236 11-08-2019 05:35:00 13.4 C 90 % 11.79 C
3237 11-08-2019 05:40:00 13.3 C 91 % 11.86 C
3238 11-08-2019 05:45:00 13.3 C 91 % 11.86 C
3239 11-08-2019 05:50:00 13.3 C 91 % 11.86 C
3240 11-08-2019 05:55:00 13.3 C 91 % 11.86 C
3241 11-08-2019 06:00:00 13.2 C 91 % 11.76 C
3242 11-08-2019 06:05:00 13.2 C 92 % 11.93 C
3243 11-08-2019 06:10:00 13.1 C 92 % 11.83 C
3244 11-08-2019 06:15:00 13.1 C 92 % 11.83 C
3245 11-08-2019 06:20:00 13.2 C 93 % 12.09 C
3246 11-08-2019 06:25:00 13.3 C 93 % 12.19 C
3247 11-08-2019 06:30:00 13.5 C 94 % 12.55 C
3248 11-08-2019 06:35:00 13.6 C 93 % 12.49 C
3249 11-08-2019 06:40:00 13.6 C 93 % 12.49 C
3250 11-08-2019 06:45:00 13.7 C 93 % 12.59 C
Sensor: Nr:Datum:Temp:Feuchte:Taupunkt:
Aussen-T/F 3251 11-08-2019 06:50:00 13.7 C 93 % 12.59 C
3252 11-08-2019 06:55:00 13.7 C 93 % 12.59 C
3253 11-08-2019 07:00:00 13.7 C 93 % 12.59 C
3254 11-08-2019 07:05:00 13.8 C 93 % 12.69 C
3255 11-08-2019 07:10:00 13.8 C 93 % 12.69 C
3256 11-08-2019 07:15:00 13.8 C 92 % 12.52 C
3257 11-08-2019 07:20:00 13.9 C 93 % 12.79 C
3258 11-08-2019 07:25:00 13.9 C 93 % 12.79 C
3259 11-08-2019 07:30:00 14.1 C 92 % 12.82 C
3260 11-08-2019 07:35:00 14.3 C 92 % 13.02 C
3261 11-08-2019 07:40:00 14.3 C 92 % 13.02 C
3262 11-08-2019 07:45:00 14.3 C 91 % 12.85 C
3263 11-08-2019 07:50:00 14.3 C 91 % 12.85 C
3264 11-08-2019 07:55:00 14.3 C 92 % 13.02 C
3265 11-08-2019 08:00:00 14.4 C 92 % 13.12 C
3266 11-08-2019 08:05:00 14.6 C 92 % 13.32 C
3267 11-08-2019 08:10:00 14.7 C 92 % 13.41 C
3268 11-08-2019 08:15:00 14.8 C 92 % 13.51 C
3269 11-08-2019 08:20:00 14.8 C 92 % 13.51 C
3270 11-08-2019 08:25:00 14.9 C 91 % 13.44 C
3271 11-08-2019 08:30:00 14.9 C 91 % 13.44 C
3272 11-08-2019 08:35:00 15 C 91 % 13.54 C
3273 11-08-2019 08:40:00 15.1 C 90 % 13.47 C
3274 11-08-2019 08:45:00 15.1 C 91 % 13.64 C
3275 11-08-2019 08:50:00 15.2 C 91 % 13.74 C
Sensor: Nr:Datum:Temp:Feuchte:Taupunkt:
Aussen-T/F 3276 11-08-2019 08:55:00 15.3 C 91 % 13.84 C
3277 11-08-2019 09:00:00 15.3 C 90 % 13.67 C
3278 11-08-2019 09:05:00 15.3 C 90 % 13.67 C
3279 11-08-2019 09:10:00 15.4 C 90 % 13.77 C
3280 11-08-2019 09:15:00 15.6 C 91 % 14.14 C
3281 11-08-2019 09:20:00 15.8 C 90 % 14.16 C
3282 11-08-2019 09:25:00 15.9 C 89 % 14.09 C
3283 11-08-2019 09:30:00 16.2 C 86 % 13.86 C
3284 11-08-2019 09:35:00 16.6 C 86 % 14.25 C
3285 11-08-2019 09:40:00 16.8 C 86 % 14.45 C
3286 11-08-2019 09:45:00 16.9 C 84 % 14.18 C
3287 11-08-2019 09:50:00 17.2 C 82 % 14.1 C
3288 11-08-2019 09:55:00 17.6 C 81 % 14.3 C
3289 11-08-2019 10:00:00 17.9 C 78 % 14.01 C
3290 11-08-2019 10:05:00 18.3 C 75 % 13.79 C
3291 11-08-2019 10:10:00 18.7 C 75 % 14.18 C
3292 11-08-2019 10:15:00 18.8 C 75 % 14.28 C
3293 11-08-2019 10:20:00 18.9 C 72 % 13.74 C
3294 11-08-2019 10:25:00 19.2 C 71 % 13.82 C
3295 11-08-2019 10:30:00 19.5 C 68 % 13.44 C
3296 11-08-2019 10:35:00 19.8 C 68 % 13.73 C
3297 11-08-2019 10:40:00 20.1 C 65 % 13.32 C
3298 11-08-2019 10:45:00 20.3 C 64 % 13.27 C
3299 11-08-2019 10:50:00 20.4 C 63 % 13.12 C
3300 11-08-2019 10:55:00 20.6 C 63 % 13.31 C
Sensor: Nr:Datum:Temp:Feuchte:Taupunkt:
Aussen-T/F 3301 11-08-2019 11:00:00 20.7 C 62 % 13.16 C
3302 11-08-2019 11:05:00 20.7 C 61 % 12.91 C
3303 11-08-2019 11:10:00 20.8 C 60 % 12.76 C
3304 11-08-2019 11:15:00 20.8 C 60 % 12.76 C
3305 11-08-2019 11:20:00 20.9 C 60 % 12.85 C
3306 11-08-2019 11:25:00 21.2 C 60 % 13.13 C
3307 11-08-2019 11:30:00 21.3 C 62 % 13.73 C
3308 11-08-2019 11:35:00 21.6 C 59 % 13.25 C
3309 11-08-2019 11:40:00 21.8 C 57 % 12.91 C
3310 11-08-2019 11:45:00 21.8 C 55 % 12.36 C
3311 11-08-2019 11:50:00 21.8 C 59 % 13.44 C
3312 11-08-2019 11:55:00 21.8 C 56 % 12.64 C
3313 11-08-2019 12:00:00 21.8 C 58 % 13.17 C
3314 11-08-2019 12:05:00 21.8 C 58 % 13.17 C
3315 11-08-2019 12:10:00 21.8 C 58 % 13.17 C
3316 11-08-2019 12:15:00 22 C 56 % 12.82 C
3317 11-08-2019 12:20:00 22.1 C 57 % 13.19 C
3318 11-08-2019 12:25:00 22.2 C 55 % 12.73 C
3319 11-08-2019 12:30:00 22.1 C 55 % 12.64 C
3320 11-08-2019 12:35:00 22.2 C 55 % 12.73 C
3321 11-08-2019 12:40:00 22.1 C 56 % 12.92 C
3322 11-08-2019 12:45:00 22.2 C 54 % 12.45 C
3323 11-08-2019 12:50:00 22.3 C 55 % 12.83 C
3324 11-08-2019 12:55:00 22.5 C 53 % 12.45 C
3325 11-08-2019 13:00:00 22.6 C 50 % 11.66 C
Sensor: Nr:Datum:Temp:Feuchte:Taupunkt:
Aussen-T/F 3326 11-08-2019 13:05:00 22.6 C 51 % 11.96 C
3327 11-08-2019 13:10:00 22.7 C 52 % 12.34 C
3328 11-08-2019 13:15:00 22.7 C 51 % 12.05 C
3329 11-08-2019 13:20:00 22.7 C 51 % 12.05 C
3330 11-08-2019 13:25:00 22.7 C 52 % 12.34 C
3331 11-08-2019 13:30:00 22.8 C 51 % 12.14 C
3332 11-08-2019 13:35:00 22.7 C 50 % 11.75 C
3333 11-08-2019 13:40:00 22.8 C 53 % 12.73 C
3334 11-08-2019 13:45:00 22.9 C 51 % 12.23 C
3335 11-08-2019 13:50:00 23 C 50 % 12.02 C
3336 11-08-2019 13:55:00 23.1 C 51 % 12.42 C
3337 11-08-2019 14:00:00 23.1 C 51 % 12.42 C
3338 11-08-2019 14:05:00 23.1 C 50 % 12.11 C
3339 11-08-2019 14:10:00 23.1 C 52 % 12.71 C
3340 11-08-2019 14:15:00 23.2 C 52 % 12.8 C
3341 11-08-2019 14:20:00 23.3 C 53 % 13.19 C
3342 11-08-2019 14:25:00 23.2 C 51 % 12.51 C
3343 11-08-2019 14:30:00 22.9 C 51 % 12.23 C
3344 11-08-2019 14:35:00 22.7 C 51 % 12.05 C
3345 11-08-2019 14:40:00 22.6 C 51 % 11.96 C
3346 11-08-2019 14:45:00 22.6 C 52 % 12.25 C
3347 11-08-2019 14:50:00 22.5 C 58 % 13.83 C
3348 11-08-2019 14:55:00 22.4 C 59 % 14 C
3349 11-08-2019 15:00:00 22.2 C 56 % 13.01 C
3350 11-08-2019 15:05:00 22 C 57 % 13.09 C
Sensor: Nr:Datum:Temp:Feuchte:Taupunkt:
Aussen-T/F 3351 11-08-2019 15:10:00 21.8 C 55 % 12.36 C
3352 11-08-2019 15:15:00 21.7 C 59 % 13.34 C
3353 11-08-2019 15:20:00 21.6 C 56 % 12.45 C
3354 11-08-2019 15:25:00 21.6 C 62 % 14.01 C
3355 11-08-2019 15:30:00 21.4 C 64 % 14.31 C
3356 11-08-2019 15:35:00 21.4 C 66 % 14.79 C
3357 11-08-2019 15:40:00 21.3 C 63 % 13.97 C
3358 11-08-2019 15:45:00 21.2 C 67 % 14.83 C
3359 11-08-2019 15:50:00 21 C 65 % 14.17 C
3360 11-08-2019 15:55:00 20.9 C 66 % 14.31 C
3361 11-08-2019 16:00:00 20.8 C 60 % 12.76 C
3362 11-08-2019 16:05:00 20.8 C 66 % 14.22 C
3363 11-08-2019 16:10:00 20.7 C 63 % 13.41 C
3364 11-08-2019 16:15:00 20.6 C 65 % 13.79 C
3365 11-08-2019 16:20:00 20.5 C 65 % 13.7 C
3366 11-08-2019 16:25:00 20.4 C 68 % 14.3 C
3367 11-08-2019 16:30:00 20.3 C 66 % 13.74 C
3368 11-08-2019 16:35:00 20.2 C 73 % 15.21 C
3369 11-08-2019 16:40:00 19.8 C 75 % 15.24 C
3370 11-08-2019 16:45:00 19.3 C 78 % 15.37 C
3371 11-08-2019 16:50:00 18.8 C 80 % 15.28 C
3372 11-08-2019 16:55:00 18.4 C 81 % 15.08 C
3373 11-08-2019 17:00:00 18.2 C 83 % 15.27 C
3374 11-08-2019 17:05:00 17.8 C 84 % 15.06 C
3375 11-08-2019 17:10:00 17.6 C 85 % 15.05 C
Sensor: Nr:Datum:Temp:Feuchte:Taupunkt:
Aussen-T/F 3376 11-08-2019 17:15:00 17.4 C 86 % 15.03 C
3377 11-08-2019 17:20:00 17.2 C 86 % 14.84 C
3378 11-08-2019 17:25:00 17.1 C 87 % 14.92 C
3379 11-08-2019 17:30:00 17 C 87 % 14.82 C
3380 11-08-2019 17:35:00 16.8 C 87 % 14.62 C
3381 11-08-2019 17:40:00 16.8 C 89 % 14.98 C
3382 11-08-2019 17:45:00 16.8 C 89 % 14.98 C
3383 11-08-2019 17:50:00 16.8 C 89 % 14.98 C
3384 11-08-2019 17:55:00 16.7 C 90 % 15.05 C
3385 11-08-2019 18:00:00 16.7 C 90 % 15.05 C
3386 11-08-2019 18:05:00 16.6 C 90 % 14.95 C
3387 11-08-2019 18:10:00 16.5 C 90 % 14.85 C
3388 11-08-2019 18:15:00 16.5 C 91 % 15.03 C
3389 11-08-2019 18:20:00 16.6 C 91 % 15.13 C
3390 11-08-2019 18:25:00 16.6 C 91 % 15.13 C
3391 11-08-2019 18:30:00 16.6 C 91 % 15.13 C
3392 11-08-2019 18:35:00 16.5 C 91 % 15.03 C
3393 11-08-2019 18:40:00 16.4 C 91 % 14.93 C
3394 11-08-2019 18:45:00 16.3 C 90 % 14.66 C
3395 11-08-2019 18:50:00 16.2 C 90 % 14.56 C
3396 11-08-2019 18:55:00 16.2 C 89 % 14.39 C
3397 11-08-2019 19:00:00 16.1 C 89 % 14.29 C
3398 11-08-2019 19:05:00 16.1 C 89 % 14.29 C
3399 11-08-2019 19:10:00 16 C 89 % 14.19 C
3400 11-08-2019 19:15:00 15.9 C 88 % 13.92 C
Sensor: Nr:Datum:Temp:Feuchte:Taupunkt:
Aussen-T/F 3401 11-08-2019 19:20:00 15.9 C 89 % 14.09 C
3402 11-08-2019 19:25:00 16 C 89 % 14.19 C
3403 11-08-2019 19:30:00 16.1 C 90 % 14.46 C
3404 11-08-2019 19:35:00 16.2 C 90 % 14.56 C
3405 11-08-2019 19:40:00 16.2 C 91 % 14.73 C
3406 11-08-2019 19:45:00 16.2 C 91 % 14.73 C
3407 11-08-2019 19:50:00 16.1 C 90 % 14.46 C
3408 11-08-2019 19:55:00 16.1 C 91 % 14.63 C
3409 11-08-2019 20:00:00 16.1 C 91 % 14.63 C
3410 11-08-2019 20:05:00 16 C 91 % 14.53 C
3411 11-08-2019 20:10:00 15.9 C 91 % 14.43 C
3412 11-08-2019 20:15:00 15.9 C 91 % 14.43 C
3413 11-08-2019 20:20:00 15.8 C 91 % 14.33 C
3414 11-08-2019 20:25:00 15.8 C 91 % 14.33 C
3415 11-08-2019 20:30:00 15.7 C 91 % 14.24 C
3416 11-08-2019 20:35:00 15.7 C 91 % 14.24 C
3417 11-08-2019 20:40:00 15.6 C 91 % 14.14 C
3418 11-08-2019 20:45:00 15.6 C 91 % 14.14 C
3419 11-08-2019 20:50:00 15.6 C 91 % 14.14 C
3420 11-08-2019 20:55:00 15.6 C 91 % 14.14 C
3421 11-08-2019 21:00:00 15.5 C 91 % 14.04 C
3422 11-08-2019 21:05:00 15.4 C 92 % 14.11 C
3423 11-08-2019 21:10:00 15.4 C 92 % 14.11 C
3424 11-08-2019 21:15:00 15.4 C 92 % 14.11 C
3425 11-08-2019 21:20:00 15.3 C 92 % 14.01 C
Sensor: Nr:Datum:Temp:Feuchte:Taupunkt:
Aussen-T/F 3426 11-08-2019 21:25:00 15.3 C 92 % 14.01 C
3427 11-08-2019 21:30:00 15.3 C 92 % 14.01 C
3428 11-08-2019 21:35:00 15.2 C 92 % 13.91 C
3429 11-08-2019 21:40:00 15.2 C 92 % 13.91 C
3430 11-08-2019 21:45:00 15.1 C 92 % 13.81 C
3431 11-08-2019 21:50:00 14.9 C 91 % 13.44 C
3432 11-08-2019 21:55:00 14.8 C 91 % 13.35 C
3433 11-08-2019 22:00:00 14.7 C 91 % 13.25 C
3434 11-08-2019 22:05:00 14.6 C 91 % 13.15 C
3435 11-08-2019 22:10:00 14.5 C 91 % 13.05 C
3436 11-08-2019 22:15:00 14.4 C 91 % 12.95 C
3437 11-08-2019 22:20:00 14.3 C 92 % 13.02 C
3438 11-08-2019 22:25:00 14.3 C 92 % 13.02 C
3439 11-08-2019 22:30:00 14.2 C 92 % 12.92 C
3440 11-08-2019 22:35:00 14.2 C 92 % 12.92 C
3441 11-08-2019 22:40:00 14.1 C 92 % 12.82 C
3442 11-08-2019 22:45:00 14.1 C 92 % 12.82 C
3443 11-08-2019 22:50:00 14.1 C 93 % 12.99 C
3444 11-08-2019 22:55:00 14.1 C 93 % 12.99 C
3445 11-08-2019 23:00:00 14.1 C 93 % 12.99 C
3446 11-08-2019 23:05:00 14.1 C 93 % 12.99 C
3447 11-08-2019 23:10:00 14.2 C 93 % 13.08 C
3448 11-08-2019 23:15:00 14.2 C 93 % 13.08 C
3449 11-08-2019 23:20:00 14.2 C 93 % 13.08 C
3450 11-08-2019 23:25:00 14.2 C 93 % 13.08 C
Sensor: Nr:Datum:Temp:Feuchte:Taupunkt:
Aussen-T/F 3451 11-08-2019 23:30:00 14.2 C 93 % 13.08 C
3452 11-08-2019 23:35:00 14.2 C 93 % 13.08 C
3453 11-08-2019 23:40:00 14.2 C 94 % 13.25 C
3454 11-08-2019 23:45:00 14.3 C 94 % 13.35 C
3455 11-08-2019 23:50:00 14.4 C 94 % 13.45 C
3456 11-08-2019 23:55:00 14.6 C 94 % 13.65 C
3457 12-08-2019 00:00:00 14.7 C 94 % 13.74 C
3458 12-08-2019 00:05:00 14.7 C 93 % 13.58 C
3459 12-08-2019 00:10:00 14.8 C 93 % 13.68 C
3460 12-08-2019 00:15:00 14.8 C 93 % 13.68 C
3461 12-08-2019 00:20:00 14.8 C 93 % 13.68 C
3462 12-08-2019 00:25:00 14.9 C 93 % 13.78 C
3463 12-08-2019 00:30:00 14.8 C 93 % 13.68 C
3464 12-08-2019 00:35:00 14.9 C 92 % 13.61 C
3465 12-08-2019 00:40:00 15 C 92 % 13.71 C
3466 12-08-2019 00:45:00 15 C 92 % 13.71 C
3467 12-08-2019 00:50:00 15 C 92 % 13.71 C
3468 12-08-2019 00:55:00 14.9 C 91 % 13.44 C
3469 12-08-2019 01:00:00 14.8 C 91 % 13.35 C
3470 12-08-2019 01:05:00 14.7 C 91 % 13.25 C
3471 12-08-2019 01:10:00 14.6 C 92 % 13.32 C
3472 12-08-2019 01:15:00 14.5 C 92 % 13.22 C
3473 12-08-2019 01:20:00 14.4 C 92 % 13.12 C
3474 12-08-2019 01:25:00 14.3 C 92 % 13.02 C
3475 12-08-2019 01:30:00 14.3 C 92 % 13.02 C
Sensor: Nr:Datum:Temp:Feuchte:Taupunkt:
Aussen-T/F 3476 12-08-2019 01:35:00 14.2 C 92 % 12.92 C
3477 12-08-2019 01:40:00 14.1 C 92 % 12.82 C
3478 12-08-2019 01:45:00 14.1 C 93 % 12.99 C
3479 12-08-2019 01:50:00 14 C 93 % 12.89 C
3480 12-08-2019 01:55:00 13.9 C 93 % 12.79 C
3481 12-08-2019 02:00:00 13.9 C 93 % 12.79 C
3482 12-08-2019 02:05:00 13.8 C 93 % 12.69 C
3483 12-08-2019 02:10:00 13.8 C 93 % 12.69 C
3484 12-08-2019 02:15:00 13.8 C 93 % 12.69 C
3485 12-08-2019 02:20:00 13.7 C 93 % 12.59 C
3486 12-08-2019 02:25:00 13.7 C 93 % 12.59 C
3487 12-08-2019 02:30:00 13.6 C 93 % 12.49 C
3488 12-08-2019 02:35:00 13.6 C 94 % 12.65 C
3489 12-08-2019 02:40:00 13.6 C 94 % 12.65 C
3490 12-08-2019 02:45:00 13.6 C 94 % 12.65 C
3491 12-08-2019 02:50:00 13.5 C 94 % 12.55 C
3492 12-08-2019 02:55:00 13.4 C 94 % 12.45 C
3493 12-08-2019 03:00:00 13.3 C 94 % 12.36 C
3494 12-08-2019 03:05:00 13.3 C 94 % 12.36 C
3495 12-08-2019 03:10:00 13.3 C 94 % 12.36 C
3496 12-08-2019 03:15:00 13.2 C 94 % 12.26 C
3497 12-08-2019 03:20:00 13.2 C 94 % 12.26 C
3498 12-08-2019 03:25:00 13.1 C 94 % 12.16 C
3499 12-08-2019 03:30:00 13.1 C 94 % 12.16 C
3500 12-08-2019 03:35:00 13.1 C 94 % 12.16 C
Sensor: Nr:Datum:Temp:Feuchte:Taupunkt:
Aussen-T/F 3501 12-08-2019 03:40:00 13 C 94 % 12.06 C
3502 12-08-2019 03:45:00 13 C 94 % 12.06 C
3503 12-08-2019 03:50:00 13 C 94 % 12.06 C
3504 12-08-2019 03:55:00 12.9 C 94 % 11.96 C
3505 12-08-2019 04:00:00 12.9 C 95 % 12.12 C
3506 12-08-2019 04:05:00 12.9 C 95 % 12.12 C
3507 12-08-2019 04:10:00 12.9 C 95 % 12.12 C
3508 12-08-2019 04:15:00 12.9 C 95 % 12.12 C
3509 12-08-2019 04:20:00 13 C 95 % 12.22 C
3510 12-08-2019 04:25:00 13 C 95 % 12.22 C
3511 12-08-2019 04:30:00 12.9 C 95 % 12.12 C
3512 12-08-2019 04:35:00 12.9 C 95 % 12.12 C
3513 12-08-2019 04:40:00 12.9 C 95 % 12.12 C
3514 12-08-2019 04:45:00 12.8 C 95 % 12.02 C
3515 12-08-2019 04:50:00 12.8 C 95 % 12.02 C
3516 12-08-2019 04:55:00 12.8 C 95 % 12.02 C
3517 12-08-2019 05:00:00 12.8 C 95 % 12.02 C
3518 12-08-2019 05:05:00 12.8 C 95 % 12.02 C
3519 12-08-2019 05:10:00 12.8 C 95 % 12.02 C
3520 12-08-2019 05:15:00 12.8 C 95 % 12.02 C
3521 12-08-2019 05:20:00 12.8 C 95 % 12.02 C
3522 12-08-2019 05:25:00 12.7 C 95 % 11.92 C
3523 12-08-2019 05:30:00 12.6 C 95 % 11.82 C
3524 12-08-2019 05:35:00 12.6 C 95 % 11.82 C
3525 12-08-2019 05:40:00 12.6 C 95 % 11.82 C
Sensor: Nr:Datum:Temp:Feuchte:Taupunkt:
Aussen-T/F 3526 12-08-2019 05:45:00 12.6 C 95 % 11.82 C
3527 12-08-2019 05:50:00 12.5 C 95 % 11.72 C
3528 12-08-2019 05:55:00 12.5 C 95 % 11.72 C
3529 12-08-2019 06:00:00 12.5 C 95 % 11.72 C
3530 12-08-2019 06:05:00 12.5 C 95 % 11.72 C
3531 12-08-2019 06:10:00 12.5 C 95 % 11.72 C
3532 12-08-2019 06:15:00 12.5 C 95 % 11.72 C
3533 12-08-2019 06:20:00 12.6 C 95 % 11.82 C
3534 12-08-2019 06:25:00 12.6 C 96 % 11.98 C
3535 12-08-2019 06:30:00 12.7 C 96 % 12.08 C
3536 12-08-2019 06:35:00 12.8 C 96 % 12.18 C
3537 12-08-2019 06:40:00 12.8 C 96 % 12.18 C
3538 12-08-2019 06:45:00 12.9 C 96 % 12.28 C
3539 12-08-2019 06:50:00 12.9 C 96 % 12.28 C
3540 12-08-2019 06:55:00 13 C 96 % 12.38 C
3541 12-08-2019 07:00:00 13 C 96 % 12.38 C
3542 12-08-2019 07:05:00 13.1 C 96 % 12.48 C
3543 12-08-2019 07:10:00 13.1 C 96 % 12.48 C
3544 12-08-2019 07:15:00 13.1 C 96 % 12.48 C
3545 12-08-2019 07:20:00 13.1 C 96 % 12.48 C
3546 12-08-2019 07:25:00 13.1 C 96 % 12.48 C
3547 12-08-2019 07:30:00 13 C 96 % 12.38 C
3548 12-08-2019 07:35:00 13 C 96 % 12.38 C
3549 12-08-2019 07:40:00 13 C 96 % 12.38 C
3550 12-08-2019 07:45:00 13 C 96 % 12.38 C
Sensor: Nr:Datum:Temp:Feuchte:Taupunkt:
Aussen-T/F 3551 12-08-2019 07:50:00 13.1 C 96 % 12.48 C
3552 12-08-2019 07:55:00 13.1 C 96 % 12.48 C
3553 12-08-2019 08:00:00 13.2 C 96 % 12.58 C
3554 12-08-2019 08:05:00 13.2 C 96 % 12.58 C
3555 12-08-2019 08:10:00 13.2 C 96 % 12.58 C
3556 12-08-2019 08:15:00 13.3 C 96 % 12.68 C
3557 12-08-2019 08:20:00 13.3 C 96 % 12.68 C
3558 12-08-2019 08:25:00 13.4 C 96 % 12.78 C
3559 12-08-2019 08:30:00 13.5 C 96 % 12.87 C
3560 12-08-2019 08:35:00 13.6 C 96 % 12.97 C
3561 12-08-2019 08:40:00 13.7 C 96 % 13.07 C
3562 12-08-2019 08:45:00 13.7 C 96 % 13.07 C
3563 12-08-2019 08:50:00 13.9 C 96 % 13.27 C
3564 12-08-2019 08:55:00 14 C 96 % 13.37 C
3565 12-08-2019 09:00:00 14.2 C 96 % 13.57 C
3566 12-08-2019 09:05:00 14.3 C 96 % 13.67 C
3567 12-08-2019 09:10:00 14.4 C 95 % 13.61 C
3568 12-08-2019 09:15:00 14.7 C 94 % 13.74 C
3569 12-08-2019 09:20:00 14.8 C 94 % 13.84 C
3570 12-08-2019 09:25:00 15 C 93 % 13.88 C
3571 12-08-2019 09:30:00 15.1 C 93 % 13.98 C
3572 12-08-2019 09:35:00 15.2 C 92 % 13.91 C
3573 12-08-2019 09:40:00 15.3 C 91 % 13.84 C
3574 12-08-2019 09:45:00 15.6 C 90 % 13.97 C
3575 12-08-2019 09:50:00 15.9 C 89 % 14.09 C
Sensor: Nr:Datum:Temp:Feuchte:Taupunkt:
Aussen-T/F 3576 12-08-2019 09:55:00 16.1 C 88 % 14.11 C
3577 12-08-2019 10:00:00 16.3 C 87 % 14.13 C
3578 12-08-2019 10:05:00 16.6 C 87 % 14.43 C
3579 12-08-2019 10:10:00 16.8 C 85 % 14.26 C
3580 12-08-2019 10:15:00 17.1 C 86 % 14.74 C
3581 12-08-2019 10:20:00 17.3 C 84 % 14.57 C
3582 12-08-2019 10:25:00 17.6 C 83 % 14.68 C
3583 12-08-2019 10:30:00 17.8 C 82 % 14.69 C
3584 12-08-2019 10:35:00 18.1 C 80 % 14.6 C
3585 12-08-2019 10:40:00 18.3 C 81 % 14.98 C
3586 12-08-2019 10:45:00 18.5 C 78 % 14.59 C
3587 12-08-2019 10:50:00 18.7 C 79 % 14.99 C
3588 12-08-2019 10:55:00 18.7 C 78 % 14.79 C
3589 12-08-2019 11:00:00 18.8 C 79 % 15.08 C
3590 12-08-2019 11:05:00 19.1 C 78 % 15.18 C
3591 12-08-2019 11:10:00 19.3 C 76 % 14.97 C
3592 12-08-2019 11:15:00 19.6 C 75 % 15.05 C
3593 12-08-2019 11:20:00 19.8 C 75 % 15.24 C
3594 12-08-2019 11:25:00 20.1 C 72 % 14.9 C
3595 12-08-2019 11:30:00 20.3 C 72 % 15.09 C
3596 12-08-2019 11:35:00 20.4 C 69 % 14.52 C
3597 12-08-2019 11:40:00 20.7 C 69 % 14.81 C
3598 12-08-2019 11:45:00 20.8 C 70 % 15.13 C
3599 12-08-2019 11:50:00 21 C 68 % 14.87 C
3600 12-08-2019 11:55:00 21.1 C 68 % 14.97 C
Sensor: Nr:Datum:Temp:Feuchte:Taupunkt:
Aussen-T/F 3601 12-08-2019 12:00:00 21.1 C 69 % 15.19 C
3602 12-08-2019 12:05:00 21.1 C 67 % 14.74 C
3603 12-08-2019 12:10:00 21.2 C 70 % 15.51 C
3604 12-08-2019 12:15:00 21.3 C 67 % 14.93 C
3605 12-08-2019 12:20:00 21.2 C 67 % 14.83 C
3606 12-08-2019 12:25:00 21.1 C 66 % 14.5 C
3607 12-08-2019 12:30:00 21.1 C 68 % 14.97 C
3608 12-08-2019 12:35:00 21.2 C 66 % 14.6 C
3609 12-08-2019 12:40:00 21.3 C 63 % 13.97 C
3610 12-08-2019 12:45:00 21.4 C 65 % 14.55 C
3611 12-08-2019 12:50:00 21.6 C 61 % 13.76 C
3612 12-08-2019 12:55:00 21.7 C 59 % 13.34 C
3613 12-08-2019 13:00:00 21.7 C 58 % 13.08 C
3614 12-08-2019 13:05:00 21.8 C 59 % 13.44 C
3615 12-08-2019 13:10:00 21.8 C 59 % 13.44 C
3616 12-08-2019 13:15:00 21.8 C 60 % 13.69 C
3617 12-08-2019 13:20:00 21.8 C 61 % 13.95 C
3618 12-08-2019 13:25:00 21.9 C 61 % 14.04 C
3619 12-08-2019 13:30:00 21.9 C 59 % 13.53 C
3620 12-08-2019 13:35:00 21.9 C 62 % 14.29 C
3621 12-08-2019 13:40:00 21.8 C 61 % 13.95 C
3622 12-08-2019 13:45:00 21.6 C 64 % 14.5 C
3623 12-08-2019 13:50:00 21.6 C 63 % 14.26 C
3624 12-08-2019 13:55:00 21.7 C 62 % 14.1 C
3625 12-08-2019 14:00:00 21.8 C 62 % 14.2 C
Sensor: Nr:Datum:Temp:Feuchte:Taupunkt:
Aussen-T/F 3626 12-08-2019 14:05:00 21.9 C 62 % 14.29 C
3627 12-08-2019 14:10:00 22.1 C 63 % 14.73 C
3628 12-08-2019 14:15:00 22.3 C 61 % 14.42 C
3629 12-08-2019 14:20:00 22.4 C 61 % 14.51 C
3630 12-08-2019 14:25:00 22.5 C 60 % 14.35 C
3631 12-08-2019 14:30:00 22.6 C 58 % 13.92 C
3632 12-08-2019 14:35:00 22.7 C 61 % 14.79 C
3633 12-08-2019 14:40:00 22.9 C 59 % 14.47 C
3634 12-08-2019 14:45:00 22.9 C 61 % 14.98 C
3635 12-08-2019 14:50:00 23.2 C 58 % 14.48 C
3636 12-08-2019 14:55:00 23.3 C 57 % 14.31 C
3637 12-08-2019 15:00:00 23.6 C 59 % 15.12 C
3638 12-08-2019 15:05:00 23.6 C 56 % 14.31 C
3639 12-08-2019 15:10:00 23.7 C 56 % 14.4 C
3640 12-08-2019 15:15:00 23.7 C 54 % 13.84 C
3641 12-08-2019 15:20:00 23.5 C 54 % 13.66 C
3642 12-08-2019 15:25:00 23.3 C 56 % 14.03 C
3643 12-08-2019 15:30:00 23.2 C 56 % 13.94 C
3644 12-08-2019 15:35:00 23.4 C 57 % 14.4 C
3645 12-08-2019 15:40:00 23.2 C 55 % 13.66 C
3646 12-08-2019 15:45:00 23 C 56 % 13.75 C
3647 12-08-2019 15:50:00 23.5 C 55 % 13.94 C
3648 12-08-2019 15:55:00 24 C 53 % 13.83 C
3649 12-08-2019 16:00:00 23.7 C 53 % 13.56 C
3650 12-08-2019 16:05:00 23.6 C 54 % 13.75 C
Sensor: Nr:Datum:Temp:Feuchte:Taupunkt:
Aussen-T/F 3651 12-08-2019 16:10:00 23.4 C 55 % 13.85 C
3652 12-08-2019 16:15:00 23.3 C 56 % 14.03 C
3653 12-08-2019 16:20:00 23.1 C 57 % 14.12 C
3654 12-08-2019 16:25:00 22.9 C 57 % 13.93 C
3655 12-08-2019 16:30:00 23 C 58 % 14.29 C
3656 12-08-2019 16:35:00 22.9 C 59 % 14.47 C
3657 12-08-2019 16:40:00 22.6 C 57 % 13.65 C
3658 12-08-2019 16:45:00 21.5 C 63 % 14.16 C
3659 12-08-2019 16:50:00 20.5 C 66 % 13.93 C
3660 12-08-2019 16:55:00 20 C 67 % 13.69 C
3661 12-08-2019 17:00:00 19.7 C 68 % 13.63 C
3662 12-08-2019 17:05:00 19.6 C 69 % 13.76 C
3663 12-08-2019 17:10:00 19.4 C 67 % 13.12 C
3664 12-08-2019 17:15:00 19.1 C 70 % 13.5 C
3665 12-08-2019 17:20:00 18.7 C 73 % 13.76 C
3666 12-08-2019 17:25:00 18 C 77 % 13.91 C
3667 12-08-2019 17:30:00 17.5 C 80 % 14.01 C
3668 12-08-2019 17:35:00 17.1 C 83 % 14.19 C
3669 12-08-2019 17:40:00 16.8 C 84 % 14.08 C
3670 12-08-2019 17:45:00 16.5 C 85 % 13.97 C
3671 12-08-2019 17:50:00 16.2 C 85 % 13.68 C
3672 12-08-2019 17:55:00 16.1 C 86 % 13.76 C
3673 12-08-2019 18:00:00 16.1 C 88 % 14.11 C
3674 12-08-2019 18:05:00 16 C 88 % 14.01 C
3675 12-08-2019 18:10:00 16.1 C 89 % 14.29 C
Sensor: Nr:Datum:Temp:Feuchte:Taupunkt:
Aussen-T/F 3676 12-08-2019 18:15:00 16.1 C 90 % 14.46 C
3677 12-08-2019 18:20:00 16.1 C 90 % 14.46 C
3678 12-08-2019 18:25:00 15.9 C 90 % 14.26 C
3679 12-08-2019 18:30:00 15.8 C 90 % 14.16 C
3680 12-08-2019 18:35:00 15.8 C 90 % 14.16 C
3681 12-08-2019 18:40:00 15.8 C 91 % 14.33 C
3682 12-08-2019 18:45:00 15.8 C 91 % 14.33 C
3683 12-08-2019 18:50:00 15.8 C 91 % 14.33 C
3684 12-08-2019 18:55:00 15.8 C 92 % 14.5 C
3685 12-08-2019 19:00:00 15.8 C 92 % 14.5 C
3686 12-08-2019 19:05:00 15.9 C 92 % 14.6 C
3687 12-08-2019 19:10:00 15.9 C 92 % 14.6 C
3688 12-08-2019 19:15:00 16 C 92 % 14.7 C
3689 12-08-2019 19:20:00 16 C 92 % 14.7 C
3690 12-08-2019 19:25:00 16 C 92 % 14.7 C
3691 12-08-2019 19:30:00 16 C 92 % 14.7 C
3692 12-08-2019 19:35:00 16 C 92 % 14.7 C
3693 12-08-2019 19:40:00 15.9 C 92 % 14.6 C
3694 12-08-2019 19:45:00 15.9 C 92 % 14.6 C
3695 12-08-2019 19:50:00 15.9 C 92 % 14.6 C
3696 12-08-2019 19:55:00 15.8 C 92 % 14.5 C
3697 12-08-2019 20:00:00 15.9 C 92 % 14.6 C
3698 12-08-2019 20:05:00 15.9 C 92 % 14.6 C
3699 12-08-2019 20:10:00 15.9 C 93 % 14.77 C
3700 12-08-2019 20:15:00 15.9 C 92 % 14.6 C
Sensor: Nr:Datum:Temp:Feuchte:Taupunkt:
Aussen-T/F 3701 12-08-2019 20:20:00 15.7 C 92 % 14.4 C
3702 12-08-2019 20:25:00 15.6 C 91 % 14.14 C
3703 12-08-2019 20:30:00 15.4 C 92 % 14.11 C
3704 12-08-2019 20:35:00 15.3 C 92 % 14.01 C
3705 12-08-2019 20:40:00 15.3 C 92 % 14.01 C
3706 12-08-2019 20:45:00 15.2 C 92 % 13.91 C
3707 12-08-2019 20:50:00 15.2 C 93 % 14.08 C
3708 12-08-2019 20:55:00 15.2 C 93 % 14.08 C
3709 12-08-2019 21:00:00 15.2 C 93 % 14.08 C
3710 12-08-2019 21:05:00 15.1 C 93 % 13.98 C
3711 12-08-2019 21:10:00 15.2 C 93 % 14.08 C
3712 12-08-2019 21:15:00 15.2 C 93 % 14.08 C
3713 12-08-2019 21:20:00 15.2 C 94 % 14.24 C
3714 12-08-2019 21:25:00 15.2 C 93 % 14.08 C
3715 12-08-2019 21:30:00 15.2 C 94 % 14.24 C
3716 12-08-2019 21:35:00 15.2 C 94 % 14.24 C
3717 12-08-2019 21:40:00 15.2 C 94 % 14.24 C
3718 12-08-2019 21:45:00 15.2 C 94 % 14.24 C
3719 12-08-2019 21:50:00 15.2 C 94 % 14.24 C
3720 12-08-2019 21:55:00 15.2 C 94 % 14.24 C
3721 12-08-2019 22:00:00 15.2 C 94 % 14.24 C
3722 12-08-2019 22:05:00 15.1 C 94 % 14.14 C
3723 12-08-2019 22:10:00 15.1 C 94 % 14.14 C
3724 12-08-2019 22:15:00 15.1 C 94 % 14.14 C
3725 12-08-2019 22:20:00 15 C 94 % 14.04 C
Sensor: Nr:Datum:Temp:Feuchte:Taupunkt:
Aussen-T/F 3726 12-08-2019 22:25:00 14.9 C 94 % 13.94 C
3727 12-08-2019 22:30:00 14.9 C 94 % 13.94 C
3728 12-08-2019 22:35:00 14.9 C 94 % 13.94 C
3729 12-08-2019 22:40:00 14.9 C 94 % 13.94 C
3730 12-08-2019 22:45:00 14.9 C 94 % 13.94 C
3731 12-08-2019 22:50:00 14.9 C 94 % 13.94 C
3732 12-08-2019 22:55:00 14.8 C 94 % 13.84 C
3733 12-08-2019 23:00:00 14.7 C 94 % 13.74 C
3734 12-08-2019 23:05:00 14.7 C 93 % 13.58 C
3735 12-08-2019 23:10:00 14.5 C 93 % 13.38 C
3736 12-08-2019 23:15:00 14.4 C 93 % 13.28 C
3737 12-08-2019 23:20:00 14.2 C 93 % 13.08 C
3738 12-08-2019 23:25:00 14.1 C 92 % 12.82 C
3739 12-08-2019 23:30:00 13.9 C 92 % 12.62 C
3740 12-08-2019 23:35:00 13.8 C 92 % 12.52 C
3741 12-08-2019 23:40:00 13.7 C 92 % 12.42 C
3742 12-08-2019 23:45:00 13.5 C 92 % 12.23 C
3743 12-08-2019 23:50:00 13.4 C 93 % 12.29 C
3744 12-08-2019 23:55:00 13.3 C 93 % 12.19 C
3745 13-08-2019 00:00:00 13.4 C 94 % 12.45 C
3746 13-08-2019 00:05:00 13.4 C 94 % 12.45 C
3747 13-08-2019 00:10:00 13.4 C 94 % 12.45 C
3748 13-08-2019 00:15:00 13.5 C 94 % 12.55 C
3749 13-08-2019 00:20:00 13.6 C 95 % 12.81 C
3750 13-08-2019 00:25:00 13.6 C 95 % 12.81 C
Sensor: Nr:Datum:Temp:Feuchte:Taupunkt:
Aussen-T/F 3751 13-08-2019 00:30:00 13.7 C 95 % 12.91 C
3752 13-08-2019 00:35:00 13.7 C 94 % 12.75 C
3753 13-08-2019 00:40:00 13.7 C 94 % 12.75 C
3754 13-08-2019 00:45:00 13.6 C 94 % 12.65 C
3755 13-08-2019 00:50:00 13.6 C 94 % 12.65 C
3756 13-08-2019 00:55:00 13.5 C 94 % 12.55 C
3757 13-08-2019 01:00:00 13.4 C 94 % 12.45 C
3758 13-08-2019 01:05:00 13.3 C 94 % 12.36 C
3759 13-08-2019 01:10:00 13.2 C 94 % 12.26 C
3760 13-08-2019 01:15:00 13.2 C 94 % 12.26 C
3761 13-08-2019 01:20:00 13.1 C 94 % 12.16 C
3762 13-08-2019 01:25:00 13 C 94 % 12.06 C
3763 13-08-2019 01:30:00 13 C 94 % 12.06 C
3764 13-08-2019 01:35:00 12.9 C 94 % 11.96 C
3765 13-08-2019 01:40:00 12.9 C 94 % 11.96 C
3766 13-08-2019 01:45:00 12.8 C 95 % 12.02 C
3767 13-08-2019 01:50:00 12.8 C 95 % 12.02 C
3768 13-08-2019 01:55:00 12.7 C 95 % 11.92 C
3769 13-08-2019 02:00:00 12.7 C 95 % 11.92 C
3770 13-08-2019 02:05:00 12.7 C 95 % 11.92 C
3771 13-08-2019 02:10:00 12.8 C 95 % 12.02 C
3772 13-08-2019 02:15:00 12.8 C 95 % 12.02 C
3773 13-08-2019 02:20:00 12.8 C 95 % 12.02 C
3774 13-08-2019 02:25:00 12.8 C 95 % 12.02 C
3775 13-08-2019 02:30:00 12.8 C 95 % 12.02 C
Sensor: Nr:Datum:Temp:Feuchte:Taupunkt:
Aussen-T/F 3776 13-08-2019 02:35:00 12.8 C 95 % 12.02 C
3777 13-08-2019 02:40:00 12.8 C 95 % 12.02 C
3778 13-08-2019 02:45:00 12.9 C 96 % 12.28 C
3779 13-08-2019 02:50:00 13 C 96 % 12.38 C
3780 13-08-2019 02:55:00 13.1 C 96 % 12.48 C
3781 13-08-2019 03:00:00 13.1 C 96 % 12.48 C
3782 13-08-2019 03:05:00 13.1 C 96 % 12.48 C
3783 13-08-2019 03:10:00 13.1 C 96 % 12.48 C
3784 13-08-2019 03:15:00 13 C 96 % 12.38 C
3785 13-08-2019 03:20:00 12.9 C 95 % 12.12 C
3786 13-08-2019 03:25:00 12.8 C 95 % 12.02 C
3787 13-08-2019 03:30:00 12.8 C 95 % 12.02 C
3788 13-08-2019 03:35:00 12.8 C 95 % 12.02 C
3789 13-08-2019 03:40:00 12.8 C 95 % 12.02 C
3790 13-08-2019 03:45:00 12.8 C 96 % 12.18 C
3791 13-08-2019 03:50:00 12.8 C 96 % 12.18 C
3792 13-08-2019 03:55:00 12.8 C 96 % 12.18 C
3793 13-08-2019 04:00:00 12.8 C 96 % 12.18 C
3794 13-08-2019 04:05:00 12.9 C 96 % 12.28 C
3795 13-08-2019 04:10:00 13 C 96 % 12.38 C
3796 13-08-2019 04:15:00 13.1 C 96 % 12.48 C
3797 13-08-2019 04:20:00 13.2 C 96 % 12.58 C
3798 13-08-2019 04:25:00 13.3 C 96 % 12.68 C
3799 13-08-2019 04:30:00 13.4 C 96 % 12.78 C
3800 13-08-2019 04:35:00 13.5 C 96 % 12.87 C
Sensor: Nr:Datum:Temp:Feuchte:Taupunkt:
Aussen-T/F 3801 13-08-2019 04:40:00 13.6 C 96 % 12.97 C
3802 13-08-2019 04:45:00 13.5 C 96 % 12.87 C
3803 13-08-2019 04:50:00 13.5 C 95 % 12.72 C
3804 13-08-2019 04:55:00 13.5 C 95 % 12.72 C
3805 13-08-2019 05:00:00 13.5 C 95 % 12.72 C
3806 13-08-2019 05:05:00 13.4 C 95 % 12.62 C
3807 13-08-2019 05:10:00 13.4 C 95 % 12.62 C
3808 13-08-2019 05:15:00 13.3 C 95 % 12.52 C
3809 13-08-2019 05:20:00 13.2 C 95 % 12.42 C
3810 13-08-2019 05:25:00 13.2 C 95 % 12.42 C
3811 13-08-2019 05:30:00 13.2 C 95 % 12.42 C
3812 13-08-2019 05:35:00 13.1 C 95 % 12.32 C
3813 13-08-2019 05:40:00 13.1 C 95 % 12.32 C
3814 13-08-2019 05:45:00 13 C 95 % 12.22 C
3815 13-08-2019 05:50:00 12.9 C 95 % 12.12 C
3816 13-08-2019 05:55:00 12.9 C 95 % 12.12 C
3817 13-08-2019 06:00:00 12.9 C 95 % 12.12 C
3818 13-08-2019 06:05:00 12.9 C 95 % 12.12 C
3819 13-08-2019 06:10:00 12.8 C 95 % 12.02 C
3820 13-08-2019 06:15:00 12.8 C 95 % 12.02 C
3821 13-08-2019 06:20:00 12.8 C 95 % 12.02 C
3822 13-08-2019 06:25:00 12.7 C 95 % 11.92 C
3823 13-08-2019 06:30:00 12.7 C 95 % 11.92 C
3824 13-08-2019 06:35:00 12.6 C 95 % 11.82 C
3825 13-08-2019 06:40:00 12.6 C 95 % 11.82 C
Sensor: Nr:Datum:Temp:Feuchte:Taupunkt:
Aussen-T/F 3826 13-08-2019 06:45:00 12.7 C 95 % 11.92 C
3827 13-08-2019 06:50:00 12.7 C 96 % 12.08 C
3828 13-08-2019 06:55:00 12.8 C 96 % 12.18 C
3829 13-08-2019 07:00:00 12.8 C 96 % 12.18 C
3830 13-08-2019 07:05:00 12.9 C 96 % 12.28 C
3831 13-08-2019 07:10:00 12.9 C 96 % 12.28 C
3832 13-08-2019 07:15:00 12.9 C 96 % 12.28 C
3833 13-08-2019 07:20:00 12.9 C 96 % 12.28 C
3834 13-08-2019 07:25:00 12.9 C 95 % 12.12 C
3835 13-08-2019 07:30:00 12.9 C 95 % 12.12 C
3836 13-08-2019 07:35:00 12.9 C 95 % 12.12 C
3837 13-08-2019 07:40:00 12.9 C 95 % 12.12 C
3838 13-08-2019 07:45:00 12.9 C 95 % 12.12 C
3839 13-08-2019 07:50:00 12.9 C 94 % 11.96 C
3840 13-08-2019 07:55:00 13 C 94 % 12.06 C
3841 13-08-2019 08:00:00 13 C 94 % 12.06 C
3842 13-08-2019 08:05:00 13.1 C 94 % 12.16 C
3843 13-08-2019 08:10:00 13.1 C 94 % 12.16 C
3844 13-08-2019 08:15:00 13.2 C 94 % 12.26 C
3845 13-08-2019 08:20:00 13.2 C 93 % 12.09 C
3846 13-08-2019 08:25:00 13.3 C 93 % 12.19 C
3847 13-08-2019 08:30:00 13.3 C 94 % 12.36 C
3848 13-08-2019 08:35:00 13.4 C 93 % 12.29 C
3849 13-08-2019 08:40:00 13.6 C 92 % 12.33 C
3850 13-08-2019 08:45:00 13.7 C 92 % 12.42 C
Sensor: Nr:Datum:Temp:Feuchte:Taupunkt:
Aussen-T/F 3851 13-08-2019 08:50:00 13.8 C 90 % 12.19 C
3852 13-08-2019 08:55:00 14 C 90 % 12.39 C
3853 13-08-2019 09:00:00 14.2 C 89 % 12.41 C
3854 13-08-2019 09:05:00 14.3 C 89 % 12.51 C
3855 13-08-2019 09:10:00 14.5 C 89 % 12.71 C
3856 13-08-2019 09:15:00 14.6 C 88 % 12.64 C
3857 13-08-2019 09:20:00 14.7 C 88 % 12.73 C
3858 13-08-2019 09:25:00 14.8 C 88 % 12.83 C
3859 13-08-2019 09:30:00 14.9 C 87 % 12.76 C
3860 13-08-2019 09:35:00 15.1 C 87 % 12.95 C
3861 13-08-2019 09:40:00 15.2 C 86 % 12.88 C
3862 13-08-2019 09:45:00 15.3 C 86 % 12.97 C
3863 13-08-2019 09:50:00 15.3 C 83 % 12.43 C
3864 13-08-2019 09:55:00 15.3 C 82 % 12.25 C
3865 13-08-2019 10:00:00 15.5 C 79 % 11.88 C
3866 13-08-2019 10:05:00 15.8 C 78 % 11.97 C
3867 13-08-2019 10:10:00 15.9 C 76 % 11.68 C
3868 13-08-2019 10:15:00 16.2 C 76 % 11.97 C
3869 13-08-2019 10:20:00 16.2 C 76 % 11.97 C
3870 13-08-2019 10:25:00 16.3 C 75 % 11.86 C
3871 13-08-2019 10:30:00 16.3 C 75 % 11.86 C
3872 13-08-2019 10:35:00 16.2 C 73 % 11.36 C
3873 13-08-2019 10:40:00 16.3 C 72 % 11.25 C
3874 13-08-2019 10:45:00 16.6 C 73 % 11.74 C
3875 13-08-2019 10:50:00 16.7 C 72 % 11.63 C